     2.10           OBSERVATION DATA    G (GPS)             RINEX VERSION / TYPE
teqc 2005May6 SOPAC 20050707 00:30:54UTC                    PGM / RUN BY / DATE
Linux 2.4.20-8|Pentium IV|gcc|Linux|486/DX+                 COMMENT
BIT 2 OF LLI FLAGS DATA COLLECTED UNDER A/S CONDITION       COMMENT
Barham                                                      MARKER NAME
BRHM                                                        MARKER NUMBER
Tim Dowell                                                  OBSERVER / AGENCY
0220202930 TRIMBLE 4700 1.30                                REC # / TYPE / VERS
0220063966 TRM22020.00+GP NONE                              ANT # / TYPE
 -2609079.0000 -4142666.0000  4074379.0000                  APPROX POSITION XYZ
        2.0000        0.0000        0.0000                  ANTENNA: DELTA H/E/N
     1     1                                                WAVELENGTH FACT L1/2
     6    L1    L2    C1    P2    P1    D1                  # / TYPES OF OBSERV
    15.0000                                                 INTERVAL
Northern California Height Modernization 2004               COMMENT
                                                            COMMENT
SOPAC - Scripps Orbit and Permanent Array Center            COMMENT
IGPP - Institute of Geophysics and Planetary Physics        COMMENT
SIO - Scripps Institution of Oceanography                   COMMENT
UCSD - University of California, San Diego                  COMMENT
                                                            COMMENT
email: archive@gpsmail.ucsd.edu                             COMMENT
ftp://garner.ucsd.edu                                       COMMENT
http://sopac.ucsd.edu                                       COMMENT
                                                            COMMENT
                                                            COMMENT
Approximate Lat, Lon : 39.957, -122.203                     COMMENT
                                                            COMMENT
SNR is mapped to RINEX snr flag value [0-9]                 COMMENT
L1 & L2: 2-19 dBHz = 1, 20-27 dBHz = 2, 28-31 dBHz = 3      COMMENT
32-35 dBHz = 4, 36-38 dBHz = 5, 39-41 dBHz = 6              COMMENT
42-44 dBHz = 7, 45-48 dBHz = 8, >= 49 dBHz = 9              COMMENT
  2004     9     9    20    59   30.0000000     GPS         TIME OF FIRST OBS
                                                            END OF HEADER
 04  9  9 20 59 30.0000000  0  6G 3G 8G13G16G23G27
    -11128.38658    -11232.04354  23212335.2504   23212334.8094
       210.1414
    -81025.43059    -55083.30355  23007519.2034   23007518.2344
      1637.2344
     33413.02459     16836.04257  20301522.3594   20301518.5554
      -697.2194
    209139.18557    144782.29052  24165765.9384   24165764.4024
     -4205.7974
    154158.76259     91925.49457  21497934.3134   21497928.9534
     -3132.4374
    -20492.18659    -17062.70857  21590798.9304   21590797.1254
       405.8914
 04  9  9 20 59 45.0000000  0  6G 3G 8G13G16G23G27
    -14175.88848    -13606.70044  23211755.4534   23211755.1844
       195.8594
   -105520.30948    -74170.18045  23002858.0704   23002857.4884
      1628.4384
     43968.15249     25060.81248  20303531.0084   20303526.9924
      -710.5004
    272293.33947    193993.31742  24177784.2344   24177782.9224
     -4215.0624
    201233.69249    128607.22847  21506892.0704   21506887.0744
     -3144.5474
    -26515.63249    -21756.29147  21589652.7504   21589650.8134
       396.9224
 04  9  9 21  0  0.0000000  0  7G 3G 8G13G16G23G27G19
    -17008.42948    -15813.85944  23211216.3594   23211216.2384
       181.4384
   -129882.80548    -93153.90945  22998221.9304   22998221.3054
      1619.4844
     54722.37749     33440.74447  20305577.8134   20305573.8404
      -723.8284
    335586.84647    243312.88642  24189828.5634   24189827.1604
     -4224.4224
    248490.31349    165430.54447  21515884.8204   21515879.8524
     -3156.7504
    -32403.23049    -26344.02047  21588532.3204   21588530.1524
       387.7034
    -84421.78657    -56218.31953  24199789.5634   24199788.5784
      1715.3444
 04  9  9 21  0 15.0000000  0  7G 3G 8G13G16G23G27G19
    -19603.38048    -17835.89144  23210722.6954   23210721.8634
       165.0314
   -154090.58948   -112017.07145  22993615.7584   22993614.1254
      1608.6254
     65698.40149     41993.48047  20307666.2814   20307662.4144
      -739.1414
    399041.79647    292758.27042  24201903.2894   24201901.7544
     -4235.6874
    295951.10249    202412.95447  21524916.4774   21524911.4964
     -3170.9064
    -38132.48849    -30808.37647  21587442.1884   21587439.7664
       376.6094
   -110066.72747    -76201.34043  24194908.7274   24194907.8204
      1704.5634
 04  9  9 21  0 30.0000000  0  7G 3G 8G13G16G23G27G19
    -21951.29948    -19665.43444  23210276.2194   23210275.1954
       147.9384
   -178134.38549   -130752.48045  22989039.8134   22989039.0664
      1597.0784
     76905.34249     50726.15947  20309798.6564   20309794.9024
      -755.2344
    462666.99047    342336.28542  24214011.2504   24214009.5744
     -4247.7194
    343624.99049    239561.40947  21533988.2194   21533983.1484
     -3185.7344
    -43694.38949    -35142.31047  21586383.8984   21586381.4574
       364.8444
   -135547.69947    -96056.59443  24190060.1804   24190059.1174
      1692.8594
 04  9  9 21  0 45.0000000  0  7G 3G 8G13G16G23G27G19
    -24041.86548    -21294.43544  23209878.4384   23209877.4534
       130.7034
   -202004.17848   -149352.27045  22984497.6334   22984496.7344
      1585.4694
     88353.41049     59646.74147  20311977.3984   20311973.5394
      -771.2504
    526472.20847    392054.59242  24226153.0394   24226151.1214
     -4259.7664
    391522.06849    276883.78947  21543102.8914   21543098.0824
     -3200.6724
    -49078.77649    -39337.93647  21585359.1174   21585357.0744
       353.0314
   -160854.25847   -115775.94443  24185244.5704   24185242.8914
      1681.2344
 04  9  9 21  1  0.0000000  0  7G 3G 8G13G16G23G27G19
    -25864.67548    -22714.81143  23209531.4844   23209530.1764
       112.5474
   -225689.72848   -167808.51045  22979990.0554   22979989.3204
      1572.8284
    100053.04549     68763.33648  20314203.7114   20314199.5474
      -788.4224
    590467.42447    441920.98242  24238331.2274   24238329.4964
     -4272.6874
    439652.50949    314388.00147  21552261.9384   21552257.2734
     -3216.5004
    -54275.45949    -43387.28747  21584370.4224   21584367.7934
       340.1254
   -185975.73647   -135351.06543  24180463.2734   24180462.5984
      1668.5004
 04  9  9 21  1 15.0000000  0  7G 3G 8G13G16G23G27G19
    -27422.07148    -23928.34044  23209234.6724   23209234.4414
        95.2034
   -249193.61448   -186123.17945  22975517.3834   22975516.4414
      1561.1254
    112001.76749     78074.02748  20316477.5944   20316473.6804
      -804.6414
    654649.60447    491933.01042  24250544.5164   24250542.8284
     -4284.7974
    488013.53849    352071.89647  21561464.6564   21561459.5164
     -3231.4844
    -59287.14749    -47292.48447  21583416.5394   21583415.1134
       328.2034
   -210914.40447   -154783.75043  24175718.3674   24175716.7974
      1656.6564
 04  9  9 21  1 30.0000000  0  7G 3G 8G13G16G23G27G19
    -28712.89648    -24934.16444  23208989.2974   23208988.3834
        77.2664
   -272514.88848   -204295.56045  22971079.6094   22971078.2624
      1548.7974
    124200.55249     87579.56947  20318798.6414   20318795.3054
      -821.4374
    719019.50046    542091.32342  24262793.2504   24262791.7774
     -4297.5164
    536605.90649    389936.05047  21570711.7034   21570706.7464
     -3247.0624
    -64112.89349    -51052.81047  21582498.0784   21582496.2704
       315.6094
   -235669.04747   -174073.05243  24171007.8444   24171005.8204
      1644.3284
 04  9  9 21  1 45.0000000  0  7G 3G 8G13G16G23G27G19
    -29739.85948    -25734.39644  23208793.8594   23208792.8984
        59.5164
   -295656.39048   -222327.88045  22966676.4454   22966675.1254
      1536.5944
    136646.72449     97277.88747  20321167.3364   20321163.3984
      -838.2034
    783573.80746    592393.33342  24275078.0004   24275076.1054
     -4309.9374
    585426.68049    427978.17847  21580001.9534   21579996.6644
     -3262.5164
    -68755.57849    -54670.46647  21581615.0554   21581612.5744
       303.2034
   -260242.16847   -193220.87043  24166331.1414   24166330.0274
      1631.9534
 04  9  9 21  2  0.0000000  0  7G 3G 8G13G16G23G27G19
    -30501.36248    -26327.77844  23208648.7424   23208647.7814
        42.0004
   -318616.72948   -240219.01645  22962306.3054   22962305.3594
      1524.7814
    149341.87349    107170.21447  20323583.3204   20323579.4654
      -854.5784
    848313.60846    642839.91842  24287396.8444   24287395.7584
     -4322.0164
    634477.21649    466199.35847  21589335.6644   21589330.9414
     -3277.6094
    -73213.92649    -58144.49547  21580766.4534   21580764.3714
       291.2504
   -284631.90047   -212225.81243  24161690.3594   24161688.7894
      1619.9694
 04  9  9 21  2 15.0000000  0  7G 3G 8G13G16G23G27G19
    -31001.26248    -26717.29444  23208553.4384   23208553.3634
        24.8444
   -341399.98148   -257972.16444  22957970.9454   22957970.0824
      1513.1724
    162281.87649    117253.33547  20326045.7664   20326041.5634
      -870.5784
    913234.45146    693427.53842  24299751.1334   24299750.5164
     -4333.7664
    683753.28849    504596.27447  21598712.6094   21598707.2704
     -3292.3754
    -77492.08849    -61478.11047  21579952.3754   21579950.3164
       279.4694
   -308841.99847   -231090.76243  24157082.9774   24157081.1564
      1608.2344
 04  9  9 21  2 30.0000000  0  7G 3G 8G13G16G23G27G19
    -31246.88448    -26908.67943  23208506.5944   23208505.8554
         7.8594
   -364013.59248   -275593.11744  22953667.6724   22953666.5664
      1501.9384
    175459.30349    127521.46447  20328553.0634   20328549.2664
      -886.3754
    978328.42646    744150.05642  24312137.6884   24312137.3714
     -4345.3754
    733247.16349    543162.89947  21608131.1724   21608126.0004
     -3306.8754
    -81597.65149    -64677.23847  21579171.0164   21579168.7734
       267.9384
   -332879.77047   -249821.47543  24152509.9144   24152507.3014
      1596.7504
 04  9  9 21  2 45.0000000  0  7G 3G 8G13G16G23G27G19
    -31239.88748    -26903.21544  23208507.7814   23208507.2384
        -8.6094
   -386459.21848   -293083.17544  22949396.6724   22949396.0274
      1490.9384
    188872.84949    137973.57048  20331105.4384   20331101.9734
      -901.8444
   1043593.49246    795005.90842  24324557.7194   24324557.1174
     -4356.3444
    782956.99449    581897.80947  21617590.8364   21617585.9694
     -3320.8914
    -85532.33949    -67743.21847  21578422.1254   21578420.1024
       256.8914
   -356746.59147   -268418.94743  24147966.9774   24147965.4104
      1585.6884
 04  9  9 21  3  0.0000000  0  7G 3G 8G13G16G23G27G19
    -30987.15848    -26706.26843  23208555.5164   23208555.3554
       -24.7664
   -408744.52448   -310448.31445  22945155.9144   22945154.8054
      1480.6724
    202514.89249    148603.73348  20333701.5234   20333697.7624
      -916.8124
   1109022.11946    845989.23742  24337008.1254   24337007.3754
     -4367.0944
    832875.52749    620795.33447  21627089.9924   21627084.8284
     -3334.5784
    -89303.45049    -70681.73647  21577704.4224   21577702.2934
       246.2344
   -380449.29747   -286888.54043  24143456.8444   24143454.6414
      1574.9534
 04  9  9 21  3 15.0000000  0  7G 3G 8G13G16G23G27G19
    -30491.24448    -26319.83844  23208650.4224   23208649.7814
       -41.1254
   -430871.96648   -327690.44745  22940945.0944   22940943.7934
      1469.9064
    216382.89249    159409.96547  20336340.6414   20336336.6884
      -932.1414
   1174611.20546    897097.56342  24349489.5474   24349488.8364
     -4378.0624
    882999.91149    659853.28347  21636628.4064   21636622.9694
     -3348.5624
    -92913.79949    -73494.98147  21577017.5314   21577015.4614
       235.2664
   -403990.16547   -305232.04143  24138977.1094   24138974.9224
      1563.9844
 04  9  9 21  3 30.0000000  0  7G 3G 8G13G16G23G27G19
    -29752.06548    -25743.85244  23208791.5864   23208790.5124
       -57.0784
   -452841.54948   -344809.56645  22936764.4304   22936763.6804
      1459.7504
    230476.98249    170392.36948  20339022.4454   20339018.9224
      -946.8124
   1240360.25346    948330.51042  24362001.2504   24362000.0904
     -4388.2504
    933329.81549    699071.35547  21646205.7424   21646200.8484
     -3361.8284
    -96363.44649    -76183.01747  21576361.1254   21576358.8954
       224.9384
   -427369.07947   -323449.34743  24134528.2894   24134525.8984
      1553.4844
 04  9  9 21  3 45.0000000  0  7G 3G 8G13G16G23G27G19
    -28780.02648    -24986.40744  23208976.3134   23208975.9534
       -72.2664
   -474663.76948   -361813.86345  22932611.5784   22932610.4344
      1450.2034
    244786.69349    181542.79948  20341745.7114   20341741.8524
      -960.9224
   1306258.42046    999679.73243  24374541.2194   24374540.1764
     -4397.8914
    983854.64949    738441.33147  21655820.3674   21655815.9884
     -3374.5314
    -99663.05249    -78754.11847  21575732.8524   21575730.7304
       215.2344
   -450596.29047   -341548.42943  24130108.4304   24130106.5124
      1543.7344
 04  9  9 21  4  0.0000000  0  7G 3G 8G13G16G23G27G19
    -27580.28748    -24051.53544  23209204.4064   23209203.6134
       -87.6874
   -496344.26748   -378707.72245  22928486.1804   22928485.1564
      1440.4224
    259306.66949    192857.07148  20344508.7194   20344504.9024
      -975.1414
   1372299.92246   1051140.58042  24387108.8594   24387107.9774
     -4407.5784
   1034568.87949    777958.88247  21665471.1484   21665465.6604
     -3387.4224
   -102818.11649    -81212.59547  21575132.7194   21575130.7304
       205.3594
   -473676.68347   -359533.09843  24125715.9694   24125713.9104
      1533.6414
 04  9  9 21  4 15.0000000  0  7G 3G 8G13G16G23G27G19
    -26153.88948    -22940.05144  23209475.8204   23209475.0124
      -102.6094
   -517884.26048   -395492.09745  22924387.2894   22924386.6214
      1431.2814
    274035.71949    204334.25047  20347311.4844   20347307.7894
      -988.9694
   1438483.21146   1102711.93242  24399703.2974   24399701.5704
     -4417.0004
   1085471.03349    817622.87047  21675157.2734   21675152.5234
     -3399.8124
   -105829.96549    -83559.48247  21574559.6954   21574557.4454
       196.0164
   -496611.33547   -377404.21443  24121351.7424   24121349.5664
      1524.0784
 04  9  9 21  4 30.0000000  0  6G 3G 8G13G23G27G19
    -24505.68048    -21655.73644  23209789.8594   23209789.1294
      -117.2194
   -539288.81448   -412170.93745  22920314.0784   22920312.6524
      1422.3754
    288968.91249    215970.51347  20350153.2504   20350149.6524
     -1002.2814
   1136556.02149    857429.32347  21684878.5704   21684873.4844
     -3411.7344
   -108703.63449    -85798.68647  21574012.8444   21574010.5004
       186.9694
   -519404.91947   -395165.41143  24117014.4454   24117011.7274
      1514.8754
 04  9  9 21  4 45.0000000  0  6G 3G 8G13G23G27G19
    -22635.72648    -20198.62844  23210145.8444   23210144.7814
      -131.7664
   -560557.79548   -428744.13845  22916266.8054   22916265.7034
      1413.6564
    304106.24049    227765.83148  20353033.8754   20353030.2074
     -1015.7034
   1187823.51649    897377.99547  21694634.2194   21694629.3674
     -3423.6874
   -111439.30249    -87930.35647  21573492.1954   21573490.2774
       178.0634
   -542057.18947   -412816.48243  24112704.0944   24112701.3714
      1505.7194
 04  9  9 21  5  0.0000000  0  6G 3G 8G13G23G27G19
    -20552.29348    -18575.17044  23210541.9224   23210541.2194
      -146.1414
   -581699.85848   -445218.44945  22912243.6644   22912242.4774
      1405.1254
    319439.38949    239713.75147  20355951.6024   20355947.9144
     -1028.9064
   1239264.94649    937462.20847  21704423.4694   21704418.1954
     -3435.3754
   -114045.51049    -89961.15147  21572996.1884   21572994.0164
       169.3284
   -564576.29747   -430363.79943  24108418.5084   24108416.0554
      1496.6564
 04  9  9 21  5 15.0000000  0  6G 3G 8G13G23G27G19
    -18253.25348    -16783.69344  23210979.6564   23210978.5864
      -160.1414
   -602713.24448   -461592.48245  22908244.5234   22908243.5004
      1396.9224
    334970.26749    251815.73347  20358906.8754   20358902.8554
     -1041.6724
   1290882.10549    977683.34547  21714245.8914   21714240.8754
     -3446.6414
   -116520.42449    -91889.64347  21572525.2734   21572522.9804
       160.9224
   -586960.00947   -447805.58443  24104158.7274   24104157.2154
      1487.9384
 04  9  9 21  5 30.0000000  0  6G 3G 8G13G23G27G19
    -15744.97348    -14829.20244  23211456.4224   23211455.7114
      -174.2814
   -623604.40748   -477871.28645  22904269.3054   22904267.9184
      1388.6094
    350692.46649    264066.79748  20361898.7974   20361894.9384
     -1054.5944
   1342668.39949   1018036.27047  21724100.2664   21724095.5044
     -3458.1564
   -118870.61549    -93720.94647  21572078.1334   21572075.9574
       152.4844
   -609214.50647   -465146.70643  24099923.8674   24099921.9184
      1479.2814
 04  9  9 21  5 45.0000000  0  6G 3G 8G13G23G27G19
    -13029.95048    -12713.58244  23211973.7814   23211972.5904
      -187.7974
   -644375.71648   -494056.68145  22900316.7194   22900315.4064
      1380.8284
    366603.53549    276465.04248  20364926.4304   20364922.7544
     -1067.0164
   1394620.88849   1058518.71247  21733986.9614   21733981.9614
     -3468.9844
   -121098.87549    -95457.23947  21571654.1334   21571651.6524
       144.5314
   -631342.10747   -482388.94143  24095712.7584   24095711.1484
      1470.9694
 04  9  9 21  6  0.0000000  0  6G 3G 8G13G23G27G19
    -10105.16248    -10434.49944  23212530.1024   23212529.3594
      -202.1094
   -665024.65948   -510146.74645  22896386.8284   22896386.3634
      1372.4224
    382706.17649    289012.55648  20367990.8594   20367987.3834
     -1080.0784
   1446742.36749   1099132.81047  21743905.1804   21743900.3054
     -3480.5624
   -123202.29849    -97096.25547  21571254.0944   21571251.2734
       135.9384
   -653339.58447   -499529.79743  24091527.3834   24091525.4454
      1461.9844
 04  9  9 21  6 15.0010000  0  6G 3G 8G13G23G27G19
     -6979.12348     -7998.62644  23213124.4504   23213124.1884
      -215.0474
   -685561.37149   -526149.33745  22892479.1384   22892477.6884
      1365.3284
    398992.75549    301703.38547  20371089.9894   20371086.1104
     -1091.7664
   1499027.42149   1139874.38347  21753854.8724   21753849.7714
     -3490.7034
   -125189.92449    -98645.05147  21570875.6614   21570873.2674
       128.6724
   -675216.93447   -516577.03443  24087364.3254   24087362.1734
      1454.4694
 04  9  9 21  6 30.0010000  0  6G 3G 8G13G23G27G19
     -3653.51548     -5407.23544  23213757.0994   23213757.1144
      -228.2974
   -705984.53648   -542063.46445  22888592.7164   22888591.4384
      1357.8444
    415459.75949    314534.83647  20374223.6144   20374219.5674
     -1103.8124
   1551467.35149   1180736.64547  21763833.5674   21763828.5874
     -3501.2194
   -127063.12549   -100104.66947  21570518.7944   21570517.0604
       121.1564
   -696972.41947   -533529.30343  24083223.9744   24083222.4154
      1446.3754
 04  9  9 21  6 45.0010000  0  6G 3G 8G13G23G27G19
      -124.85748     -2657.62144  23214429.3414   23214428.4034
      -241.8914
   -726292.40948   -557887.73845  22884728.3024   22884726.7044
      1350.0474
    432111.47749    327510.19847  20377392.2944   20377388.4624
     -1116.2034
   1604068.60749   1221724.61247  21773843.4274   21773838.5604
     -3512.0944
   -128818.93249   -101472.80847  21570184.8414   21570182.9664
       113.1564
   -718604.03847   -550385.05544  24079107.7554   24079105.8684
      1438.0474
 04  9  9 21  7  0.0010000  0  6G 3G 8G13G23G27G19
      3599.02048       244.10544  23215137.9424   23215137.0094
      -254.7974
   -746493.00848   -573628.43745  22880884.2474   22880882.6494
      1343.0634
    448939.94149    340623.29547  20380594.6384   20380590.9194
     -1127.7814
   1656822.96349   1262831.88247  21783882.1774   21783877.0404
     -3522.0944
   -130465.42449   -102755.77848  21569871.4814   21569870.0914
       106.0944
   -740119.52047   -567150.26643  24075013.2084   24075011.3644
      1430.4844
 04  9  9 21  7 15.0010000  0  6G 3G 8G13G23G27G19
      7514.68348      3295.28844  23215882.7164   23215881.8534
      -267.7664
   -766589.96149   -589288.37845  22877059.9974   22877058.6534
      1336.0944
    465941.74749    353871.44248  20383830.1534   20383826.1144
     -1139.5474
   1709726.81049   1304055.62747  21793949.5444   21793944.9314
     -3532.1564
   -132006.15449   -103956.34747  21569578.2784   21569576.0484
        98.8914
   -761521.86247   -583827.39444  24070940.6694   24070938.8884
      1422.7814
 04  9  9 21  7 30.0010000  0  6G 3G 8G13G23G27G19
     11627.21748      6499.86944  23216665.6224   23216664.8924
      -280.7034
   -786578.46548   -604863.80045  22873256.2474   22873255.0834
      1328.9384
    483121.76349    367258.47147  20387098.8494   20387095.2864
     -1151.2664
   1762784.96849   1345399.63247  21804046.3494   21804041.3214
     -3542.3914
   -133436.29049   -105070.71947  21569306.2474   21569303.5404
        91.6414
   -782806.13747   -600412.46744  24066890.4424   24066888.7904
      1415.1254
 04  9  9 21  7 45.0010000  0  6G 3G 8G13G23G27G19
     15933.20948      9855.17944  23217485.0674   23217484.4504
      -293.2504
   -806462.19448   -620357.58945  22869472.3724   22869471.2044
      1322.2814
    500476.52549    380781.67648  20390401.8414   20390398.0244
     -1162.6254
   1815993.48649   1386860.78547  21814171.3644   21814166.2284
     -3552.0314
   -134759.70949   -106101.93447  21569054.2314   21569051.8214
        84.9064
   -803975.60346   -616908.08743  24062861.5214   24062860.2634
      1407.6724
 04  9  9 21  8  0.0010000  0  6G 3G 8G13G23G27G19
     20427.00648     13356.86844  23218339.6144   23218338.9624
      -305.6874
   -826246.84348   -635774.15745  22865707.1384   22865705.9894
      1315.7974
    518000.36449    394436.61248  20393736.3884   20393732.5714
     -1173.7814
   1869346.64949   1428434.64947  21824324.3024   21824319.6534
     -3561.5474
   -135981.98249   -107054.34547  21568821.7474   21568819.6534
        78.3134
   -825035.54547   -633318.37244  24058854.5524   24058852.3104
      1400.5944
 04  9  9 21  8 15.0010000  0  6G 3G 8G13G23G27G19
     25109.86348     17005.84544  23219231.0604   23219230.4974
      -318.1724
   -845931.22548   -651112.61345  22861961.2554   22861960.2044
      1309.1724
    535694.45949    408224.22248  20397103.5444   20397099.6734
     -1185.0004
   1922845.38349   1470121.95947  21834504.3724   21834499.8804
     -3571.1414
   -137102.12149   -107927.15747  21568608.5054   21568606.3724
        71.5634
   -845984.38047   -649642.08843  24054868.0214   24054865.8334
      1393.2344
 04  9  9 21  8 30.0010000  0  6G 3G 8G13G23G27G19
     29978.94448     20799.93944  23220157.5214   23220156.8964
      -330.9844
   -865518.38048   -666375.29945  22858233.9664   22858232.7044
      1302.3284
    553555.86749    422142.20347  20400502.5604   20400498.9384
     -1196.5784
   1976486.51649   1511920.21247  21844712.3964   21844707.7784
     -3581.0314
   -138123.17349   -108722.77747  21568414.1924   21568412.1494
        64.6094
   -866824.96147   -665881.43744  24050901.8174   24050900.1854
      1385.5314
 04  9  9 21  8 45.0010000  0  6G 3G 8G13G23G27G19
     35036.04548     24740.56244  23221120.0604   23221119.3924
      -343.2504
   -885006.65948   -681560.92545  22854525.5444   22854524.6884
      1296.0634
    571586.15549    436191.77147  20403933.4034   20403929.3134
     -1207.4844
   2030271.48549   1553830.54847  21854947.3174   21854942.5674
     -3590.2664
   -139043.72149   -109440.07547  21568239.1614   21568236.8254
        58.1254
   -887555.36147   -682034.92943  24046956.9274   24046954.8104
      1378.5004
 04  9  9 21  9  0.0010000  0  6G 3G 8G13G23G27G19
     40276.34448     28823.92344  23222116.8494   23222116.1184
      -355.6564
   -904400.87249   -696673.26745  22850834.8564   22850833.8414
      1289.6254
    589780.56249    450369.23947  20407395.5754   20407392.0484
     -1218.5784
   2084195.32249   1595849.10447  21865208.9894   21865204.0404
     -3599.6724
   -139868.62549   -110082.84347  21568081.7634   21568079.5874
        51.6094
   -908180.05847   -698106.05844  24043031.9354   24043030.6534
      1371.2974
 04  9  9 21  9 15.0010000  0  6G 3G 8G13G23G27G19
     45701.37548     33051.24644  23223149.7244   23223148.7714
      -367.8444
   -923700.12448   -711711.60945  22847162.3104   22847161.6654
      1283.4064
    608140.46149    464675.64748  20410889.4664   20410885.7984
     -1229.5624
   2138259.10149   1637976.69147  21875496.9424   21875491.9034
     -3608.8754
   -140596.66549   -110650.14547  21567943.4814   21567941.2284
        45.3134
   -928697.53647   -714093.61843  24039127.5364   24039125.3994
      1364.2664
 04  9  9 21  9 30.0010000  0  6G 3G 8G13G23G27G19
     51309.04348     37420.85344  23224216.6464   23224216.0134
      -380.2344
   -942906.30948   -726677.43945  22843507.3884   22843506.3174
      1277.0314
    626663.77449    479109.40848  20414414.2784   20414410.2314
     -1240.6254
   2192460.34849   1680211.40947  21885810.8254   21885805.8414
     -3618.3284
   -141230.12449   -111143.72647  21567822.8024   21567821.0524
        38.8284
   -949109.66847   -729999.13044  24035243.6614   24035241.0834
      1357.0474
 04  9  9 21  9 45.0010000  0  6G 3G 8G13G23G27G19
     57103.89948     41936.34344  23225319.2864   23225318.4114
      -391.9844
   -962015.18948   -741567.44945  22839871.2474   22839870.1034
      1271.2504
    645354.95149    493673.97047  20417971.1304   20417966.8994
     -1251.1254
   2246803.49849   1722556.70947  21896152.0994   21896146.8994
     -3627.0314
   -141764.74049   -111560.29247  21567721.1534   21567718.7824
        32.8594
   -969411.69847   -745818.83144  24031380.1924   24031378.1494
      1350.3754
 04  9  9 21 10  0.0010000  0  6G 3G 8G13G23G27G19
     63083.17448     46595.53244  23226457.1854   23226456.1654
      -404.3284
   -981029.74548   -756383.96045  22836252.5364   22836251.8024
      1264.8594
    664211.09949    508367.05947  20421559.1304   20421555.2204
     -1262.2194
   2301285.34549   1765010.04947  21906519.4814   21906514.8414
     -3636.2664
   -142203.33749   -111902.05348  21567638.0524   21567635.5324
        26.4224
   -989606.17247   -761554.73944  24027537.2164   24027534.9744
      1343.1414
 04  9  9 21 10 15.0010000  0  6G 3G 8G13G23G27G19
     69242.88348     51395.32844  23227629.5134   23227628.6694
      -417.0624
   -999953.99448   -771130.09045  22832651.8724   22832650.6384
      1258.2034
    683228.14749    523185.54048  20425178.2164   20425174.5674
     -1273.5314
   2355901.60649   1807568.14647  21916912.8564   21916907.9194
     -3645.8914
   -142550.19149   -112172.32647  21567571.7784   21567569.6304
        19.6254
  -1009696.96547   -777209.84043  24023713.9584   24023711.6774
      1335.5164
 04  9  9 21 10 30.0010000  0  6G 3G 8G13G23G27G19
     75583.65248     56336.19644  23228835.5674   23228834.7634
      -428.2034
  -1018787.37649   -785805.42945  22829067.6464   22829067.0404
      1253.1254
    702406.52849    538129.73947  20428827.4424   20428823.8024
     -1283.4224
   2410652.60049   1850231.23747  21927331.5214   21927326.4974
     -3653.9224
   -142804.86949   -112370.75647  21567523.0444   21567520.7674
        14.4844
  -1029683.39847   -792783.61643  24019910.6854   24019908.6424
      1329.5784
 04  9  9 21 10 45.0010000  0  6G 3G 8G13G23G27G19
     82102.28948     61415.66444  23230076.2554   23230075.6694
      -440.7504
  -1037533.57748   -800412.83045  22825500.6144   22825499.4854
      1246.6414
    721743.25749    553197.32248  20432507.3804   20432503.8644
     -1294.6254
   2465535.00749   1892996.71047  21937775.2714   21937770.6534
     -3663.4534
   -142970.76949   -112500.00847  21567491.5214   21567488.9194
         7.8594
  -1049568.22547   -808278.21443  24016126.3174   24016124.9384
      1322.0004
 04  9  9 21 11  0.0010000  0  6G 3G 8G13G23G27G19
     88798.41448     66633.44844  23231350.3724   23231349.2434
      -452.1254
  -1056192.78848   -814952.43445  22821949.5524   22821948.2244
      1241.3134
    741237.69049    568387.78547  20436216.8964   20436212.8804
     -1304.7344
   2520548.09349   1935864.01747  21948243.9974   21948239.6424
     -3671.7344
   -143048.41849   -112560.52048  21567477.2164   21567474.4274
         2.4384
  -1069351.63747   -823693.79543  24012361.4974   24012360.0524
      1315.7194
 04  9  9 21 11 15.0010000  0  6G 3G 8G13G23G27G19
     95671.78948     71989.34744  23232658.7004   23232658.0324
      -464.0784
  -1074765.55248   -829424.70245  22818415.1064   22818414.0834
      1235.2664
    760889.41649    583700.82247  20439956.5754   20439952.7554
     -1315.3594
   2575691.23949   1978832.67746  21958737.3104   21958732.7944
     -3680.5314
   -143038.37449   -112552.67247  21567478.8884   21567476.2244
        -3.5314
  -1089033.85747   -839030.53843  24008616.4194   24008614.0954
      1308.7814
 04  9  9 21 11 30.0010000  0  6G 3G 8G13G23G27G19
    102721.37048     77482.55144  23233999.8644   23233999.3884
      -475.7664
  -1093253.13448   -843830.56845  22814897.2474   22814895.8724
      1229.7194
    780697.67749    599135.82647  20443725.9424   20443722.3334
     -1325.7194
   2630963.15549   2021901.67247  21969255.2474   21969250.6144
     -3689.0164
   -142941.79849   -112477.42047  21567497.0214   21567494.7594
        -9.2504
  -1108615.67947   -854289.02843  24004889.8884   24004888.0994
      1302.1564
 04  9  9 21 11 45.0010000  0  6G 3G 8G13G23G27G19
    109949.40348     83114.81244  23235375.2084   23235374.6144
      -487.5164
  -1111653.28848   -858168.30945  22811395.6534   22811394.5284
      1224.1094
    800664.50849    614694.38547  20447525.5444   20447521.9384
     -1336.1094
   2686365.78049   2065072.51547  21979798.4424   21979793.4464
     -3697.5314
   -142756.54349   -112333.05547  21567532.5054   21567530.4974
       -14.9224
  -1128094.66847   -869467.40043  24001183.2944   24001181.4314
      1295.4844
 04  9  9 21 12  0.0010000  0  6G 3G 8G13G23G27G19
    117358.00948     88887.78044  23236784.9354   23236784.6034
      -499.7344
  -1129964.11748   -872436.47745  22807911.4894   22807910.3064
      1217.9384
    820791.77849    630377.98448  20451355.9584   20451352.3334
     -1347.0164
   2741900.96749   2108346.67947  21990366.3174   21990361.5484
     -3706.6094
   -142480.93449   -112118.27447  21567584.7864   21567582.7634
       -21.2194
  -1147468.41647   -884563.77944  23997496.3174   23997494.7084
      1288.2974
 04  9  9 21 12 15.0010000  0  6G 3G 8G13G23G27G19
    124943.38548     94798.48544  23238228.4504   23238227.7944
      -511.5004
  -1148189.63448   -886638.14945  22804443.2394   22804442.1924
      1212.2974
    841075.65249    646183.60247  20455215.7084   20455211.8374
     -1357.3594
   2797564.62849   2151720.93047  22000958.5134   22000953.6034
     -3715.0314
   -142118.80249   -111836.08848  21567653.8884   21567651.4624
       -26.9064
  -1166740.68247   -899581.05243  23993828.4664   23993826.5954
      1281.5784
 04  9  9 21 12 30.0010000  0  6G 3G 8G13G23G27G19
    132704.16748    100845.86444  23239705.7394   23239705.0794
      -523.1564
  -1166331.01848   -900774.26745  22800990.9274   22800989.9114
      1206.7034
    861514.81749    662110.22148  20459105.2004   20459101.1924
     -1367.6874
   2853355.03849   2195193.94247  22011575.0674   22011570.6734
     -3723.4694
   -141671.60749   -111487.61447  21567738.6534   21567736.5244
       -32.5004
  -1185912.42747   -914520.03743  23990180.7944   23990178.3414
      1274.7814
 04  9  9 21 12 45.0010000  0  6G 3G 8G13G23G27G19
    140640.07148    107029.71944  23241215.3964   23241215.0524
      -534.9064
  -1184388.90248   -914845.31945  22797554.1464   22797553.1534
      1201.0784
    882108.84449    678157.51548  20463023.9814   20463020.3644
     -1378.0944
   2909271.79549   2238765.40147  22022215.5604   22022210.9194
     -3731.9374
   -141139.88149   -111073.27548  21567840.1144   21567837.8994
       -38.2194
  -1204983.95547   -929380.90144  23986551.6854   23986550.0794
      1268.1094
 04  9  9 21 13  0.0010000  0  6G 3G 8G13G23G27G19
    148752.62348    113351.19944  23242759.4034   23242758.5604
      -546.7974
  -1202361.91248   -928850.23245  22794134.2554   22794132.9354
      1195.3444
    902859.20749    694326.63147  20466972.7004   20466969.1144
     -1388.6094
   2965316.03549   2282436.19947  22032880.5994   22032876.0754
     -3740.5164
   -140522.31949   -110592.05847  21567957.1924   21567954.9854
       -44.0784
  -1223953.44747   -944162.25244  23982941.5444   23982939.4154
      1261.3134
 04  9  9 21 13 15.0010000  0  6G 3G 8G13G23G27G19
    157041.28048    119809.91344  23244336.3414   23244335.6654
      -558.3284
  -1220250.90048   -942789.67745  22790730.2164   22790728.9894
      1189.9844
    923765.32949    710617.11848  20470950.9034   20470947.2744
     -1398.7034
   3021486.82249   2326205.61946  22043569.5054   22043565.3294
     -3748.7504
   -139819.74449   -110044.58247  21568091.4034   21568088.9934
       -49.4844
  -1242821.12146   -958864.27443  23979351.1534   23979348.9424
      1254.5784
 04  9  9 21 13 30.0010000  0  6G 3G 8G13G23G27G19
    165504.13848    126404.36244  23245946.5524   23245946.2784
      -569.8594
  -1238057.67848   -956665.06345  22787341.3104   22787340.9314
      1184.5944
    944825.27849    727027.48047  20474958.4664   20474954.6534
     -1408.9224
   3077782.07549   2370072.02847  22054282.3804   22054277.5674
     -3757.0004
   -139034.02449   -109432.31447  21568241.0284   21568238.5094
       -54.9844
  -1261588.74647   -973488.35043  23975779.9974   23975777.7124
      1248.0314
 04  9  9 21 13 45.0010000  0  6G 3G 8G13G23G27G19
    174142.93048    133135.92644  23247591.3024   23247590.4034
      -581.5314
  -1255780.88948   -970475.32145  22783969.0214   22783967.7784
      1179.0474
    966040.38649    743558.71748  20478995.5834   20478991.9704
     -1419.2504
   3134203.18849   2414036.48247  22065019.1304   22065014.6814
     -3765.3444
   -138163.97749   -108754.37147  21568406.5444   21568404.2594
       -60.5314
  -1280254.58047   -988033.08644  23972227.7474   23972225.6144
      1241.2974
 04  9  9 21 14  0.0010000  0  6G 3G 8G13G23G27G19
    182950.79148    139999.20544  23249266.9664   23249266.0094
      -593.0624
  -1273427.39748   -984225.82845  22780611.0674   22780610.1614
      1173.6564
    987403.98149    760205.68047  20483060.8884   20483057.2204
     -1429.3754
   3190742.95249   2458093.42547  22075778.1854   22075773.4114
     -3773.4534
   -137216.44449   -108016.01247  21568587.0444   21568584.5014
       -65.9534
  -1298825.14947  -1002503.62144  23968693.4584   23968692.2244
      1234.6254
 04  9  9 21 14 15.0010000  0  6G 3G 8G13G23G27G19
    191935.15548    147000.03544  23250976.8884   23250975.7744
      -604.8284
  -1290989.87748   -997910.85045  22777269.1854   22777267.6224
      1167.9694
   1008923.53849    776974.16447  20487155.8414   20487152.1924
     -1439.9064
   3247408.68849   2502248.50347  22086561.4584   22086556.7984
     -3781.9064
   -136184.04349   -107211.53648  21568783.0284   21568780.6344
       -71.7194
  -1317292.81847  -1016893.93944  23965179.5674   23965177.1424
      1227.6724
 04  9  9 21 14 30.0010000  0  6G 3G 8G13G23G27G19
    201094.10248    154136.88744  23252719.5364   23252718.9194
      -615.9534
  -1308470.33248  -1011531.96145  22773942.6144   22773941.0404
      1163.0634
   1030596.92749    793862.51747  20491280.0994   20491276.2084
     -1449.5314
   3304198.04349   2546499.92447  22097368.0754   22097363.1344
     -3789.5474
   -135069.07049   -106342.72747  21568995.4504   21568993.2204
       -76.6254
  -1335659.29647  -1031205.44344  23961684.4194   23961682.7164
      1221.5944
 04  9  9 21 14 45.0010000  0  6G 3G 8G13G23G27G19
    210425.52848    161408.16444  23254494.9664   23254494.6384
      -628.0164
  -1325870.98948  -1025090.87945  22770631.4974   22770630.5564
      1157.1724
   1052422.10649    810869.15248  20495433.1224   20495429.8374
     -1460.2504
   3361108.79549   2590845.94047  22108197.8564   22108192.9354
     -3798.2504
   -133873.61549   -105411.19047  21569222.8104   21569220.5634
       -82.5784
  -1353926.40447  -1045439.49744  23958208.0914   23958205.9114
      1214.2344
 04  9  9 21 15  0.0010000  0  6G 3G 8G13G23G27G19
    219929.78948    168814.10544  23256303.7394   23256303.0404
      -639.6724
  -1343191.69848  -1038587.51145  22767334.9974   22767333.8964
      1151.8914
   1074399.27049    827994.22547  20499615.4814   20499611.7044
     -1470.4224
   3418140.91648   2635286.51447  22119050.7784   22119045.5914
     -3806.4064
   -132597.60149   -104416.88047  21569465.6144   21569463.3724
       -87.9534
  -1372093.64247  -1059595.71944  23954750.9114   23954748.9464
      1207.6254
 04  9  9 21 15 15.0010000  0  6G 3G 8G13G23G27G19
    229605.84648    176353.91444  23258145.0364   23258144.4974
      -651.1414
  -1360433.74148  -1052022.84145  22764054.0674   22764053.4314
      1146.5164
   1096527.27049    845236.81047  20503826.3174   20503822.4464
     -1480.5784
   3475293.07748   2679820.63047  22129926.4194   22129921.6854
     -3814.5624
   -131242.25549   -103360.76848  21569723.3334   21569721.4274
       -93.3594
  -1390161.93847  -1073674.85544  23951313.0754   23951311.1534
      1200.8594
 04  9  9 21 15 30.0010000  0  6G 3G 8G13G23G27G19
    239458.94048    184031.66044  23260019.7314   23260018.8804
      -662.7664
  -1377591.75948  -1065392.70545  22760789.2474   22760787.9584
      1141.0164
   1118811.45649    862601.11548  20508066.3964   20508063.0874
     -1490.8124
   3532570.17448   2724452.10547  22140825.7004   22140821.5484
     -3822.7034
   -129802.46349   -102238.83947  21569997.4114   21569995.3334
       -98.8754
  -1408125.77547  -1087672.61144  23947894.2314   23947892.0634
      1193.9694
 04  9  9 21 15 45.0010000  0  6G 3G 8G13G23G27G19
    249482.22748    191842.06044  23261927.2084   23261926.8924
      -673.8444
  -1394672.83348  -1078702.59845  22757538.5834   22757537.9784
      1136.2974
   1141244.70349    880081.56548  20512335.4194   20512332.1384
     -1500.4694
   3589965.23549   2769175.49647  22151747.8024   22151743.5524
     -3830.2034
   -128285.27249   -101056.60648  21570285.9424   21570283.6104
      -103.7034
  -1425991.75247  -1101594.08244  23944494.6384   23944492.4464
      1187.8444
 04  9  9 21 16  0.0010000  0  6G 3G 8G13G23G27G19
    259672.35948    199782.43844  23263866.8104   23263865.7594
      -684.7034
  -1411680.44048  -1091955.26545  22754302.2394   22754300.8334
      1131.6254
   1163823.51149    897675.44248  20516632.4274   20516628.6734
     -1509.9224
   3647474.55548   2813987.92247  22162691.2474   22162686.6734
     -3837.5314
   -126694.22949    -99816.82648  21570588.7714   21570586.7514
      -108.2974
  -1443763.05246  -1115441.80344  23941112.5284   23941110.9074
      1181.8134
 04  9  9 21 16 15.0010000  0  6G 3G 8G13G23G27G19
    270030.22148    207853.51144  23265837.8564   23265836.2514
      -696.1414
  -1428613.81948  -1105150.07845  22751079.6774   22751078.4354
      1126.4224
   1186549.12449    915383.71948  20520956.8564   20520953.2514
     -1519.8914
   3705098.76849   2858889.87446  22173656.6924   22173652.2124
     -3845.4534
   -125028.49049    -98518.83347  21570905.7554   21570903.9504
      -113.5004
  -1461438.49447  -1129214.83444  23937748.9584   23937747.1534
      1175.1884
 04  9  9 21 16 30.0010000  0  6G 3G 8G13G23G27G19
    280561.85948    216060.00144  23267841.2944   23267840.8964
      -707.6874
  -1445467.23348  -1118282.58645  22747872.6534   22747871.5134
      1121.1094
   1209427.24349    933210.82047  20525310.4814   20525306.6384
     -1530.0624
   3762843.55948   2903885.78447  22184645.8104   22184641.2244
     -3853.4374
   -123282.36349    -97158.20447  21571238.2714   21571235.8684
      -118.9064
  -1479011.92348  -1142908.36244  23934404.9274   23934402.5994
      1168.4224
 04  9  9 21 16 45.0010000  0  6G 3G 8G13G23G27G19
    291265.25148    224400.30844  23269878.5444   23269877.3964
      -719.2034
  -1462242.50548  -1131354.20746  22744681.0524   22744679.4154
      1115.8444
   1232455.71649    951155.08548  20529692.7164   20529689.0134
     -1540.2034
   3820706.60248   2948973.83547  22195656.4814   22195652.1774
     -3861.4064
   -121457.86049    -95736.50847  21571585.2944   21571582.8534
      -124.1874
  -1496485.15447  -1156523.81944  23931079.9814   23931077.4584
      1161.5944
 04  9  9 21 17  0.0010000  0  6G 3G 8G13G23G27G19
    302140.13548    232874.27244  23271947.5604   23271946.6264
      -730.6094
  -1478940.28348  -1144365.42446  22741503.2244   22741501.9624
      1110.6094
   1255634.40649    969216.39948  20534103.4354   20534099.7434
     -1550.1874
   3878687.41549   2994153.65647  22206689.8564   22206685.5834
     -3869.2194
   -119555.45149    -94254.10847  21571947.0914   21571944.7594
      -129.3444
  -1513858.13347  -1170061.14844  23927774.1224   23927771.8104
      1154.8754
 04  9  9 21 17 15.0010000  0  6G 3G 8G13G23G27G19
    313187.14148    241482.35244  23274050.1144   23274049.1614
      -741.7974
  -1495559.64448  -1157315.56246  22738340.6304   22738339.7824
      1105.8134
   1278963.86449    987395.20448  20538543.0524   20538539.4074
     -1559.8914
   3936786.43249   3039425.58847  22217745.7714   22217741.4584
     -3876.8594
   -117574.79649    -92710.72247  21572324.3884   21572321.7594
      -134.2664
  -1531130.06847  -1183519.76544  23924487.1854   23924484.8294
      1148.5004
 04  9  9 21 17 30.0010000  0  6G 3G 8G13G23G27G19
    324408.67948    250226.43344  23276185.2084   23276184.1694
      -753.8914
  -1512098.80848  -1170203.18446  22735193.4894   22735191.8414
      1099.9534
   1302446.31049   1005693.21248  20543011.4114   20543008.2084
     -1570.6094
   3995005.75949   3084791.25447  22228824.6534   22228820.1884
     -3885.3284
   -115513.44349    -91104.47248  21572716.7474   21572714.1264
      -140.1414
  -1548298.27547  -1196897.55644  23921220.3644   23921217.7674
      1141.1564
 04  9  9 21 17 45.0010000  0  6G 3G 8G13G23G27G19
    335804.55048    259106.34344  23278354.0134   23278352.8924
      -765.6414
  -1528557.89348  -1183028.42546  22732061.2084   22732059.6774
      1094.5164
   1326081.52849   1024110.26748  20547509.2944   20547505.6224
     -1580.8754
   4053344.89549   3130250.29747  22239926.2554   22239921.6654
     -3893.4064
   -113371.85149    -89435.69148  21573124.2634   21573121.5244
      -145.5314
  -1565362.60547  -1210194.40244  23917972.7004   23917970.8024
      1134.0474
 04  9  9 21 18  0.0010000  0  6G 3G 8G13G23G27G19
    347367.49948    268116.44844  23280554.4194   23280553.1814
      -776.3594
  -1544944.23049  -1195796.98045  22728942.9424   22728941.4384
      1090.0634
   1349862.24549   1042640.70447  20552034.3174   20552030.5834
     -1590.2034
   4111796.27349   3175796.80747  22251049.2004   22251044.8644
     -3900.4374
   -111157.42149    -87710.14148  21573545.2554   21573543.2634
      -149.9694
  -1582330.34647  -1223415.98044  23914744.2714   23914741.4544
      1127.9534
 04  9  9 21 18 15.0010000  0  6G 3G 8G13G23G27G19
    359101.51548    277259.85744  23282787.1224   23282786.2984
      -788.2194
  -1561253.94149  -1208505.81145  22725839.1464   22725837.9704
      1084.4844
   1373792.42549   1061287.58948  20556588.0524   20556584.3804
     -1600.5944
   4170363.67749   3221433.71047  22262193.9744   22262189.9034
     -3908.5944
   -108866.28749    -85924.85148  21573981.5604   21573978.9504
      -155.5784
  -1599197.15347  -1236558.89044  23911533.7314   23911532.2394
      1120.8134
 04  9  9 21 18 30.0010000  0  6G 3G 8G13G23G27G19
    371009.86248    286539.09844  23285053.2244   23285052.4464
      -800.3124
  -1577483.76949  -1221152.40645  22722751.0134   22722748.9664
      1078.7664
   1397875.28949   1080053.44148  20561171.2164   20561167.2244
     -1611.2504
   4229050.04949   3267163.31846  22273361.6774   22273357.4234
     -3917.0004
   -106495.44749    -84077.43548  21574432.4584   21574430.5364
      -161.3444
  -1615959.70847  -1249620.58044  23908344.5214   23908342.1574
      1113.4534
 04  9  9 21 18 45.0010000  0  6G 3G 8G13G23G27G19
    383093.10248    295954.63644  23287352.4814   23287351.5244
      -811.2974
  -1593633.43948  -1233736.52846  22719677.8494   22719676.1574
      1074.1094
   1422111.23549   1098938.59948  20565782.9894   20565779.1964
     -1620.7034
   4287855.60349   3312985.79647  22284552.0134   22284548.1034
     -3924.2344
   -104044.35249    -82167.48348  21574899.0994   21574896.8174
      -165.9694
  -1632617.09847  -1262600.33444  23905175.0444   23905172.2944
      1107.0474
 04  9  9 21 19  0.0010000  0  6G 3G 8G13G23G27G19
    395346.23348    305502.53444  23289683.9974   23289683.5214
      -822.5314
  -1609707.83148  -1246262.01546  22716618.9194   22716616.9464
      1069.0474
   1446495.41449   1117939.26248  20570423.0914   20570419.9354
     -1630.5944
   4346775.28149   3358897.18646  22295764.1774   22295759.9974
     -3931.6874
   -101518.11649    -80198.97748  21575379.5834   21575377.6104
      -170.9064
  -1649173.93346  -1275501.73744  23902024.6464   23902021.3454
      1100.4694
 04  9  9 21 19 15.0010000  0  6G 3G 8G13G23G27G19
    407764.98748    315179.49644  23292046.9504   23292046.5174
      -833.7814
  -1625711.56248  -1258732.42045  22713572.7784   22713571.9034
      1064.3134
   1471023.33249   1137051.92348  20575090.7554   20575087.2044
     -1640.2194
   4405804.49949   3404893.94946  22306997.0914   22306992.4354
     -3939.2344
    -98921.26249    -78175.44047  21575873.8644   21575871.7634
      -175.7504
  -1665634.47146  -1288328.09144  23898891.5914   23898889.4034
      1093.9534
 04  9  9 21 19 30.0010000  0  6G 3G 8G13G23G27G19
    420356.84948    324991.35144  23294443.3174   23294442.3884
      -845.0784
  -1641637.10948  -1271141.91046  22710542.5444   22710541.4934
      1059.2504
   1495702.40949   1156282.36348  20579786.8494   20579783.3414
     -1650.1414
   4464950.27149   3450981.52246  22318252.3724   22318247.7394
     -3946.8444
    -96246.54749    -76091.25147  21576382.4424   21576380.5714
      -180.7664
  -1681991.04247  -1301073.43744  23895778.9744   23895777.0244
      1087.1414
 04  9  9 21 19 45.0010000  0  6G 3G 8G13G23G27G19
    433114.60348    334932.46644  23296871.0214   23296869.9584
      -856.1414
  -1657491.87949  -1283496.26046  22707525.7164   22707524.3134
      1054.4694
   1520525.48449   1175625.03248  20584510.4974   20584506.4894
     -1659.7344
   4524205.27649   3497154.22446  22329528.1464   22329523.5994
     -3954.0474
    -93501.15049    -73951.96248  21576905.2944   21576903.2244
      -185.4844
  -1698250.61047  -1313743.19444  23892685.0364   23892682.6654
      1080.5944
 04  9  9 21 20  0.0010000  0  6G 3G 8G13G23G27G19
    446043.61848    345007.04444  23299331.5134   23299330.7244
      -867.4694
  -1673270.60648  -1295791.34646  22704523.1464   22704521.4544
      1049.5944
   1545497.76749   1195083.94848  20589262.7474   20589258.9314
     -1669.5784
   4583574.59548   3543415.98346  22340825.8254   22340821.3024
     -3961.5474
    -90679.99849    -71753.65147  21577441.9504   21577439.9854
      -190.3914
  -1714407.48747  -1326332.92844  23889610.2554   23889607.6884
      1073.9224
 04  9  9 21 20 15.0010000  0  6G 3G 8G13G23G27G19
    459141.06448    355212.86144  23301823.9034   23301823.1694
      -878.9844
  -1688976.23048  -1308029.47246  22701534.7554   22701533.0244
      1044.4064
   1570616.41049   1214656.92348  20594042.4744   20594038.8494
     -1679.6414
   4643055.11748   3589764.42346  22352144.4664   22352139.9544
     -3969.2194
    -87785.92049    -69498.50047  21577992.7714   21577990.4584
      -195.5004
  -1730464.22347  -1338844.63044  23886555.1384   23886551.8994
      1066.9694
 04  9  9 21 20 30.0010000  0  6G 3G 8G13G23G27G19
    472406.51048    365549.59744  23304348.0834   23304347.2354
      -890.1254
  -1704609.34949  -1320211.10646  22698559.4974   22698557.8494
      1039.5944
   1595880.94249   1234343.56248  20598850.2314   20598846.6854
     -1689.3284
   4702646.20449   3636198.98546  22363484.4814   22363479.9234
     -3976.5784
    -84819.47749    -67186.98547  21578557.3564   21578554.7204
      -200.3124
  -1746421.00547  -1351278.44444  23883517.8804   23883515.7284
      1060.2814
 04  9  9 21 20 45.0010000  0  6G 3G 8G13G23G27G19
    485843.01948    376019.60044  23306905.2244   23306903.8884
      -901.8914
  -1720167.08248  -1332333.98946  22695598.9584   22695597.6384
      1034.2664
   1621294.29849   1254146.17748  20603686.1854   20603682.6344
     -1699.6564
   4762350.55248   3682721.82846  22374845.9034   22374841.1384
     -3984.5314
    -81777.88349    -64816.90147  21579136.1144   21579133.7784
      -205.6254
  -1762274.64747  -1363631.90044  23880501.4194   23880498.5954
      1053.1254
 04  9  9 21 21  0.0010000  0  6G 3G 8G13G23G27G19
    499449.13148    386621.77144  23309494.5444   23309492.8964
      -912.7974
  -1735650.61848  -1344399.06246  22692652.6694   22692651.0914
      1029.7034
   1646855.00949   1274063.60948  20608550.3174   20608547.0914
     -1709.0314
   4822166.43748   3729331.56046  22386228.7634   22386224.4114
     -3991.4844
    -78662.74949    -62389.51648  21579728.8254   21579726.4854
      -210.1564
  -1778026.34947  -1375905.92444  23877503.8884   23877500.9424
      1046.6884
 04  9  9 21 21 15.0010000  0  6G 3G 8G13G23G27G19
    513222.77048    397354.50444  23312115.1304   23312114.0794
      -923.5474
  -1751062.31348  -1356408.15046  22689719.4584   22689718.1224
      1025.3134
   1672561.02749   1294094.26948  20613442.1064   20613438.5874
     -1718.2974
   4882091.67648   3776026.51746  22397631.8024   22397627.4354
     -3998.3754
    -75476.12549    -59906.43248  21580335.0754   21580333.2714
      -214.5624
  -1793677.95347  -1388101.95344  23874525.9274   23874522.9584
      1040.3444
 04  9  9 21 21 30.0010000  0  6G 3G 8G13G23G27G19
    527162.10547    408216.31744  23314768.1384   23314766.6104
      -934.6094
  -1766404.05648  -1368362.73446  22686800.4894   22686799.0014
      1020.6414
   1698410.58549   1314236.78248  20618361.0284   20618357.5284
     -1728.0004
   4942124.15848   3822805.05346  22409055.9584   22409051.2714
     -4005.5624
    -72220.06949    -57369.23447  21580954.7164   21580952.5094
      -219.1874
  -1809230.97547  -1400221.15644  23871565.9814   23871563.2084
      1033.7814
 04  9  9 21 21 45.0010000  0  6G 3G 8G13G23G27G19
    541266.71647    419206.93944  23317451.9814   23317450.8064
      -945.7344
  -1781676.16148  -1380263.03846  22683893.9424   22683892.5364
      1015.8914
   1724403.04149   1334490.64048  20623306.9894   20623303.7124
     -1737.5004
   5002263.16048   3869666.57846  22420499.9974   22420495.1534
     -4012.7194
    -68894.89149    -54778.18147  21581587.3724   21581585.2594
      -223.8754
  -1824685.59747  -1412263.68144  23868625.4814   23868622.6884
      1027.0314
 04  9  9 21 22  0.0010000  0  6G 3G 8G13G23G27G19
    555541.73147    430330.33844  23320168.1144   23320167.5794
      -957.1094
  -1796873.88048  -1392105.39046  22681001.9504   22681000.6694
      1010.9534
   1750543.46949   1354859.79647  20628281.2634   20628277.8724
     -1747.3914
   5062513.50248   3916614.86346  22431964.8644   22431960.2944
     -4020.1414
    -65495.87849    -52129.58848  21582234.3494   21582231.9464
      -228.7814
  -1840036.63347  -1424225.49444  23865703.0994   23865700.5714
      1020.1094
 04  9  9 21 22 15.0010000  0  6G 3G 8G13G23G27G19
    569984.42648    441584.38744  23322915.8724   23322915.7554
      -968.5784
  -1812000.00648  -1403891.95746  22678123.2554   22678122.2124
      1005.9384
   1776829.13349   1375342.13548  20633283.3724   20633279.5674
     -1757.3124
   5122872.16748   3963647.56746  22443450.8104   22443446.6144
     -4027.5944
    -62025.84949    -49425.65248  21582894.8334   21582892.0794
      -233.7974
  -1855286.52947  -1436108.49544  23862801.9894   23862798.9464
      1013.2034
 04  9  9 21 22 30.0010000  0  6G 3G 8G13G23G27G19
    584593.84848    452968.36744  23325696.5674   23325695.5994
      -979.1564
  -1827055.52848  -1415623.50846  22675258.2084   22675257.3214
      1001.7034
   1803259.06649   1395936.88548  20638313.0914   20638308.9974
     -1766.4224
   5183338.01548   4010763.76746  22454957.4034   22454952.7394
     -4034.3284
    -58485.78749    -46667.16647  21583568.4584   21583566.0674
      -237.9064
  -1870435.83247  -1447913.11844  23859918.5364   23859916.0754
      1006.8914
 04  9  9 21 22 45.0010000  0  6G 3G 8G13G23G27G19
    599370.41348    464482.58244  23328508.6384   23328507.4664
      -990.9694
  -1842040.12048  -1427299.79346  22672406.8964   22672406.0284
       996.3134
   1829833.55249   1416644.27048  20643369.8494   20643366.4464
     -1776.8284
   5243911.15648   4057963.59446  22466483.8254   22466479.8174
     -4042.1724
    -54875.53449    -43853.97147  21584255.3964   21584252.8334
      -243.3594
  -1885483.98748  -1459638.91544  23857055.3884   23857053.2594
       999.4384
 04  9  9 21 23  0.0010000  0  6G 3G 8G13G23G27G19
    614317.77848    476129.88544  23331353.2554   23331352.1774
     -1001.9064
  -1856950.28948  -1438918.08646  22669569.4194   22669568.1924
       991.7194
   1856556.34149   1437467.21948  20648454.9274   20648451.5834
     -1786.1094
   5304594.95048   4105249.63546  22478031.4504   22478027.6464
     -4048.9694
    -51191.42049    -40983.22547  21584956.4274   21584953.8564
      -247.7504
  -1900427.05047  -1471282.83544  23854211.6304   23854209.5094
       993.0944
 04  9  9 21 23 15.0010000  0  6G 3G 8G13G23G27G19
    629429.04948    487904.91044  23334228.9354   23334227.3374
     -1013.3914
  -1871792.97748  -1450483.77746  22666744.7944   22666744.0094
       986.6254
   1883420.35149   1458400.21848  20653567.1774   20653563.7634
     -1796.2034
   5365382.33648   4152616.39446  22489599.1854   22489595.0834
     -4056.5164
    -47440.44849    -38060.38147  21585670.2634   21585668.3334
      -252.7814
  -1915271.70547  -1482850.07944  23851387.2004   23851384.0604
       985.7814
 04  9  9 21 23 30.0010000  0  6G 3G 8G13G23G27G19
    644704.97648    499808.24444  23337135.3334   23337134.9114
     -1023.8124
  -1886567.37648  -1461996.27646  22663934.0054   22663932.8534
       982.7664
   1910426.37949   1479443.86848  20658706.4744   20658702.7124
     -1805.0474
   5426273.72948   4200064.18946  22501185.9974   22501182.4814
     -4062.7194
    -43622.09849    -35085.03447  21586396.6924   21586394.2084
      -256.7344
  -1930016.91447  -1494339.81944  23848580.9114   23848579.0174
       979.8284
 04  9  9 21 23 45.0010000  0  6G 3G 8G13G23G27G19
    660149.22448    511842.72844  23340074.3414   23340073.5604
     -1034.7814
  -1901269.98648  -1473452.83146  22661135.7944   22661134.3214
       978.3134
   1937577.92549   1500600.90848  20663873.1224   20663869.7864
     -1814.4534
   5487272.64048   4247595.77046  22512794.2004   22512789.7004
     -4069.7194
    -39732.86249    -32054.45847  21587136.9114   21587134.4504
      -261.1564
  -1944658.73647  -1505748.97644  23845794.4114   23845792.3334
       973.2194
 04  9  9 21 24  0.0010000  0  6G 3G 8G13G23G27G19
    675754.66448    524002.83044  23343043.6384   23343043.2594
     -1046.1254
  -1915908.22348  -1484859.21946  22658350.2244   22658349.1654
       973.4224
   1964867.84349   1521865.78248  20669065.9974   20669062.5564
     -1824.2974
   5548371.61148   4295205.33446  22524420.6694   22524416.8534
     -4076.9224
    -35779.94949    -28974.26247  21587889.4034   21587886.9034
      -265.9374
  -1959204.18947  -1517083.07044  23843027.2554   23843024.3064
       966.1884
 04  9  9 21 24 15.0010000  0  6G 3G 8G13G23G27G19
    691523.44047    536290.19044  23346044.7084   23346044.1964
     -1056.5164
  -1930479.90448  -1496213.76046  22655577.0994   22655575.8294
       969.3594
   1992298.33949   1543240.19347  20674285.9354   20674282.3604
     -1833.2504
   5609572.61248   4342894.39446  22536066.7554   22536062.8174
     -4083.3914
    -31761.19749    -25842.75047  21588653.9274   21588651.5524
      -269.9844
  -1973650.75747  -1528340.11244  23840277.5754   23840275.1924
       959.8754
 04  9  9 21 24 30.0010000  0  6G 3G 8G13G23G27G19
    707459.56847    548707.98644  23349076.9664   23349076.2394
     -1067.8914
  -1944980.87148  -1507513.17546  22652817.9194   22652816.7244
       964.4844
   2019873.43449   1564727.27548  20679533.2554   20679529.8214
     -1843.0314
   5670879.33448   4390665.83046  22547733.1614   22547729.3534
     -4090.5314
    -27672.72749    -22656.92448  21589431.7474   21589429.4384
      -274.7974
  -1987994.13547  -1539516.71844  23837547.7944   23837545.6534
       952.8284
 04  9  9 21 24 45.0010000  0  6G 3G 8G13G23G27G19
    723564.11247    561256.99644  23352141.5754   23352140.6424
     -1078.9534
  -1959410.18748  -1518756.77446  22650072.2634   22650071.0214
       959.9224
   2047594.07249   1586327.76348  20684808.3884   20684804.3994
     -1852.5474
   5732292.70048   4438520.36546  22559419.9744   22559416.0604
     -4097.4534
    -23513.56149    -19416.02647  21590223.2164   21590221.0484
      -279.2974
  -2002233.02447  -1550611.91944  23834837.9664   23834836.1774
       946.0944
 04  9  9 21 25  0.0010000  0  6G 3G 8G13G23G27G19
    739835.61448    573936.08944  23355238.1224   23355236.7394
     -1090.1874
  -1973769.44748  -1529945.79246  22647339.4034   22647338.0524
       955.1254
   2075458.72049   1608040.47648  20690110.9664   20690107.1574
     -1862.2194
   5793810.93448   4486456.62646  22571126.6224   22571122.4234
     -4104.5314
    -19285.46849    -16121.38748  21591027.9894   21591025.6104
      -283.9844
  -2016368.83147  -1561626.82544  23832148.3254   23832146.0284
       939.1094
 04  9  9 21 25 15.0010000  0  6G 3G 8G13G23G27G19
    756272.51747    586744.07944  23358365.6614   23358364.6184
     -1101.5944
  -1988060.30948  -1541081.51446  22644620.2244   22644618.6264
       950.1884
   2103465.88349   1629864.23748  20695440.3174   20695436.9504
     -1872.1874
   5855432.18248   4534473.14546  22582852.5444   22582848.8334
     -4111.7504
    -14989.93549    -12774.20448  21591845.2474   21591842.9974
      -288.8914
  -2030402.78247  -1572562.31944  23829477.7864   23829475.2904
       931.9534
 04  9  9 21 25 30.0010000  0  6G 3G 8G13G23G27G19
    772869.22348    599676.59244  23361524.1924   23361523.2904
     -1112.0784
  -2002288.31648  -1552168.24446  22641912.8804   22641911.1144
       946.1414
   2131609.67649   1651794.47848  20700795.5214   20700792.4074
     -1881.0944
   5917150.71348   4582565.48846  22594597.6774   22594593.4974
     -4118.1254
    -10632.70649     -9378.94547  21592674.4664   21592672.2984
      -292.8444
  -2044340.05447  -1583422.49844  23826825.4894   23826823.3964
       925.6254
 04  9  9 21 25 45.0010000  0  6G 3G 8G13G23G27G19
    789634.42048    612740.40044  23364714.2784   23364713.9704
     -1123.2664
  -2016444.91749  -1563199.34346  22639218.7244   22639216.5244
       941.4064
   2159899.00749   1673838.10748  20706179.0524   20706175.6264
     -1890.8124
   5978974.93348   4630740.16546  22606362.1774   22606357.9384
     -4125.0784
     -6205.11949     -5928.87647  21593516.8104   21593514.3254
      -297.5164
  -2058171.72847  -1594200.40244  23824193.7394   23824190.9814
       918.5944
 04  9  9 21 26  0.0010000  0  6G 3G 8G13G23G27G19
    806563.74347    625932.08944  23367935.9194   23367935.3604
     -1134.2344
  -2030534.69948  -1574178.35946  22636537.4744   22636535.7244
       937.0164
   2188329.40149   1695991.65148  20711589.3564   20711585.8134
     -1900.1564
   6040900.10448   4678993.50446  22618146.1854   22618141.7634
     -4131.8284
     -1711.70449     -2427.51047  21594372.1384   21594369.6034
      -301.8914
  -2071902.05547  -1604899.30944  23821580.9974   23821578.4624
       911.8444
 04  9  9 21 26 15.0010000  0  6G 3G 8G13G23G27G19
    823652.90248    639248.35144  23371187.7554   23371187.2244
     -1143.9694
  -2044561.89049  -1585108.61946  22633868.2164   22633866.7204
       933.7814
   2216896.52549   1718251.74248  20717025.7714   20717021.9704
     -1908.3124
   6102921.81548   4727322.07846  22629948.8174   22629944.3964
     -4137.2974
      2843.04949      1121.65647  21595238.9114   21595236.6534
      -305.0004
  -2085534.98247  -1615522.35544  23818986.0754   23818983.3804
       906.2974
 04  9  9 21 26 30.0010000  0  6G 3G 8G13G23G27G19
    840901.90648    652689.14044  23374470.0994   23374469.7124
     -1155.4844
  -2058526.45648  -1595990.07446  22631210.9584   22631209.5954
       928.6414
   2245600.35249   1740618.36048  20722487.5604   20722484.3924
     -1918.4224
   6165039.88448   4775725.74146  22641769.0524   22641765.0404
     -4144.6564
      7459.14649      4718.63148  21596116.7714   21596114.2944
      -310.0164
  -2099070.26547  -1626069.28244  23816410.9894   23816408.2554
       898.8914
 04  9  9 21 26 45.0010000  0  6G 3G 8G13G23G27G19
    858321.20148    666262.63144  23377784.4194   23377784.1424
     -1166.6254
  -2072418.16048  -1606814.74346  22628567.2554   22628566.0794
       924.0944
   2274451.23049   1763099.56648  20727977.7634   20727974.5914
     -1927.8444
   6227264.34148   4824212.29646  22653610.2394   22653606.0564
     -4151.3754
     12146.82349      8371.36347  21597009.2944   21597006.8964
      -314.4694
  -2112497.25247  -1636531.84744  23813855.8334   23813852.8294
       891.9224
 04  9  9 21 27  0.0010000  0  6G 3G 8G13G23G27G19
    875899.24748    679959.82244  23381129.8414   23381129.0674
     -1177.2664
  -2086248.39548  -1617591.52646  22625935.2784   22625934.2554
       919.9064
   2303437.68849   1785686.40848  20733493.7084   20733490.0524
     -1937.0004
   6289583.53048   4872772.66446  22665468.8964   22665464.8214
     -4157.7814
     16894.70349     12071.02348  21597912.5834   21597909.8964
      -318.5624
  -2125827.11747  -1646918.72944  23811319.3334   23811316.7594
       885.3754
 04  9  9 21 27 15.0020000  0  6G 3G 8G13G23G27G19
    893642.70748    693785.91544  23384506.4164   23384505.4394
     -1187.6094
  -2100012.87248  -1628317.07146  22623315.9554   22623314.6114
       916.0164
   2332567.07449   1808384.63048  20739037.1274   20739033.2294
     -1945.8444
   6352006.82048   4921414.16546  22677347.5884   22677343.4864
     -4163.9224
     21708.35349     15821.92948  21598828.6114   21598826.3614
      -322.3594
  -2139055.01647  -1657226.13844  23808802.1354   23808798.9984
       879.0004
 04  9  9 21 27 30.0020000  0  6G 3G 8G13G23G27G19
    911546.26448    707736.76144  23387913.3854   23387912.2134
     -1199.2344
  -2113712.67248  -1638992.22446  22620709.5414   22620707.9754
       910.8444
   2361832.53949   1831188.87448  20744606.1274   20744602.2994
     -1955.9534
   6414522.57848   4970127.69046  22689244.2444   22689240.2134
     -4171.2344
     26583.93549     19621.07748  21599756.6824   21599753.7954
      -327.4374
  -2152182.03247  -1667454.95844  23806304.1434   23806300.9084
       871.4844
 04  9  9 21 27 45.0020000  0  6G 3G 8G13G23G27G19
    929616.72948    721817.65744  23391352.1354   23391351.3074
     -1209.9374
  -2127342.96349  -1649613.20146  22618115.3074   22618114.2994
       906.7034
   2391241.75949   1854105.15048  20750202.2524   20750198.4514
     -1965.0784
   6477140.53048   5018920.87046  22701160.1664   22701156.4044
     -4177.5784
     31527.56349     23473.26747  21600697.3854   21600694.8614
      -331.4844
  -2165202.94948  -1677601.09244  23803826.0574   23803823.4084
       864.8594
 04  9  9 21 28  0.0020000  0  6G 3G 8G13G23G27G19
    947845.57948    736021.96944  23394820.8774   23394819.6354
     -1220.5944
  -2140912.52949  -1660186.86846  22615532.7524   22615531.4904
       902.6094
   2420786.08649   1877126.70648  20755824.3144   20755820.9944
     -1974.1254
   6539852.01649   5067786.93446  22713093.7054   22713089.0844
     -4183.8284
     36530.59549     27371.73848  21601649.2364   21601647.1394
      -335.5314
  -2178125.93848  -1687670.91944  23801366.7834   23801364.3224
       858.1884
 04  9  9 21 28 15.0020000  0  6G 3G 8G13G23G27G19
    966239.42048    750354.85644  23398321.3694   23398320.0844
     -1231.8284
  -2154414.87749  -1670708.16046  22612963.7604   22612961.8654
       897.7814
   2450472.09049   1900258.65848  20761473.5024   20761469.7874
     -1983.9064
   6602663.33348   5116730.78246  22725046.3224   22725042.4044
     -4190.8124
     41599.57349     31321.60747  21602613.6504   21602611.3694
      -340.2664
  -2190944.25648  -1697659.19944  23798927.9864   23798924.3034
       851.0164
 04  9  9 21 28 30.0020000  0  6G 3G 8G13G23G27G19
    984801.45547    764818.80044  23401853.4324   23401852.2914
     -1242.8594
  -2167846.60949  -1681174.42146  22610408.0574   22610405.9554
       893.3754
   2480302.85349   1923503.40548  20767150.0724   20767146.8114
     -1993.2504
   6665577.35848   5165754.66246  22737018.7054   22737014.8934
     -4197.3594
     46737.54749     35325.22348  21603591.7364   21603588.5024
      -344.5004
  -2203654.39948  -1707563.16945  23796509.1434   23796505.9984
       844.0004
 04  9  9 21 28 45.0020000  0  6G 3G 8G13G23G27G19
   1003521.24147    779405.67644  23405415.6664   23405414.6664
     -1253.0004
  -2181218.38049  -1691593.94746  22607863.2214   22607861.9674
       889.8134
   2510267.86349   1946852.76148  20772852.1504   20772849.0184
     -2001.8284
   6728583.47148   5214850.29346  22749008.2444   22749004.3504
     -4203.1874
     51934.03549     39374.44047  21604580.6894   21604577.8304
      -348.0784
  -2216266.58648  -1717390.81045  23794108.8614   23794106.0294
       837.8134
 04  9  9 21 29  0.0020000  0  6G 3G 8G13G23G27G19
   1022404.76148    794120.12044  23409009.0024   23409008.4204
     -1264.6564
  -2194524.25849  -1701962.14946  22605331.2364   22605329.7484
       884.4844
   2540373.18449   1970311.44648  20778581.0644   20778577.6194
     -2011.9534
   6791687.42648   5264022.16446  22761016.4714   22761012.3774
     -4210.5314
     57194.78649     43473.73648  21605581.6114   21605579.4164
      -353.1874
  -2228774.62348  -1727137.30245  23791728.7754   23791725.8504
       830.0634
 04  9  9 21 29 15.0020000  0  6G 3G 8G13G23G27G19
   1041453.25348    808963.11244  23412633.5964   23412632.4004
     -1275.5624
  -2207763.08649  -1712278.10346  22602811.9634   22602810.4364
       880.2664
   2570619.93549   1993880.36048  20784337.0184   20784333.2444
     -2021.3284
   6854890.26348   5313271.09546  22773043.3854   22773039.3894
     -4216.9374
     62521.15349     47624.16147  21606595.2914   21606592.8694
      -357.3594
  -2241177.00748  -1736801.45945  23789368.4244   23789365.3774
       823.1094
 04  9  9 21 29 30.0020000  0  6G 3G 8G13G23G27G19
   1060661.57048    823930.65644  23416288.8304   23416288.1504
     -1285.9844
  -2220939.86049  -1722545.68446  22600304.3144   22600302.4394
       876.3444
   2601003.10149   2017555.54248  20790118.8144   20790114.9474
     -2030.1254
   6918186.63948   5362592.92546  22785088.4394   22785084.7714
     -4222.9374
     67907.74749     51821.51647  21607620.3934   21607617.3894
      -361.1874
  -2253478.47747  -1746386.97745  23787027.7604   23787024.5534
       816.6094
 04  9  9 21 29 45.0020000  0  6G 3G 8G13G23G27G19
   1080027.06848    839020.67444  23419974.3544   23419973.2644
     -1295.9374
  -2234057.38248  -1732767.12546  22597808.0334   22597806.4554
       872.8754
   2631519.91749   2041334.87748  20795925.8224   20795922.1314
     -2038.5314
   6981573.49048   5411985.24146  22797150.6434   22797146.2484
     -4228.4844
     73351.97249     56063.76748  21608656.2214   21608653.6824
      -364.5004
  -2265681.44147  -1755895.73944  23784705.3934   23784702.7644
       810.5164
 04  9  9 21 30  0.0020000  0  6G 3G 8G13G23G27G19
   1099549.50447    854232.99844  23423689.0494   23423688.1004
     -1306.8124
  -2247115.98248  -1742942.62546  22595323.2604   22595321.5294
       868.4694
   2662170.12949   2065218.15848  20801758.2054   20801754.6704
     -2047.8914
   7045050.33748   5461447.68546  22809230.0494   22809226.1744
     -4234.9694
     78853.43149     60350.63647  21609702.8614   21609700.4864
      -368.8284
  -2277785.94947  -1765327.76244  23782401.4634   23782399.0534
       803.5004
 04  9  9 21 30 15.0020000  0  6G 3G 8G13G23G27G19
   1119235.76148    869572.94944  23427435.0414   23427434.1354
     -1317.6874
  -2260108.85449  -1753066.91546  22592850.9794   22592849.2214
       864.1564
   2692960.56449   2089210.69648  20807617.6274   20807614.0064
     -2057.1874
   7108623.94248   5510985.51546  22821327.8614   22821323.9594
     -4241.2504
     84419.05449     64687.48148  21610762.3464   21610759.6274
      -373.0164
  -2289784.73847  -1774677.43044  23780118.3304   23780115.6934
       796.5474
 04  9  9 21 30 30.0020000  0  6G 3G 8G13G23G27G19
   1139082.21948    885037.72444  23431212.0254   23431210.4944
     -1328.2194
  -2273039.66848  -1763142.86746  22590389.7524   22590388.2404
       860.2664
   2723887.62749   2113309.70048  20813503.0494   20813499.5064
     -2066.0624
   7172290.46248   5560595.75846  22833443.2214   22833439.4394
     -4247.3124
     90045.06149     69071.39448  21611832.7914   21611830.3184
      -376.7664
  -2301681.11547  -1783947.29944  23777854.7054   23777852.3184
       789.8914
 04  9  9 21 30 45.0020000  0  6G 3G 8G13G23G27G19
   1159089.97848    900628.21144  23435019.2054   23435018.4474
     -1338.9694
  -2285907.27149  -1773169.54146  22587941.6354   22587939.8424
       855.9534
   2754952.30049   2137515.94648  20819414.0024   20819410.7134
     -2075.3444
   7236050.69048   5610279.00446  22845576.3144   22845572.1894
     -4253.6874
     95732.44249     73503.12548  21612914.9084   21612911.9984
      -380.9844
  -2313473.83347  -1793136.36444  23775610.4944   23775608.1584
       782.9224
 04  9  9 21 31  0.0020000  0  6G 3G 8G13G23G27G19
   1179257.66448    916343.30744  23438857.1114   23438855.5414
     -1350.3124
  -2298712.99348  -1783148.02146  22585504.2834   22585502.6504
       851.2504
   2786153.32349   2161828.42448  20825351.4864   20825347.9324
     -2085.0314
   7299903.16548   5660034.15046  22857727.1584   22857722.9324
     -4260.3444
    101479.88549     77981.67448  21614008.7524   21614006.5494
      -385.5784
  -2325163.98147  -1802245.52744  23773386.0884   23773383.5804
       775.4694
 04  9  9 21 31 15.0020000  0  6G 3G 8G13G23G27G19
   1199585.31948    932183.04344  23442725.2294   23442724.0294
     -1360.2194
  -2311456.97048  -1793078.38246  22583079.0574   22583077.5534
       847.8754
   2817490.68449   2186247.15148  20831314.7994   20831310.8384
     -2093.4374
   7363847.68448   5709861.01045  22869895.3384   22869891.4754
     -4265.7034
    107287.37749     82506.99148  21615113.9794   21615111.5024
      -388.8594
  -2336751.23348  -1811274.51144  23771180.4944   23771178.3734
       769.2664
 04  9  9 21 31 30.0020000  0  6G 3G 8G13G23G27G19
   1220072.72547    948147.28044  23446624.0414   23446623.0454
     -1371.0004
  -2324139.52248  -1802960.86746  22580666.2294   22580664.2954
       843.6094
   2848964.00749   2210771.80348  20837303.8614   20837300.2604
     -2102.5004
   7427883.73348   5759759.18845  22882081.0884   22882077.0374
     -4272.0004
    113154.48949     87078.77148  21616230.2914   21616228.1114
      -393.0624
  -2348235.60747  -1820223.31444  23768995.2214   23768993.2484
       762.3594
 04  9  9 21 31 45.0020000  0  6G 3G 8G13G23G27G19
   1240717.18147    964233.86144  23450552.3074   23450551.5884
     -1382.0624
  -2336763.21148  -1812797.50046  22578263.9324   22578262.0644
       839.0634
   2880570.63949   2235400.35548  20843318.4864   20843314.9004
     -2112.0784
   7492008.39548   5809726.43246  22894283.1664   22894279.8304
     -4278.3914
    119078.56349     91694.94648  21617357.7684   21617355.2214
      -397.2974
  -2359619.41947  -1829093.78744  23766829.1354   23766826.3894
       755.0314
 04  9  9 21 32  0.0020000  0  7G 3G 8G13G10G23G27G19
   1261526.12948    980448.66644  23454511.9944   23454511.2364
     -1392.3124
  -2349320.61548  -1822582.46046  22575873.9634   22575872.2684
       835.4064
   2912318.01349   2260138.54448  20849359.8614   20849356.5184
     -2120.7814
    -28551.66555    -18487.13052  24658933.9944   24658934.2524
       876.8134
   7556228.81048   5859768.27546  22906503.7834   22906500.4474
     -4284.0784
    125066.95249     96361.21947  21618496.9084   21618494.5104
      -400.8444
  -2370894.93047  -1837879.83544  23764683.6044   23764680.8854
       748.4844
 04  9  9 21 32 15.0020000  0  7G 3G 8G13G10G23G27G19
   1282490.49748    996784.52844  23458501.4944   23458500.5884
     -1402.9534
  -2361820.84648  -1832322.87846  22573495.4324   22573493.8654
       831.3134
   2944197.14149   2284979.43148  20855426.2364   20855422.6154
     -2129.8754
    -41641.59745    -28687.06642  24656443.5724   24656442.3344
       868.4694
   7620535.84548   5909877.62646  22918741.6974   22918737.3304
     -4290.1874
    131110.55549    101070.53248  21619647.2524   21619644.7714
      -404.9224
  -2382070.96647  -1846588.41644  23762556.9324   23762553.8934
       741.6564
 04  9  9 21 32 30.0020000  0  7G 3G 8G13G10G23G27G19
   1303610.01148   1013241.31944  23462520.0104   23462519.0804
     -1413.4064
  -2374263.95348  -1842018.79846  22571127.7054   22571125.7564
       827.3284
   2976207.68049   2309922.68848  20861517.8614   20861514.2094
     -2138.6874
    -54605.16545    -38788.50042  24653975.8614   24653975.5454
       859.7194
   7684929.14648   5960054.18345  22930995.3144   22930991.3854
     -4296.0164
    137209.07149    105822.63148  21620807.5494   21620804.9594
      -408.6564
  -2393147.37748  -1855219.32944  23760448.7834   23760446.1274
       734.9064
 04  9  9 21 32 45.0020000  0  7G 3G 8G13G10G23G27G19
   1324883.96648   1029818.44244  23466568.5574   23466567.6704
     -1423.0624
  -2386650.84448  -1851670.89346  22568770.2834   22568768.4514
       824.2344
   3008348.86749   2334967.77848  20867633.9324   20867630.6624
     -2146.7344
    -67443.18045    -48792.14742  24651533.0254   24651533.1504
       852.2814
   7749407.62548   6010297.13045  22943265.1044   22943260.4084
     -4301.0004
    143361.81749    110616.98448  21621978.4474   21621976.0024
      -411.6254
  -2404124.60648  -1863772.98544  23758360.0184   23758356.8114
       728.8594
 04  9  9 21 33  0.0020000  0  7G 3G 8G13G10G23G27G19
   1346316.42248   1046519.04544  23470646.8934   23470646.1394
     -1434.1254
  -2398977.61748  -1861276.16146  22566424.6894   22566422.9124
       819.7664
   3040624.72249   2360117.78548  20873775.8074   20873772.5184
     -2156.2194
    -80151.19745    -58694.45342  24649115.1504   24649114.7954
       842.8284
   7813975.15748   6060609.47146  22955551.9244   22955547.6664
     -4307.5004
    149572.78749    115456.72348  21623160.4084   21623157.8344
      -416.0944
  -2414998.40048  -1872246.02545  23756290.9864   23756288.0254
       721.4844
 04  9  9 21 33 15.0020000  0  7G 3G 8G13G10G23G27G19
   1367908.61547   1063344.14944  23474756.2444   23474754.3734
     -1444.6874
  -2411243.00948  -1870833.59346  22564090.8224   22564089.0534
       815.7194
   3073036.52349   2385373.73348  20879943.6894   20879940.1354
     -2165.1724
    -92727.90345    -68494.44742  24646721.3854   24646721.3304
       834.0634
   7878632.69648   6110991.92145  22967855.3934   22967852.1974
     -4313.4534
    155842.96249    120342.58048  21624353.4474   21624350.4794
      -419.9064
  -2425767.14348  -1880637.20845  23754241.6744   23754238.7014
       714.4384
 04  9  9 21 33 30.0020000  0  7G 3G 8G13G10G23G27G19
   1389658.33848   1080291.99844  23478894.7054   23478893.7604
     -1455.3914
  -2423449.30648  -1880344.96546  22561767.6274   22561766.1194
       811.6884
   3105581.98249   2410733.81748  20886136.5184   20886133.2914
     -2174.3284
   -105175.22945    -78193.63842  24644352.1894   24644352.9594
       825.3444
   7943377.85148   6161442.64846  22980176.1824   22980172.3504
     -4319.3914
    162170.23849    125272.92248  21625557.5334   21625555.1314
      -423.8594
  -2436432.86548  -1888948.11645  23752212.4944   23752208.7364
       707.5004
 04  9  9 21 33 45.0020000  0  7G 3G 8G13G10G23G27G19
   1411568.89447   1097365.14144  23483064.1974   23483063.4084
     -1465.5944
  -2435593.16648  -1889807.70246  22559457.2914   22559455.2714
       808.0004
   3138264.34949   2436200.59548  20892356.1504   20892352.7134
     -2182.9224
   -117489.79746    -87789.43242  24642009.6274   24642009.5844
       817.1254
   8008213.63548   6211964.01246  22992513.8614   22992510.3614
     -4324.9224
    168557.74649    130250.21048  21626773.0494   21626770.0334
      -427.4374
  -2446992.01048  -1897175.99344  23750202.7444   23750199.6464
       700.8594
 04  9  9 21 34  0.0020000  0  7G 3G 8G13G10G23G27G19
   1433633.24048   1114558.16044  23487262.7994   23487261.9984
     -1476.0004
  -2447681.52549  -1899227.17846  22557156.5254   22557154.6624
       804.2664
   3171076.64849   2461768.60848  20898600.1974   20898596.6744
     -2191.6724
   -129678.29746    -97286.86242  24639689.6114   24639690.0964
       808.5944
   8073132.94748   6262550.43945  23004868.1274   23004864.3774
     -4330.5624
    174998.54049    135269.01147  21627999.0254   21627996.2324
      -431.0624
  -2457451.18948  -1905325.94644  23748212.3934   23748209.5764
       694.0474
 04  9  9 21 34 15.0020000  0  7G 3G 8G13G10G23G27G19
   1455851.94548   1131871.44444  23491491.1044   23491490.1544
     -1486.1874
  -2459713.77648  -1908602.93846  22554867.0574   22554864.9554
       800.4534
   3204019.34349   2487438.24648  20904868.8934   20904865.4364
     -2200.3284
   -141740.07046   -106685.60242  24637394.7994   24637394.8814
       800.2194
   8138135.99348   6313202.12946  23017237.4714   23017233.9434
     -4336.1564
    181493.12149    140329.73048  21629234.6354   21629231.8894
      -434.5164
  -2467809.60648  -1913397.40444  23746240.8384   23746238.5374
       687.3914
 04  9  9 21 34 30.0020000  0  7G 3G 8G13G10G23G27G19
   1478232.17148   1149310.57944  23495749.8074   23495748.8184
     -1497.3594
  -2471682.95948  -1917929.55946  22552589.1974   22552587.5104
       795.8444
   3237099.79649   2513215.22048  20911163.5414   20911160.3894
     -2209.9534
   -153667.65446   -115979.82342  24635125.1274   24635124.9394
       790.8444
   8203229.71748   6363924.48046  23029624.7134   23029620.6354
     -4342.5474
    188048.64649    145437.93948  21630481.8074   21630479.2254
      -439.0784
  -2478059.82748  -1921384.55244  23744290.4554   23744286.7754
       679.6884
 04  9  9 21 34 45.0020000  0  7G 3G 8G13G10G23G27G19
   1500773.89548   1166875.54644  23500039.5494   23500038.4514
     -1508.1564
  -2483589.11748  -1927207.05946  22550323.2214   22550321.5644
       791.7194
   3270317.75649   2539099.33548  20917484.9634   20917481.8034
     -2219.1094
   -165460.89846   -125169.36342  24632881.6354   24632880.4394
       781.9534
   8268413.86648   6414717.27546  23042028.9474   23042025.0804
     -4348.6094
    194664.98549    150593.52848  21631741.1824   21631738.2954
      -443.0784
  -2488201.58648  -1929287.17344  23742360.2054   23742357.5184
       672.5314
 04  9  9 21 35  0.0020000  0  7G 3G 8G13G10G23G27G19
   1523474.16648   1184564.07144  23504358.7834   23504357.8074
     -1518.6724
  -2495435.22848  -1936437.77346  22548069.1274   22548067.9324
       787.7034
   3303670.22649   2565088.27148  20923831.3544   20923828.1704
     -2228.0004
   -177122.45046   -134256.24342  24630662.8074   24630661.6934
       772.9844
   8333685.41948   6465578.18545  23054449.7834   23054445.7684
     -4354.2814
    201339.09449    155794.14048  21633011.2834   21633008.7684
      -446.8914
  -2498237.58548  -1937107.38644  23740450.4084   23740447.7954
       665.5784
 04  9  9 21 35 15.0020000  0  7G 3G 8G13G10G23G27G19
   1546326.94848   1202371.44744  23508708.0254   23508707.2214
     -1529.1724
  -2507227.11248  -1945626.23446  22545825.5254   22545823.5884
       783.8134
   3337151.30149   2591177.42848  20930202.7444   20930199.4204
     -2236.9224
   -188658.21146   -143245.09542  24628466.3854   24628466.1974
       764.2504
   8399038.14748   6516502.36746  23066885.7684   23066882.6664
     -4360.0474
    208065.06049    161035.16348  21634290.9634   21634288.4284
      -450.6094
  -2508173.46648  -1944849.59245  23738559.5184   23738556.9204
       658.5474
 04  9  9 21 35 30.0020000  0  7G 3G 8G13G10G23G27G19
   1569339.78848   1220303.51844  23513086.8774   23513085.9394
     -1539.6254
  -2518957.42548  -1954766.71346  22543592.9244   22543591.4714
       779.9224
   3370768.45449   2617372.60848  20936599.9324   20936596.5644
     -2245.7664
   -200060.35346   -152129.88642  24626297.5024   24626296.7054
       755.5784
   8464479.31148   6567495.44246  23079339.0104   23079335.4084
     -4365.7814
    214850.34749    166322.40648  21635582.2994   21635579.8894
      -454.4224
  -2518001.43848  -1952507.71644  23736689.7604   23736686.9434
       651.5474
 04  9  9 21 35 45.0020000  0  7G 3G 8G13G10G23G27G19
   1592507.70648   1238356.44144  23517495.3224   23517494.5614
     -1549.4064
  -2530631.17348  -1963863.12346  22541371.5254   22541370.1824
       776.6724
   3404516.65949   2643669.91148  20943022.4944   20943018.6664
     -2254.0004
   -211333.78346   -160914.32142  24624151.9164   24624150.9394
       747.3444
   8530003.65248   6618553.33545  23091807.8774   23091804.0964
     -4370.7974
    221689.73549    171651.79948  21636883.6354   21636880.8034
      -457.5004
  -2527726.24048  -1960085.43044  23734839.1894   23734836.1744
       645.1254
 04  9  9 21 36  0.0020000  0  7G 3G 8G13G10G23G27G19
   1615829.91148   1256529.59944  23521933.7364   23521933.2254
     -1560.4064
  -2542248.90548  -1972915.88646  22539160.9944   22539159.5574
       772.2344
   3438395.26049   2670068.81948  20949468.8934   20949465.4004
     -2263.3124
   -222478.96345   -169598.83642  24622030.8694   24622030.4084
       738.3134
   8595610.32248   6669675.36846  23104292.2364   23104288.3964
     -4376.9534
    228582.66549    177022.92348  21638195.4324   21638193.2524
      -461.7504
  -2537348.23948  -1967583.05944  23733008.0024   23733005.2994
       637.6254
 04  9  9 21 36 15.0020000  0  7G 3G 8G13G10G23G27G19
   1639308.40948   1274824.52844  23526401.5644   23526400.8574
     -1571.0314
  -2553808.59348  -1981923.41946  22536960.7834   22536959.5144
       768.1724
   3472406.23349   2696570.87348  20955941.2604   20955937.7644
     -2272.3284
   -233493.55245   -178181.63742  24619934.3544   24619934.4514
       729.3594
   8661301.19448   6720863.02645  23116793.2754   23116788.8734
     -4382.6874
    235531.24049    182437.39747  21639517.6354   21639515.0964
      -465.6094
  -2546865.06948  -1974998.73245  23731196.9714   23731194.3544
       630.4534
 04  9  9 21 36 30.0020000  0  7G 3G 8G13G10G23G27G19
   1662946.92048   1293244.13744  23530899.5414   23530898.8384
     -1581.2664
  -2565306.62648  -1990882.89346  22534772.9474   22534771.3224
       764.3594
   3506553.20949   2723178.90048  20962438.7294   20962435.6624
     -2281.0314
   -244373.77146   -186659.68543  24617864.2684   24617863.9284
       720.9064
   8727079.61548   6772118.90445  23129309.9794   23129306.4364
     -4388.2194
    242538.97949    187897.98748  21640850.8614   21640848.8504
      -469.1874
  -2556272.79248  -1982329.38745  23729406.9554   23729404.1114
       623.4844
 04  9  9 21 36 45.0020000  0  7G 3G 8G13G10G23G27G19
   1686746.19748   1311789.03544  23535428.7834   23535427.4434
     -1591.5164
  -2576742.32148  -1999793.80846  22532597.1824   22532595.6044
       760.6414
   3540836.98049   2749893.51748  20968962.8774   20968959.7954
     -2289.7034
   -255118.63245   -195032.30043  24615819.2294   24615819.2754
       712.1254
   8792946.21448   6823443.48145  23141844.1824   23141840.6744
     -4393.6414
    249606.58449    193405.20548  21642195.9324   21642193.8814
      -472.7344
  -2565570.38748  -1989574.23745  23727636.8694   23727634.2714
       616.5944
 04  9  9 21 37  0.0020000  0  7G 3G 8G13G10G23G27G19
   1710705.31548   1330458.49344  23539987.4864   23539986.6434
     -1602.5474
  -2588116.52749  -2008656.80146  22530432.4794   22530430.9984
       756.2664
   3575256.58249   2776713.98148  20975512.6974   20975509.1504
     -2299.2034
   -265728.79546   -203299.92242  24613800.5414   24613800.3934
       702.7034
   8858899.84048   6874835.87245  23154394.5724   23154391.2484
     -4399.8124
    256733.13849    198958.36748  21643552.2444   21643549.6744
      -477.0474
  -2574758.53248  -1996733.78545  23725888.8614   23725885.9324
       608.8754
 04  9  9 21 37 15.0020000  0  7G 3G 8G13G10G23G27G19
   1734823.65948   1349251.99144  23544577.2134   23544576.5724
     -1613.2344
  -2599429.83248  -2017472.35546  22528279.7604   22528277.8654
       752.1884
   3609811.31549   2803639.73648  20982088.2834   20982084.7794
     -2308.2034
   -276204.69446   -211462.95942  24611806.4244   24611806.7054
       693.7194
   8924939.71348   6926295.47745  23166961.9004   23166958.2714
     -4405.6094
    263917.97849    204556.95548  21644919.5804   21644916.8694
      -480.9064
  -2583837.41548  -2003808.20845  23724161.4554   23724158.3144
       601.5314
 04  9  9 21 37 30.0020000  0  7G 3G 8G13G10G23G27G19
   1759099.98748   1368168.61544  23549197.2054   23549196.1664
     -1623.6094
  -2610683.45149  -2026241.39346  22526138.1584   22526136.5574
       748.2974
   3644499.97749   2830669.85848  20988689.7684   20988686.3114
     -2316.9844
   -286547.38347   -219522.17742  24609838.4794   24609838.3344
       685.2344
   8991064.43648   6977821.19545  23179545.2134   23179541.4714
     -4411.1094
    271159.98249    210200.09048  21646297.5494   21646295.4084
      -484.6254
  -2592808.02748  -2010798.26345  23722454.6274   23722451.8814
       594.5004
 04  9  9 21 37 45.0020000  0  7G 3G 8G13G10G23G27G19
   1783528.70648   1387203.98044  23553845.9554   23553844.8384
     -1633.5624
  -2621883.19649  -2034968.44146  22524006.9394   22524005.3774
       744.9384
   3679316.98449   2857799.98048  20995314.7754   20995311.3934
     -2325.3594
   -296762.12246   -227481.66842  24607894.8074   24607894.4674
       676.9844
   9057268.16448   7029408.47245  23192143.0494   23192139.4044
     -4416.1564
    278453.42249    215883.28548  21647685.3614   21647683.4084
      -487.8754
  -2601675.65148  -2017708.06045  23720767.0574   23720764.3184
       587.8444
 04  9  9 21 38  0.0020000  0  7G 3G 8G13G10G23G27G19
   1808110.38548   1406358.53844  23558523.5104   23558522.6934
     -1644.1094
  -2633028.31849  -2043652.93546  22521886.1114   22521884.7914
       740.8444
   3714262.99549   2885030.64548  21001964.7524   21001961.8544
     -2334.2504
   -306848.14646   -235340.88342  24605975.4474   24605975.6584
       667.7974
   9123551.16648   7081057.53645  23204756.5334   23204752.8184
     -4421.7344
    285798.75249    221606.93048  21649083.3854   21649080.7094
      -491.7504
  -2610439.40748  -2024536.93245  23719099.0184   23719095.8854
       580.5004
 04  9  9 21 38 15.0020000  0  7G 3G 8G13G10G23G27G19
   1832850.10448   1425636.23344  23563231.5804   23563230.2484
     -1655.0164
  -2644113.98049  -2052291.09846  22519776.2914   22519774.5254
       736.7034
   3749343.04049   2912365.72848  21008640.3854   21008637.0804
     -2343.5314
   -316800.12846   -243095.62842  24604081.2604   24604081.3574
       658.4534
   9189918.45148   7132772.25245  23217385.7364   23217381.9044
     -4427.6564
    293201.25449    227375.11448  21650491.9394   21650489.4944
      -495.8124
  -2619093.91648  -2031280.67245  23717452.1114   23717449.3934
       572.9384
 04  9  9 21 38 30.0020000  0  7G 3G 8G13G10G23G27G19
   1857746.08548   1445035.69544  23567968.7524   23567968.0374
     -1664.6724
  -2655141.47349  -2060883.93846  22517677.9714   22517676.5254
       733.5164
   3784555.22549   2939803.79548  21015341.2054   21015337.6154
     -2351.6254
   -326619.70446   -250747.26142  24602213.0644   24602213.3264
       650.5314
   9256368.04048   7184551.12045  23230030.9084   23230026.9944
     -4432.4534
    300659.06849    233186.41048  21651910.8384   21651908.3224
      -498.7344
  -2627640.60748  -2037940.40345  23715825.4244   23715822.6974
       566.4534
 04  9  9 21 38 45.0020000  0  7G 3G 8G13G10G23G27G19
   1882802.23648   1464559.98644  23572736.8074   23572735.6584
     -1676.2034
  -2666107.26749  -2069428.69446  22515591.2444   22515589.8734
       728.5474
   3819903.35949   2967347.77848  21022067.7294   21022064.5374
     -2361.4694
   -336302.83546   -258292.52142  24600371.0184   24600369.9904
       640.6884
   9322903.56548   7236396.93345  23242692.1354   23242688.2564
     -4438.9694
    308175.92749    239043.70548  21653341.4944   21653339.2684
      -503.5164
  -2636075.42448  -2044512.95645  23714220.6584   23714217.9554
       558.1884
 04  9  9 21 39  0.0020000  0  8G 3G 8G13G10G23G27G19G28
   1908014.71348   1484206.07044  23577534.7054   23577534.2444
     -1685.8284
  -2677014.78849  -2077928.04346  22513515.9864   22513513.9004
       725.3594
   3855383.77349   2994994.84748  21028819.5104   21028816.3544
     -2369.5784
   -345852.98546   -265734.14442  24598553.4944   24598552.5334
       632.4384
   9389521.04348   7288306.60845  23255369.4634   23255365.3384
     -4443.6564
    315748.16949    244944.15648  21654782.4714   21654780.0844
      -506.4844
  -2644401.85148  -2051001.03345  23712636.0024   23712633.6194
       551.6254
    -61920.49857    -47862.12853  24880070.1434   24880070.7254
      1994.2504
 04  9  9 21 39 15.0020000  0  8G 3G 8G13G10G23G27G19G28
   1933380.53848   1503971.64444  23582361.8774   23582360.7094
     -1696.4224
  -2687867.19549  -2086384.45847  22511450.3144   22511448.7254
       721.3444
   3890993.52049   3022742.71448  21035595.7604   21035592.1434
     -2378.6564
   -355272.83247   -273074.29642  24596760.6894   24596760.3384
       623.3594
   9456217.35448   7340277.73545  23268061.0184   23268057.0724
     -4449.3124
    323372.80949    250885.45048  21656233.4714   21656231.1784
      -510.3594
  -2652622.36248  -2057406.61545  23711071.7364   23711068.6274
       544.2344
    -91809.52947    -71152.18142  24874382.6194   24874383.0024
      1990.7344
 04  9  9 21 39 30.0020000  0  8G 3G 8G13G10G23G27G19G28
   1958902.21848   1523858.66844  23587218.4004   23587217.1394
     -1706.3444
  -2698661.81549  -2094795.82147  22509396.1664   22509394.5684
       718.0784
   3926735.06849   3050593.25648  21042396.7524   21042393.5254
     -2386.8594
   -364559.69447   -280310.80742  24594993.5724   24594992.6894
       614.9844
   9522994.83248   7392312.09545  23280768.2914   23280764.5844
     -4454.2034
    331052.36549    256869.50848  21657694.4324   21657691.7564
      -513.4224
  -2660734.25148  -2063727.51345  23709528.2604   23709525.1664
       537.4534
   -121649.81547    -94404.26642  24868703.9944   24868704.6704
      1987.9694
 04  9  9 21 39 45.0020000  0  8G 3G 8G13G10G23G27G19G28
   1984582.57248   1543869.34044  23592105.4634   23592104.1504
     -1717.2034
  -2709396.17449  -2103160.24146  22507353.4394   22507351.7444
       713.6884
   3962611.15149   3078548.64548  21049224.0024   21049220.5454
     -2396.1254
   -373710.68646   -287441.41543  24593252.1584   24593251.7604
       605.4694
   9589856.00848   7444411.67245  23293491.4394   23293488.1744
     -4460.0474
    338789.55449    262898.49348  21659167.0334   21659164.5964
      -517.6414
  -2668734.44147  -2069961.39745  23708005.9084   23708002.9204
       529.6414
   -151438.48147   -117616.12843  24863035.0884   24863035.5294
      1984.3134
 04  9  9 21 40  0.0020000  0  8G 3G 8G13G10G23G27G19G28
   2010414.29348   1563997.95344  23597020.7294   23597019.5104
     -1727.5314
  -2720077.32649  -2111483.21246  22505321.1504   22505319.2294
       709.9534
   3998614.42949   3106603.14448  21056075.5414   21056072.0614
     -2404.8444
   -382732.94646   -294471.71943  24591534.9634   24591534.9364
       596.7974
   9656793.38348   7496570.61945  23306229.4634   23306225.3934
     -4465.4064
    346577.01549    268966.66247  21660648.9004   21660646.4824
      -521.1874
  -2676630.04547  -2076113.77445  23706502.9394   23706500.1504
       522.4224
   -181182.77047   -140793.42042  24857375.1664   24857375.3184
      1981.0784
 04  9  9 21 40 15.0020000  0  8G 3G 8G13G10G23G27G19G28
   2036403.39448   1584249.19244  23601966.6044   23601964.8964
     -1738.0004
  -2730699.27749  -2119760.04246  22503299.8934   22503297.7524
       705.9534
   4034751.12849   3134761.60848  21062951.7754   21062948.5254
     -2413.7504
   -391620.13246   -301396.79543  24589844.2994   24589843.3344
       587.9064
   9723812.90147   7548793.59345  23318982.8544   23318979.1194
     -4470.9844
    354420.92049    275078.80248  21662141.5494   21662138.8184
      -524.9694
  -2684414.54347  -2082179.57844  23705021.8224   23705018.9284
       515.0784
   -210876.32447   -163931.15542  24851724.1894   24851724.6464
      1977.6724
 04  9  9 21 40 30.0020000  0  8G 3G 8G13G10G23G27G19G28
   2062550.45448   1604623.53344  23606941.5884   23606940.5184
     -1748.0474
  -2741261.45649  -2127990.29546  22501289.7604   22501288.6044
       702.3914
   4071021.56249   3163024.27548  21069853.6044   21069850.4244
     -2422.2034
   -400371.38346   -308215.92642  24588179.0184   24588178.5644
       579.2504
   9790914.79147   7601080.73545  23331751.7444   23331748.4394
     -4475.9534
    362321.76849    281235.30647  21663644.9004   21663642.5144
      -528.2814
  -2692087.03647  -2088158.10444  23703561.4634   23703558.2364
       508.0164
   -240518.35748   -187028.74843  24846084.0414   24846084.2874
      1974.6564
 04  9  9 21 40 45.0020000  0  8G 3G 8G13G10G23G27G19G28
   2088855.92248   1625121.30344  23611947.6584   23611946.7444
     -1758.8754
  -2751763.35449  -2136173.57246  22499291.4474   22499289.9004
       698.2664
   4107426.37349   3191391.64648  21076781.3304   21076777.9984
     -2431.3444
   -408986.04946   -314928.61243  24586538.6664   24586539.2484
       569.8914
   9858099.34847   7653432.29545  23344536.8854   23344533.0684
     -4481.5474
    370280.08549    287436.59747  21665159.5184   21665157.0024
      -532.3284
  -2699646.83847  -2094048.82145  23702123.3694   23702120.1314
       500.3914
   -270108.25147   -210085.72043  24840453.1434   24840453.6044
      1970.9694
 04  9  9 21 41  0.0020000  0  8G 3G 8G13G10G23G27G19G28
   2115309.44448   1645734.45144  23616981.4164   23616980.6744
     -1768.9374
  -2762215.21849  -2144317.88047  22497302.6044   22497300.8574
       694.6884
   4143955.20149   3219855.68248  21083732.7214   21083729.6744
     -2439.8124
   -417474.28946   -321542.79243  24584924.1504   24584923.3654
       561.2194
   9925356.15348   7705840.16745  23357335.0644   23357331.5024
     -4486.5784
    378285.41449    293674.52647  21666682.7444   21666680.1194
      -535.6724
  -2707104.08647  -2099859.63145  23700704.0574   23700700.9434
       493.2974
   -299656.11147   -233109.93543  24834829.9714   24834830.4394
      1968.0164
 04  9  9 21 41 15.0020000  0  8G 3G 8G13G10G23G27G19G28
   2141917.64948   1666468.13044  23622045.2834   23622043.5454
     -1779.3444
  -2772610.48249  -2152418.07047  22495324.3224   22495322.5964
       690.8444
   4180614.57149   3248421.39748  21090708.6274   21090705.4674
     -2448.6414
   -425829.14446   -328053.08942  24583334.0804   24583333.4634
       552.4384
   9992691.62248   7758309.32345  23370148.3614   23370144.8424
     -4491.9694
    386344.47249    299954.31747  21668216.1434   21668213.9714
      -539.3754
  -2714451.68347  -2105584.98145  23699305.6274   23699303.1354
       485.8594
   -329155.18247   -256096.16243  24829216.1504   24829216.3734
      1964.6414
 04  9  9 21 41 30.0020000  0  8G 3G 8G13G10G23G27G19G28
   2168684.83648   1687325.67944  23627138.5884   23627137.5764
     -1789.8754
  -2782944.81949  -2160470.77147  22493358.0104   22493355.8964
       686.8284
   4217408.79849   3277092.21548  21097710.4944   21097707.3544
     -2457.5474
   -434046.18846   -334455.93443  24581771.0804   24581770.4474
       543.1724
  10060109.87847   7810842.98545  23382978.3934   23382973.8654
     -4497.3124
    394461.70049    306279.42448  21669760.9164   21669758.4124
      -543.0944
  -2721685.00947  -2111221.28645  23697929.2684   23697926.1864
       478.2974
   -358600.84847   -279040.73743  24823613.2524   24823613.3574
      1961.1724
 04  9  9 21 41 45.0020000  0  8G 3G 8G13G10G23G27G19G28
   2195603.82848   1708301.50944  23632261.2994   23632260.1744
     -1799.7194
  -2793224.99049  -2168481.28147  22491401.5644   22491399.7954
       683.4064
   4254330.76349   3305862.56448  21104736.9394   21104733.2754
     -2465.8444
   -442132.21746   -340756.68443  24580232.1114   24580231.6044
       534.5784
  10127603.57247   7863435.42145  23395821.7134   23395817.7134
     -4502.2344
    402629.87449    312644.24348  21671315.3694   21671312.2174
      -546.3444
  -2728810.98047  -2116773.95845  23696573.3224   23696569.9474
       471.3284
   -388000.17147   -301949.25042  24818018.7684   24818018.2954
      1958.2504
 04  9  9 21 42  0.0020000  0  8G 3G 8G13G10G23G27G19G28
   2222683.35548   1729402.46744  23637414.3774   23637413.1894
     -1810.7974
  -2803442.56349  -2176443.00747  22489457.3074   22489455.3734
       678.9694
   4291389.28549   3334739.33448  21111788.5724   21111785.3814
     -2475.2814
   -450078.45546   -346948.56043  24578719.9554   24578719.1004
       524.8914
  10195181.21547   7916093.29045  23408681.5334   23408678.0214
     -4508.1254
    410857.56349    319055.43548  21672880.8224   21672878.3614
      -550.6094
  -2735820.53847  -2122235.90545  23695239.7994   23695236.6894
       463.2034
   -417344.18047   -324814.60942  24812434.2994   24812434.2794
      1954.2504
 04  9  9 21 42 15.0020000  0  8G 3G 8G13G10G23G27G19G28
   2249922.84748   1750628.04044  23642597.5644   23642596.1544
     -1820.9844
  -2813597.94749  -2184356.29047  22487524.6824   22487522.6784
       675.2814
   4328583.69149   3363721.98148  21118866.3544   21118862.6894
     -2483.8124
   -457885.13246   -353031.68242  24577233.8144   24577233.6704
       516.0474
  10262842.13347   7968816.04045  23421557.1114   23421552.9824
     -4513.1564
    419144.42649    325512.73348  21674458.0254   21674455.5574
      -554.0784
  -2742713.89047  -2127607.30845  23693927.5724   23693924.8384
       456.0164
   -446633.19447   -347637.14743  24806861.0964   24806860.6434
      1951.1254
 04  9  9 21 42 30.0020000  0  8G 3G 8G13G10G23G27G19G28
   2277311.05748   1771969.49944  23647809.0884   23647808.2714
     -1830.7664
  -2823702.52049  -2192229.95747  22485602.1194   22485600.0804
       671.9694
   4365902.75849   3392801.76248  21125968.1354   21125964.4594
     -2492.0314
   -465563.35046   -359014.66542  24575772.7754   24575772.2954
       507.5634
  10330574.78747   8021594.68845  23434446.0104   23434442.9204
     -4517.8284
    427479.13649    332007.31348  21676044.3074   21676041.3774
      -557.1564
  -2749501.96247  -2132896.66745  23692635.7994   23692632.9004
       449.0474
   -475878.29547   -370425.48443  24801295.5644   24801295.6824
      1948.2034
 04  9  9 21 42 45.0020000  0  8G 3G 8G13G10G23G27G19G28
   2304852.68748   1793430.51744  23653050.9394   23653049.5214
     -1841.5944
  -2833751.43149  -2200060.26547  22483689.4474   22483687.7644
       667.7194
   4403351.08249   3421982.27948  21133094.1894   21133091.2174
     -2501.2194
   -473108.02846   -364893.62642  24574337.2684   24574336.1274
       498.1414
  10398383.77247   8074432.82045  23447349.6894   23447346.2364
     -4523.4534
    435866.45248    338542.89548  21677640.1114   21677638.1154
      -561.2344
  -2756179.75247  -2138100.10345  23691364.6974   23691361.5454
       441.0784
   -505074.60647   -393175.76342  24795739.8074   24795740.0764
      1944.3914
 04  9  9 21 43  0.0020000  0  8G 3G 8G13G10G23G27G19G28
   2332551.62248   1815014.10744  23658321.4714   23658320.4124
     -1851.7034
  -2843740.60849  -2207844.02647  22481788.9944   22481786.9004
       664.0944
   4440932.77649   3451266.70948  21140245.8304   21140242.5024
     -2509.7664
   -480515.14446   -370665.39842  24572927.0494   24572926.7484
       489.4064
  10466272.84547   8127333.35145  23460268.5254   23460264.8114
     -4528.4064
    444310.26349    345122.49147  21679246.8384   21679244.5254
      -564.7034
  -2762743.00147  -2143214.27645  23690116.6504   23690113.0644
       433.8754
   -534217.94548   -415884.74842  24790193.8144   24790193.4904
      1941.2194
 04  9  9 21 43 15.0020000  0  8G 3G 8G13G10G23G27G19G28
   2360403.99848   1836717.26644  23663621.6744   23663620.3184
     -1862.2194
  -2853674.07549  -2215584.38147  22479898.1974   22479896.3934
       660.1724
   4478643.87249   3480651.97748  21147421.9084   21147418.3614
     -2518.5624
   -487788.30146   -376332.75842  24571542.6974   24571542.9004
       480.2344
  10534237.92348   8180293.12345  23473201.9944   23473198.1114
     -4533.7504
    452806.65648    351743.07447  21680863.6504   21680861.0804
      -568.4374
  -2769195.33148  -2148242.03045  23688888.5104   23688885.0844
       426.2814
   -563312.02348   -438555.42343  24784657.9394   24784657.1704
      1937.7974
 04  9  9 21 43 30.0020000  0  8G 3G 8G13G10G23G27G19G28
   2388410.14848   1858540.24844  23668950.6274   23668949.4594
     -1872.6724
  -2863551.32649  -2223280.92247  22478018.9164   22478016.9284
       656.0784
   4516484.64449   3510138.28348  21154622.6744   21154619.3654
     -2527.5944
   -494926.90546   -381895.28142  24570184.9794   24570184.6584
       470.8594
  10602279.17848   8233312.23945  23486149.5804   23486146.1664
     -4539.1094
    461356.07748    358404.96448  21682490.5884   21682487.9634
      -572.1874
  -2775536.14247  -2153182.89145  23687681.6434   23687678.4634
       418.5784
   -592356.30147   -461187.24143  24779130.9084   24779130.1274
      1934.0944
 04  9  9 21 43 45.0020000  0  8G 3G 8G13G10G23G27G19G28
   2416574.60348   1880486.59144  23674310.2214   23674309.2444
     -1882.4224
  -2873367.71249  -2230930.03047  22476150.7214   22476148.7834
       652.9064
   4554459.69549   3539729.21848  21161849.5644   21161845.8614
     -2535.5624
   -501926.21446   -387349.28942  24568852.7054   24568852.9794
       462.4064
  10670401.01248   8286394.13145  23499113.2364   23499109.9324
     -4543.5784
    469963.24548    365111.83948  21684128.3464   21684126.3464
      -575.2034
  -2781760.42348  -2158032.91345  23686497.2364   23686493.5064
       411.5634
   -621346.09348   -483776.64243  24773613.9634   24773614.1544
      1931.3594
 04  9  9 21 44  0.0020000  0  8G 3G 8G13G10G23G27G19G28
   2444890.82848   1902551.17644  23679698.6434   23679697.7834
     -1892.8914
  -2883129.86049  -2238536.89047  22474293.1274   22474290.9674
       648.8594
   4592562.57349   3569419.76748  21169099.6354   21169096.6314
     -2544.6094
   -508792.38845   -392699.48243  24567546.7994   24567545.9044
       453.2194
  10738596.72147   8339533.61645  23512090.6744   23512086.4904
     -4548.9694
    478621.45548    371858.50248  21685776.1504   21685773.5684
      -579.0474
  -2787874.45747  -2162797.05645  23685333.8614   23685330.7294
       403.9064
   -650287.65448   -506328.41642  24768106.3544   24768106.2874
      1927.7194
 04  9  9 21 44 15.0020000  0  8G 3G 8G13G10G23G27G19G28
   2473362.57448   1924736.96844  23685116.5414   23685115.8034
     -1903.1254
  -2892833.98849  -2246098.52447  22472446.4634   22472444.5804
       645.1884
   4630796.87649   3599212.71648  21176375.5804   21176372.3894
     -2553.2504
   -515521.63746   -397943.06442  24566265.7214   24566265.1824
       443.9694
  10806869.75547   8392733.31845  23525081.8614   23525078.3934
     -4553.9534
    487334.45148    378647.86347  21687434.2524   21687431.8424
      -582.5314
  -2793874.18247  -2167472.12345  23684191.5024   23684189.1464
       396.3594
   -679177.01048   -528839.54442  24762609.1504   24762608.4594
      1924.3134
 04  9  9 21 44 30.0020000  0  8G 3G 8G13G10G23G27G19G28
   2501985.97848   1947040.91144  23690563.5644   23690562.3614
     -1914.0164
  -2902483.78449  -2253617.83747  22470610.1194   22470608.1584
       640.6884
   4669158.95749   3629105.24248  21183675.8144   21183672.1664
     -2562.4534
   -522117.59045   -403082.69942  24565010.2684   24565010.4514
       434.3914
  10875216.14247   8445990.20645  23538088.1504   23538084.8384
     -4559.6254
    496098.56048    385477.03548  21689101.9324   21689099.6274
      -586.7194
  -2799763.10948  -2172060.85545  23683071.1274   23683068.1154
       388.1884
   -708017.78448   -551312.79642  24757120.9394   24757120.3854
      1920.3134
 04  9  9 21 44 45.0020000  0  8G 3G 8G13G10G23G27G19G28
   2530764.36248   1969465.65444  23696039.5574   23696038.8074
     -1923.4064
  -2912075.96949  -2261092.24947  22468784.6504   22468782.7094
       637.7504
   4707651.96649   3659099.78848  21191000.7054   21190997.3694
     -2570.3284
   -528576.56646   -408115.66042  24563781.5104   24563781.1314
       426.1884
  10943639.11647   8499306.77045  23551108.6664   23551104.6974
     -4563.8444
    504917.06748    392348.61448  21690779.7524   21690777.0454
      -589.4694
  -2805537.50947  -2176560.34245  23681972.1354   23681968.9044
       381.3754
   -736806.43248   -573745.44142  24751641.9864   24751642.2794
      1917.7664
 04  9  9 21 45  0.0020000  0  8G 3G 8G13G10G23G27G19G28
   2559693.76348   1992008.04944  23701545.2364   23701543.9594
     -1933.8914
  -2921614.26349  -2268524.66747  22466969.5964   22466967.8144
       633.8754
   4746271.98749   3689193.30748  21198349.8694   21198346.3614
     -2579.1414
   -534902.33646   -413044.83142  24562578.0024   24562577.5724
       416.9384
  11012134.57347   8552679.81645  23564143.0644   23564139.2174
     -4569.0164
    513786.07249    399259.53147  21692467.3384   21692465.1974
      -593.1564
  -2811201.13547  -2180973.52745  23680894.3854   23680891.2254
       373.6414
   -765546.56148   -596140.28543  24746173.4864   24746173.4364
      1914.1564
 04  9  9 21 45 15.0020000  0  8G 3G 8G13G10G23G27G19G28
   2588775.31448   2014669.00244  23707079.1894   23707078.1624
     -1944.3124
  -2931097.49049  -2275914.18447  22465165.0964   22465163.4364
       629.8754
   4785020.27749   3719386.75848  21205723.5414   21205720.0614
     -2588.0314
   -541093.54946   -417869.14042  24561400.1274   24561399.6504
       407.8134
  11080703.38947   8606110.00445  23577191.4324   23577187.3654
     -4574.1874
    522706.74049    406210.69748  21694164.8464   21694163.2524
      -596.8914
  -2816752.45747  -2185299.19045  23679837.9394   23679835.1074
       365.8594
   -794237.05348   -618496.45743  24740713.7364   24740712.8224
      1910.5164
 04  9  9 21 45 30.0020000  0  8G 3G 8G13G10G23G27G19G28
   2618016.83448   2037454.60344  23712643.5024   23712642.1624
     -1954.8444
  -2940517.78749  -2283254.66647  22463372.2214   22463370.1624
       625.9064
   4823904.48449   3749686.14048  21213123.1974   21213119.6154
     -2596.8124
   -547142.10246   -422582.26943  24560248.0494   24560248.2054
       398.5314
  11149353.28747   8659603.40345  23590254.2914   23590251.3734
     -4579.4694
    531687.02148    413208.33148  21695873.9004   21695871.4084
      -600.7504
  -2822183.46747  -2189531.11345  23678804.5254   23678801.0374
       357.9844
   -822869.88948   -640807.67842  24735265.1894   24735264.2324
      1906.8284
 04  9  9 21 45 45.0020000  0  8G 3G 8G13G10G23G27G19G28
   2647413.68048   2060361.24944  23718237.6194   23718236.7874
     -1964.7814
  -2949879.94349  -2290549.82947  22461590.8384   22461589.0574
       622.3444
   4862920.12149   3780087.92448  21220547.3854   21220544.0844
     -2605.2814
   -553052.43045   -427187.70943  24559124.2834   24559123.7014
       389.3444
  11218079.37648   8713156.16845  23603332.8144   23603329.4364
     -4584.1094
    540722.22249    420248.75148  21697593.3544   21697591.0294
      -604.0164
  -2827498.30247  -2193672.50345  23677793.0724   23677790.0254
       350.7664
   -851449.34848   -663077.29643  24729826.4864   24729825.8614
      1903.6414
 04  9  9 21 46  0.0020000  0  8G 3G 8G13G10G23G27G19G28
   2676962.15348   2083386.04444  23723860.4794   23723858.6824
     -1975.0624
  -2959187.52849  -2297802.48147  22459819.5644   22459817.8144
       618.5314
   4902063.37849   3810589.15748  21227996.0574   21227992.7484
     -2613.9224
   -558828.19245   -431688.25043  24558025.0024   24558024.4634
       380.5004
  11286877.84947   8766765.32645  23616424.9084   23616421.3264
     -4589.0944
    549808.70449    427329.13948  21699322.3934   21699319.9284
      -607.5944
  -2832700.36047  -2197726.01245  23676803.1194   23676799.8184
       342.9064
   -879978.93348   -685308.06543  24724397.0254   24724396.4944
      1900.1414
 04  9  9 21 46 15.0020000  0  8G 3G 8G13G10G23G27G19G28
   2706666.11448   2106531.99544  23729513.5184   23729511.7364
     -1985.3914
  -2968436.41049  -2305009.37647  22458059.5104   22458057.9204
       614.6414
   4941338.19449   3841192.89148  21235469.9084   21235466.8144
     -2622.6724
   -564464.95446   -436080.52243  24556952.0964   24556952.1464
       371.1564
  11355752.40047   8820433.76045  23629531.1894   23629528.1154
     -4594.1254
    558950.32749    434452.49248  21701062.2214   21701059.8074
      -611.3124
  -2837785.38147  -2201688.33845  23675836.0334   23675832.7404
       335.0944
   -908454.59248   -707496.81643  24718979.1504   24718978.3224
      1896.5634
 04  9  9 21 46 30.0030000  0  8G 3G 8G13G10G23G27G19G28
   2736525.29548   2129798.88844  23735195.0224   23735193.7334
     -1995.8754
  -2977629.45249  -2312172.77747  22456310.1244   22456308.2184
       610.6414
   4980744.96649   3871899.45948  21242968.7184   21242965.5504
     -2631.5164
   -569965.26246   -440366.44243  24555905.5464   24555905.2294
       361.9224
  11424705.11048   8874163.10245  23642652.4524   23642649.4524
     -4599.2814
    568145.46148    441617.53148  21702811.9524   21702809.3044
      -615.0314
  -2842755.83047  -2205561.38545  23674890.2724   23674886.5154
       327.3134
   -936880.22348   -729646.58543  24713569.2964   24713568.3354
      1892.8594
 04  9  9 21 46 45.0030000  0  8G 3G 8G13G10G23G27G19G28
   2766532.41348   2153181.05644  23740905.2184   23740904.2294
     -2005.1874
  -2986768.81849  -2319294.34447  22454570.9684   22454569.2064
       607.8444
   5020275.27249   3902702.29248  21250490.9054   21250488.3624
     -2639.2344
   -575331.38246   -444547.82143  24554884.1794   24554883.8234
       353.6564
  11493723.49247   8927943.62545  23655786.5934   23655783.0974
     -4603.2344
    577389.73549    448820.86548  21704570.9294   21704568.7024
      -617.6414
  -2847613.90448  -2209346.87745  23673965.2654   23673962.0424
       320.4064
   -965255.05148   -751756.75243  24708169.5384   24708169.5224
      1890.3284
 04  9  9 21 47  0.0030000  0  8G 3G 8G13G10G23G27G19G28
   2796692.58948   2176682.48344  23746644.6244   23746643.4644
     -2016.2664
  -2995851.86049  -2326372.03347  22452842.4524   22452840.5814
       603.2034
   5059934.71849   3933605.75348  21258038.0544   21258034.8354
     -2648.7344
   -580560.22046   -448622.18943  24553889.8274   24553888.5154
       343.4064
  11562815.10247   8981781.18945  23668934.5224   23668930.8274
     -4609.0004
    586687.10948    456065.58147  21706340.0384   21706337.3274
      -622.0624
  -2852356.43347  -2213042.32145  23673062.6874   23673059.3274
       311.9064
   -993577.60448   -773826.17943  24702779.7654   24702779.5224
      1885.9064
 04  9  9 21 47 15.0030000  0  8G 3G 8G13G10G23G27G19G28
   2827012.29448   2200308.24644  23752414.3664   23752412.5894
     -2026.1254
  -3004871.96549  -2333400.65947  22451126.1634   22451124.4834
       599.7504
   5099729.78749   3964614.88748  21265610.6014   21265607.2614
     -2656.9694
   -585645.34646   -452584.61143  24552921.4054   24552921.3274
       334.7344
  11631986.14148   9035680.65445  23682096.5774   23682093.1594
     -4613.5624
    596043.85348    463356.55247  21708120.6634   21708118.3314
      -625.2664
  -2856976.66048  -2216642.45545  23672183.8974   23672180.3394
       304.4694
  -1021841.28148   -795849.72943  24697401.4524   24697401.4214
      1882.7814
 04  9  9 21 47 30.0030000  0  8G 3G 8G13G10G23G27G19G28
   2857483.89148   2224052.35544  23758212.5854   23758211.5504
     -2036.0314
  -3013836.51149  -2340385.99847  22449420.2024   22449418.2924
       596.2034
   5139652.96049   3995723.85348  21273208.0464   21273204.4994
     -2665.4064
   -590593.90146   -456440.60943  24551980.1164   24551979.5814
       325.7504
  11701229.01647   9089636.09145  23695273.0224   23695270.1284
     -4618.1564
    605452.64949    470688.09148  21709911.0384   21709908.5544
      -628.5314
  -2861481.78048  -2220152.90845  23671326.4134   23671322.9134
       296.8594
  -1050053.33347   -817833.05743  24692032.2104   24692032.1554
      1879.4534
 04  9  9 21 47 45.0030000  0  8G 3G 8G13G10G23G27G19G28
   2888101.85648   2247910.49744  23764039.0224   23764037.9914
     -2045.7504
  -3022751.16449  -2347332.46547  22447723.9294   22447721.5734
       592.9064
   5179698.66849   4026928.28848  21280828.2724   21280824.9334
     -2673.5164
   -595411.32446   -460194.42743  24551063.3434   24551062.8394
       316.9694
  11770537.93448   9143642.98845  23708462.1554   23708459.6044
     -4622.4694
    614907.79548    478055.74047  21711709.8744   21711707.9374
      -631.5474
  -2865877.08148  -2223577.79545  23670489.9444   23670486.5654
       289.6414
  -1078219.20047   -839780.39743  24686672.5464   24686672.5584
      1876.4064
 04  9  9 21 48  0.0030000  0  8G 3G 8G13G10G23G27G19G28
   2918871.52348   2271886.88244  23769894.0774   23769893.4404
     -2056.4224
  -3031610.64349  -2354235.94247  22446037.9834   22446036.1794
       588.7814
   5219872.16549   4058232.30248  21288473.0304   21288469.8624
     -2682.5474
   -600092.08346   -463841.75143  24550172.6244   24550172.2924
       307.4534
  11839917.94447   9197705.30145  23721664.9444   23721661.9374
     -4627.7664
    624414.63549    485463.68548  21713519.7414   21713517.1284
      -635.5624
  -2870157.02548  -2226912.78445  23669675.7184   23669672.2654
       281.4224
  -1106333.33447   -861687.43343  24681323.0304   24681322.5034
      1872.5634
 04  9  9 21 48 15.0030000  0  8G 3G 8G13G10G23G27G19G28
   2949799.87448   2295986.89444  23775779.6634   23775779.0654
     -2066.7974
  -3040407.71949  -2361090.78847  22444363.8664   22444361.8084
       584.7344
   5260180.50349   4089641.39348  21296143.3434   21296140.2144
     -2691.3754
   -604628.96546   -467376.95743  24549309.9294   24549308.8154
       297.9534
  11909375.96747   9251828.38345  23734882.5154   23734879.5894
     -4632.7974
    633980.24449    492917.38948  21715339.7654   21715337.3704
      -639.3124
  -2874314.14547  -2230152.07545  23668884.1714   23668880.6444
       273.3914
  -1134388.50147   -883548.49643  24675983.7574   24675983.8434
      1868.6724
 04  9  9 21 48 30.0030000  0  8G 3G 8G13G10G23G27G19G28
   2980878.79948   2320204.23444  23781693.9684   23781692.9954
     -2076.8124
  -3049150.41649  -2367903.26447  22442699.9214   22442698.4954
       581.0784
   5300615.56649   4121149.23648  21303837.6794   21303834.3704
     -2699.6874
   -609029.81946   -470806.16843  24548471.9054   24548471.0424
       289.0784
  11978903.67847   9306005.78245  23748113.4834   23748110.0424
     -4637.4224
    643596.57949    500410.64448  21717169.7264   21717167.4334
      -642.5944
  -2878356.34047  -2233301.80045  23668115.2654   23668111.4914
       265.7344
  -1162392.67347   -905369.83843  24670655.1944   24670654.7374
      1865.4534
 04  9  9 21 48 45.0030000  0  8G 3G 8G13G10G23G27G19G28
   3012108.20148   2344538.83144  23787636.6874   23787635.8434
     -2086.7814
  -3057838.64349  -2374673.29347  22441046.8044   22441044.8824
       577.5784
   5341177.28649   4152755.76848  21311556.7804   21311553.4914
     -2708.1724
   -613294.33246   -474129.17643  24547659.9054   24547659.6874
       279.9064
  12048500.95547   9360237.38245  23761357.0544   23761354.2024
     -4641.9374
    653263.72949    507943.49548  21719009.3124   21719007.0424
      -645.9534
  -2882283.29647  -2236361.73145  23667367.9994   23667364.3624
       258.1884
  -1190345.58247   -927151.22343  24665335.0934   24665335.4014
      1861.9384
 04  9  9 21 49  0.0030000  0  8G 3G 8G13G10G23G27G19G28
   3043491.93448   2368993.67844  23793609.0304   23793607.5774
     -2097.1564
  -3066468.59149  -2381397.91647  22439404.5544   22439403.0624
       573.6094
   5381869.58049   4184464.03548  21319300.1714   21319296.9294
     -2716.9534
   -617418.49146   -477342.79143  24546875.6944   24546874.7724
       270.4534
  12118171.44148   9414526.02044  23774615.7414   23774611.6204
     -4647.0164
    662985.56949    515518.96548  21720859.4524   21720857.0224
      -649.7504
  -2886090.63648  -2239328.48245  23666643.1324   23666639.3124
       250.0634
  -1218243.07447   -948889.44943  24660026.8744   24660026.3974
      1858.2034
 04  9  9 21 49 15.0030000  0  8G 3G 8G13G10G23G27G19G28
   3075023.50948   2393563.72744  23799609.0154   23799608.4334
     -2107.1564
  -3075046.64249  -2388082.09747  22437772.1474   22437770.1714
       569.9694
   5422685.92649   4216268.97248  21327067.2334   21327064.2614
     -2725.4374
   -621408.61346   -480451.94943  24546115.9914   24546115.8584
       261.4064
  12187908.55948   9468866.59644  23787885.9834   23787882.5384
     -4651.5004
    672755.68549    523132.04547  21722718.6084   21722716.0894
      -653.1414
  -2889784.73648  -2242206.96945  23665939.7184   23665936.7144
       242.2664
  -1246091.39647   -970589.35543  24654727.3274   24654727.3154
      1854.6414
 04  9  9 21 49 30.0030000  0  8G 3G 8G13G10G23G27G19G28
   3106710.66348   2418255.02144  23805638.5774   23805638.1714
     -2117.0004
  -3083565.05249  -2394719.79747  22436151.1084   22436149.0814
       566.5634
   5463634.19849   4248176.72248  21334859.4374   21334856.0774
     -2733.6254
   -625256.55746   -483450.32443  24545384.2104   24545383.2184
       252.3444
  12257719.87248   9523264.98644  23801170.4294   23801166.9254
     -4655.9064
    682581.95749    530788.89647  21724588.6324   21724586.0814
      -656.3444
  -2893357.39747  -2244990.82545  23665260.0694   23665256.9094
       234.7344
  -1273882.71547   -992244.84443  24649439.2414   24649438.5224
      1851.4384
 04  9  9 21 49 45.0030000  0  8G 3G 8G13G10G23G27G19G28
   3138553.07448   2443067.28444  23811698.4294   23811697.0774
     -2127.6874
  -3092024.02349  -2401311.19447  22434541.3974   22434539.7064
       562.2814
   5504714.11549   4280187.02348  21342676.5934   21342673.0344
     -2742.6874
   -628962.44647   -486338.01443  24544678.7414   24544678.0694
       242.6724
  12327604.95448   9577720.84344  23814468.8354   23814465.6164
     -4661.1564
    692463.92449    538489.12548  21726468.9214   21726466.6594
      -660.3594
  -2896808.59448  -2247680.03945  23664603.2964   23664600.0734
       226.3284
  -1301617.00147  -1013855.87443  24644161.0934   24644160.7064
      1847.3444
 04  9  9 21 50  0.0030000  0  8G 3G 8G13G10G23G27G19G28
   3170549.88848   2467999.84944  23817786.6634   23817786.1404
     -2138.0164
  -3100424.05249  -2407856.65847  22432942.7724   22432940.8354
       558.2664
   5545924.82349   4312299.26848  21350519.1634   21350515.3314
     -2751.5314
   -632526.93847   -489115.54043  24544000.5464   24544000.1794
       233.1414
  12397562.80547   9632233.41144  23827781.7884   23827778.5894
     -4666.1094
    702401.03849    546232.34748  21728359.5154   21728357.1324
      -664.1094
  -2900138.91648  -2250275.06045  23663969.7884   23663966.4404
       218.1884
  -1329294.81547  -1035422.93643  24638893.6324   24638893.8394
      1843.5634
 04  9  9 21 50 15.0030000  0  8G 3G 8G13G10G23G27G19G28
   3202691.10348   2493044.97044  23823903.3824   23823902.7454
     -2148.1564
  -3108775.30549  -2414364.10247  22431353.7964   22431352.0194
       554.5004
   5587256.19449   4344505.51148  21358384.0774   21358380.6944
     -2760.0624
   -635959.88346   -491790.52743  24543347.1944   24543346.3584
       223.8754
  12467583.11748   9686794.65144  23841106.2184   23841102.6714
     -4670.6254
    712383.21349    554010.65947  21730259.3584   21730256.7764
      -667.5624
  -2903358.10248  -2252783.48945  23663357.1874   23663353.8154
       210.4224
  -1356926.08747  -1056953.68743  24633635.9764   24633635.1714
      1839.9694
 04  9  9 21 50 30.0030000  0  8G 3G 8G13G10G23G27G19G28
   3234988.11548   2518211.47344  23830049.4054   23830048.0464
     -2157.6874
  -3117066.10849  -2420824.45347  22429776.4994   22429774.5544
       551.4384
   5628719.81549   4376814.82148  21366274.3274   21366270.6944
     -2768.0164
   -639249.55046   -494353.87443  24542721.4054   24542720.8584
       215.2814
  12537677.33148   9741413.46544  23854444.2884   23854441.4794
     -4674.6724
    722422.01949    561833.11948  21732169.5464   21732167.5934
      -670.4374
  -2906454.19348  -2255195.98445  23662768.0224   23662764.6594
       203.0004
  -1384499.06448  -1078439.04343  24628388.7184   24628388.5194
      1836.9224
 04  9  9 21 50 45.0030000  0  8G 3G 8G13G10G23G27G19G28
   3267427.21148   2543488.67444  23836222.2414   23836221.2844
     -2167.8594
  -3125310.17349  -2427248.38547  22428207.1404   22428205.4094
       547.5474
   5670301.82949   4409216.38448  21374186.8904   21374183.7724
     -2776.5784
   -642409.43847   -496816.10443  24542119.5154   24542118.7964
       205.7974
  12607831.55548   9796079.03644  23867794.3434   23867791.5504
     -4679.4694
    732503.85649    569689.09048  21734088.2574   21734085.7374
      -674.0474
  -2909440.81548  -2257523.21345  23662199.9214   23662196.4404
       194.9844
  -1412027.20948  -1099889.47043  24623150.3194   24623150.1514
      1833.1564
 04  9  9 21 51  0.0030000  0  8G 3G 8G13G10G23G27G19G28
   3300016.39948   2568882.84844  23842423.6324   23842422.4834
     -2177.7344
  -3133499.30549  -2433629.50247  22426648.9444   22426646.8824
       544.0474
   5712010.47549   4441716.61248  21382123.8514   21382120.7764
     -2784.9534
   -645431.07946   -499170.62543  24541544.7494   24541544.0194
       196.7194
  12678053.77948   9850797.61744  23881157.8824   23881153.7924
     -4683.8754
    742636.97449    577585.02748  21736016.4764   21736014.1794
      -677.3594
  -2912309.29548  -2259758.35845  23661653.5854   23661650.4334
       187.2194
  -1439501.98848  -1121298.30643  24617922.0074   24617921.9254
      1829.7814
 04  9  9 21 51 15.0030000  0  8G 3G 8G13G10G23G27G19G28
   3332755.91148   2594394.15544  23848653.6634   23848652.8044
     -2187.7504
  -3141633.18849  -2439967.58647  22425100.9994   22425099.8314
       540.3134
   5753845.87449   4474315.62648  21390084.9834   21390081.3434
     -2793.4224
   -648314.11246   -501417.12243  24540995.9524   24540995.5584
       187.4384
  12748343.98948   9905569.17444  23894533.6404   23894530.0194
     -4688.3754
    752821.39849    585520.95347  21737954.3514   21737951.8624
      -680.7974
  -2915059.24248  -2261901.14945  23661130.4054   23661126.9644
       179.2344
  -1466923.29048  -1142665.48343  24612703.9444   24612703.3314
      1826.1564
 04  9  9 21 51 30.0030000  0  8G 3G 8G13G10G23G27G19G28
   3365649.00848   2620025.12944  23854913.7964   23854912.3904
     -2198.2034
  -3149708.52649  -2446260.04047  22423564.2964   22423562.6014
       536.2344
   5795811.20949   4507015.88048  21398070.8664   21398067.3194
     -2802.1414
   -651055.08246   -503552.91543  24540474.3974   24540473.8974
       177.8594
  12818705.22048   9960396.05844  23907922.9214   23907919.6674
     -4693.2194
    763060.57449    593499.52747  21739902.6554   21739900.3904
      -684.5624
  -2917687.10748  -2263948.80845  23660630.4834   23660626.5894
       170.9694
  -1494287.54548  -1163988.18743  24607496.4134   24607495.8904
      1822.3134
 04  9  9 21 51 45.0030000  0  8G 3G 8G13G10G23G27G19G28
   3398697.49348   2645777.18744  23861201.6244   23861201.5034
     -2208.1094
  -3157723.53149  -2452505.49447  22422038.9134   22422036.8944
       532.6254
   5837908.40849   4539818.87948  21406081.7334   21406078.1754
     -2810.5164
   -653651.85246   -505576.37943  24539980.1554   24539979.8824
       168.6884
  12889139.23047  10015279.64844  23921325.6634   23921322.4764
     -4697.6874
    773356.41649    601522.26648  21741861.9684   21741859.8394
      -687.9844
  -2920190.68148  -2265899.61645  23660153.8584   23660150.2144
       163.1414
  -1521592.66347  -1185264.83543  24602300.5624   24602299.9954
      1818.5784
 04  9  9 21 52  0.0030000  0  8G 3G 8G13G10G23G27G19G28
   3431891.77148   2671642.85744  23867518.5934   23867517.3784
     -2217.5314
  -3165687.85249  -2458711.43447  22420523.4764   22420521.6514
       529.5784
   5880127.81849   4572717.11548  21414115.4764   21414112.4214
     -2818.4064
   -656113.88947   -507494.83143  24539511.6164   24539510.8434
       159.9534
  12959636.20148  10070212.30244  23934741.0934   23934737.3824
     -4701.5474
    783699.26349    609581.63047  21743830.2964   21743827.6554
      -690.7814
  -2922579.18548  -2267760.75946  23659699.5774   23659695.7184
       155.6724
  -1548848.01248  -1206502.68143  24597113.8974   24597113.4564
      1815.5944
 04  9  9 21 52 15.0030000  0  8G 3G 8G13G10G23G27G19G28
   3465235.07648   2697624.64344  23873864.1944   23873863.0544
     -2227.8284
  -3173597.78449  -2464875.00347  22419018.1874   22419016.5464
       525.5164
   5922472.84249   4605713.23648  21422173.6404   21422170.2694
     -2827.2194
   -658437.52647   -509305.43843  24539069.4444   24539069.2924
       150.2814
  13030199.26048  10125196.46744  23948169.0694   23948165.6474
     -4706.4694
    794092.67149    617680.40848  21745808.1714   21745805.3154
      -694.5784
  -2924849.03948  -2269529.44646  23659267.3744   23659263.7264
       147.3754
  -1576050.09847  -1227699.05243  24591937.2724   24591936.4914
      1811.7504
 04  9  9 21 52 30.0030000  0  8G 3G 8G13G10G23G27G19G28
   3498728.91648   2723723.74844  23880237.4134   23880236.6044
     -2237.6254
  -3181451.83149  -2470995.01347  22417523.9444   22417522.0154
       522.0634
   5964945.01949   4638808.42948  21430255.8584   21430252.6044
     -2835.4844
   -660621.27346   -511007.04343  24538653.4374   24538653.2924
       141.2194
  13100829.82448  10180233.21244  23961609.3044   23961606.3664
     -4710.6414
    804538.07549    625819.67247  21747795.7724   21747793.4404
      -697.8124
  -2926998.42148  -2271204.27145  23658858.2334   23658854.6834
       139.4844
  -1603197.22148  -1248852.57143  24586771.8824   24586770.9404
      1808.2034
 04  9  9 21 52 45.0030000  0  8G 3G 8G13G10G23G27G19G28
   3532374.16848   2749940.83044  23886640.1084   23886639.0304
     -2247.5944
  -3189248.89049  -2477070.63547  22416040.2804   22416038.3474
       518.3914
   6007544.96449   4672003.16948  21438362.5154   21438359.0624
     -2843.7974
   -662664.02446   -512598.78443  24538265.5934   24538264.8354
       131.9844
  13171528.59848  10235323.12044  23975062.7724   23975059.5304
     -4715.0004
    815036.56149    634000.31147  21749793.3354   21749791.1474
      -701.1724
  -2929026.18948  -2272784.32045  23658472.6554   23658469.2064
       131.6094
  -1630288.31648  -1269962.44143  24581616.0934   24581615.6794
      1804.6884
 04  9  9 21 53  0.0030000  0  8G 3G 8G13G10G23G27G19G28
   3566166.07448   2776272.17844  23893070.9764   23893069.5734
     -2257.5314
  -3196993.62049  -2483105.46647  22414565.9134   22414564.7104
       514.7664
   6050268.24549   4705294.04348  21446492.3124   21446488.8904
     -2852.1094
   -664570.23746   -514084.12743  24537902.2184   24537902.0154
       122.7034
  13242290.68748  10290462.36844  23988528.6714   23988525.5934
     -4719.3914
    825583.40649    642218.64347  21751800.4604   21751798.0894
      -704.5624
  -2930936.62548  -2274272.93545  23658108.7414   23658105.6124
       123.6254
  -1657327.59248  -1291031.93743  24576470.6244   24576469.9214
      1801.0314
 04  9  9 21 53 15.0030000  0  8G 3G 8G13G10G23G27G19G28
   3600104.31048   2802717.54144  23899528.9134   23899527.5774
     -2267.5624
  -3204686.25449  -2489099.71347  22413102.1944   22413100.5894
       511.0004
   6093114.61349   4738680.80648  21454645.7654   21454642.6984
     -2860.6724
   -666339.79946   -515463.03442  24537565.6084   24537565.2334
       113.2504
  13313115.84448  10345650.74044  24002005.8664   24002002.5854
     -4723.9064
    836178.48949    650474.55848  21753816.7654   21753814.4334
      -708.1414
  -2932729.57348  -2275670.02045  23657767.9914   23657764.1874
       115.5474
  -1684315.07947  -1312061.07943  24571335.1084   24571334.5654
      1797.2814
 04  9  9 21 53 30.0030000  0  8G 3G 8G13G10G23G27G19G28
   3634190.68848   2829278.36844  23906015.5074   23906014.2804
     -2277.2194
  -3212324.95149  -2495051.93447  22411648.6014   22411646.6474
       507.4844
   6136085.81949   4772164.84848  21462822.5464   21462819.4994
     -2868.8284
   -667970.69146   -516733.80143  24537255.4444   24537254.2374
       104.2194
  13384005.62948  10400889.50444  24015496.2334   24015492.8004
     -4728.0944
    846823.65849    658769.48748  21755842.3354   21755840.1514
      -711.2344
  -2934403.04748  -2276973.99545  23657449.0544   23657446.0504
       107.7034
  -1711248.86247  -1333048.37243  24566209.7884   24566208.9794
      1793.8754
 04  9  9 21 53 45.0030000  0  8G 3G 8G13G10G23G27G19G28
   3668426.85548   2855955.88544  23912529.7184   23912529.3274
     -2287.5784
  -3219907.66249  -2500960.52447  22410205.6944   22410203.9014
       503.4534
   6179183.46449   4805747.41748  21471024.1244   21471020.8974
     -2877.5784
   -669461.01346   -517895.08843  24536972.1084   24536970.7884
        94.5314
  13454961.55547  10456179.78944  24028998.8274   24028995.3124
     -4732.7814
    857520.56749    667104.74748  21757877.8664   21757875.5424
      -715.0474
  -2935955.07648  -2278183.34546  23657153.9524   23657150.5224
        99.2344
  -1738127.09348  -1353992.35943  24561095.3274   24561094.0544
      1789.8594
 04  9  9 21 54  0.0030000  0  8G 3G 8G13G10G23G27G19G28
   3702816.47248   2882752.99044  23919074.3044   23919073.5034
     -2297.5314
  -3227430.91049  -2506822.77947  22408774.2804   22408772.1364
       499.7974
   6222411.33549   4839431.46748  21479250.3044   21479246.6444
     -2885.9694
   -670806.92847   -518943.84143  24536715.7104   24536714.8354
        85.1094
  13525987.16247  10511524.36444  24042514.5624   24042511.0544
     -4737.1564
    868273.12849    675483.36648  21759924.1794   21759921.6874
      -718.4534
  -2937381.70648  -2279294.97145  23656882.2184   23656878.7414
        91.1724
  -1764945.84248  -1374890.01743  24555991.0224   24555990.8514
      1786.1094
 04  9  9 21 54 15.0030000  0  8G 3G 8G13G10G23G27G19G28
   3737352.34548   2909664.05444  23925646.2804   23925645.7374
     -2307.4064
  -3234901.71949  -2512644.17547  22407352.5074   22407350.4684
       496.1724
   6265762.16749   4873211.32148  21487499.2654   21487496.4644
     -2894.2664
   -672015.32247   -519885.42043  24536485.5934   24536485.1044
        75.7974
  13597075.13348  10566917.54244  24056041.9374   24056038.7104
     -4741.3124
    879074.30149    683899.87447  21761979.6944   21761977.1164
      -721.8444
  -2938689.64848  -2280314.12745  23656633.3904   23656629.7454
        83.1094
  -1791711.96748  -1395746.66743  24550897.9294   24550897.1634
      1782.5634
 04  9  9 21 54 30.0030000  0  8G 3G 8G13G10G23G27G19G28
   3772036.28348   2936690.50144  23932246.0544   23932245.4174
     -2316.7194
  -3242318.10649  -2518423.16047  22405941.0384   22405939.0154
       493.1254
   6309237.79149   4907088.41248  21495772.3904   21495769.2184
     -2902.0314
   -673084.15647   -520718.27443  24536282.3194   24536281.7334
        67.0784
  13668227.08647  10622360.56044  24069581.7104   24069579.0464
     -4745.1724
    889925.78949    692355.56948  21764044.6794   21764042.3354
      -724.6414
  -2939876.83248  -2281239.16945  23656407.8514   23656404.2334
        75.5634
  -1818423.39648  -1416560.68544  24545814.9684   24545814.2494
      1779.4064
 04  9  9 21 54 45.0030000  0  8G 3G 8G13G10G23G27G19G28
   3806865.67148   2963830.27744  23938873.7264   23938873.3974
     -2326.7504
  -3249682.15849  -2524161.36647  22404539.7494   22404537.8624
       489.2974
   6352835.68349   4941060.77948  21504068.9374   21504065.7494
     -2910.5314
   -674015.77947   -521444.18743  24536105.4374   24536104.2924
        57.6254
  13739440.33047  10677851.36544  24083133.8824   24083129.9404
     -4749.5164
    900825.33749    700848.73248  21766118.6084   21766116.3314
      -728.1564
  -2940945.38748  -2282071.78845  23656204.4294   23656200.9374
        67.3754
  -1845082.40547  -1437333.85543  24540741.5694   24540741.0544
      1775.5944
 04  9  9 21 55  0.0030000  0  8G 3G 8G13G10G23G27G19G28
   3841843.50848   2991085.74244  23945529.9054   23945529.2374
     -2336.5314
  -3256991.17549  -2529856.69547  22403149.1244   22403147.2414
       485.6094
   6396558.97449   4975130.86048  21512389.2104   21512385.8434
     -2918.8594
   -674806.98646   -522060.69243  24535954.4604   24535953.3584
        48.2974
  13810717.77447  10733392.17244  24096696.9444   24096693.7574
     -4753.7664
    911775.88049    709381.61548  21768202.4834   21768199.8624
      -731.5314
  -2941892.02948  -2282809.39445  23656024.3584   23656020.5774
        59.2344
  -1871685.89348  -1458063.80943  24535679.5224   24535678.2534
      1771.9844
 04  9  9 21 55 15.0030000  0  8G 3G 8G13G10G23G27G19G28
   3876966.93648   3018454.63444  23952213.4764   23952213.1444
     -2346.5314
  -3264248.07049  -2535511.41247  22401767.9214   22401765.9644
       481.9384
   6440404.73449   5009296.39048  21520732.9374   21520729.7654
     -2927.1724
   -675460.45747   -522569.87043  24535829.8514   24535829.3704
        38.8914
  13882056.40848  10788980.67244  24110272.3434   24110268.8354
     -4758.0314
    922774.69749    717952.13147  21770295.4054   21770293.0074
      -734.9374
  -2942719.35748  -2283454.04245  23655866.6164   23655863.1244
        51.1254
  -1898236.37748  -1478752.41043  24530626.9604   24530626.2144
      1768.1724
 04  9  9 21 55 30.0030000  0  8G 3G 8G13G10G23G27G19G28
   3912239.84248   3045940.01044  23958925.9134   23958925.2334
     -2356.6254
  -3271448.57949  -2541122.17747  22400397.9134   22400396.2294
       478.1414
   6484376.90449   5043560.40548  21529100.7104   21529097.4524
     -2935.8124
   -675971.99046   -522968.47943  24535732.5464   24535731.6244
        29.3134
  13953459.99348  10844619.77544  24123859.9524   24123857.2764
     -4762.4064
    933825.81349    726563.39447  21772398.4994   21772395.9404
      -738.5474
  -2943422.97948  -2284002.30245  23655732.8744   23655728.9014
        42.7504
  -1924729.69648  -1499396.49443  24525585.5074   24525584.3784
      1764.2664
 04  9  9 21 55 45.0030000  0  8G 3G 8G13G10G23G27G19G28
   3947661.10548   3073541.01644  23965665.8044   23965665.6014
     -2366.3444
  -3278593.63949  -2546689.73047  22399038.0224   22399036.2884
       474.5164
   6528474.25649   5077921.96748  21537491.8664   21537488.6284
     -2943.9534
   -676342.38647   -523257.02543  24535662.1634   24535661.4794
        20.0314
  14024927.36847  10900308.57844  24137459.7964   24137456.8434
     -4766.5164
    944928.24349    735214.63248  21774511.2964   21774508.8624
      -741.8284
  -2944003.66648  -2284454.73845  23655622.3434   23655618.9014
        34.6564
  -1951166.69548  -1519996.65043  24520554.0624   24520553.5694
      1760.6564
 04  9  9 21 56  0.0030000  0  8G 3G 8G13G10G23G27G19G28
   3983231.46748   3101258.15444  23972434.9444   23972434.9054
     -2376.3284
  -3285682.42649  -2552213.46247  22397689.2804   22397687.6474
       470.6414
   6572697.68249   5112381.76448  21545907.5934   21545904.1404
     -2952.4844
   -676570.65447   -523434.90943  24535618.6404   24535617.9684
        10.4534
  14096459.18248  10956047.63044  24151071.7804   24151068.3974
     -4770.9844
    956082.90749    743906.60147  21776633.6244   21776631.4374
      -745.3914
  -2944460.41148  -2284810.63245  23655535.2804   23655531.2884
        26.2814
  -1977546.33648  -1540552.17943  24515534.8824   24515534.0624
      1756.7034
 04  9  9 21 56 15.0030000  0  8G 3G 8G13G10G23G27G19G28
   4018956.54848   3129095.87744  23979233.3904   23979232.7184
     -2386.4064
  -3292709.20349  -2557688.86147  22396351.9764   22396350.3584
       466.7504
   6617052.89349   5146944.26948  21554347.8194   21554344.7224
     -2961.0004
   -676650.99746   -523497.48443  24535603.5464   24535603.1674
         0.9534
  14168060.77448  11011841.03744  24164697.0854   24164694.7334
     -4775.3444
    967295.39549    752643.60748  21778767.4834   21778765.1634
      -749.0314
  -2944787.19348  -2285065.24845  23655473.3584   23655469.1794
        17.8134
  -2003862.79648  -1561058.44543  24510526.9994   24510525.7764
      1752.7344
 04  9  9 21 56 30.0030000  0  8G 3G 8G13G10G23G27G19G28
   4054823.42848   3157044.08344  23986058.5384   23986057.8154
     -2396.0944
  -3299686.68149  -2563125.83747  22395024.3514   22395022.4174
       463.2814
   6661526.94549   5181599.35648  21562811.1014   21562807.7804
     -2969.1414
   -676596.02846   -523454.62843  24535612.8664   24535612.8624
        -8.5004
  14239719.05848  11067678.60444  24178333.9054   24178330.6594
     -4779.4064
    978553.06049    761415.81448  21780909.7264   21780907.3194
      -752.3124
  -2944996.66148  -2285228.44445  23655433.2264   23655429.2884
         9.8134
  -2030128.74348  -1581525.34344  24505528.9834   24505527.6794
      1749.1254
 04  9  9 21 56 45.0030000  0  8G 3G 8G13G10G23G27G19G28
   4090838.49748   3185107.78144  23992912.2024   23992910.8084
     -2406.0474
  -3306608.36749  -2568519.34247  22393707.3044   22393705.3044
       459.4064
   6706126.12449   5216351.95248  21571298.2494   21571294.6514
     -2977.5944
   -676399.16546   -523301.20343  24535651.1944   24535650.2144
       -17.8914
  14311440.31848  11123565.24944  24191982.2574   24191978.5734
     -4783.7344
    989862.28849    770228.20447  21783061.6794   21783059.4374
      -755.7974
  -2945082.10148  -2285294.99645  23655417.0464   23655412.8354
         1.3914
  -2056337.51048  -1601947.69643  24500541.3194   24500540.3274
      1745.2344
 04  9  9 21 57  0.0030000  0  8G 3G 8G13G10G23G27G19G28
   4127008.28848   3213292.01644  23999794.8974   23999794.0624
     -2416.6254
  -3313467.60749  -2573864.20747  22392401.8514   22392399.9404
       455.0944
   6750857.12149   5251207.25648  21579810.1874   21579806.7104
     -2986.5944
   -676053.57246   -523031.90943  24535717.1634   24535716.0544
       -28.0474
  14383231.06048  11179506.04644  24205643.5464   24205639.9174
     -4788.4224
   1001229.69149    779085.92647  21785225.1634   21785222.3624
      -759.9224
  -2945036.55848  -2285259.49546  23655425.9054   23655421.5624
        -7.5164
  -2082482.30148  -1622320.19643  24495565.3904   24495565.3474
      1740.6884
 04  9  9 21 57 15.0030000  0  8G 3G 8G13G10G23G27G19G28
   4163325.53248   3241591.17844  24006705.9604   24006705.0304
     -2425.8284
  -3320271.71149  -2579166.07847  22391107.2184   22391105.1714
       451.9694
   6795712.63449   5286159.58548  21588346.0154   21588342.6834
     -2994.2974
   -675566.23846   -522652.13943  24535809.6404   24535809.0194
       -37.0624
  14455083.98947  11235495.28644  24219316.1404   24219313.3434
     -4792.0624
   1012648.30549    787983.54947  21787397.9684   21787395.2494
      -762.7194
  -2944866.90048  -2285127.26246  23655457.5154   23655453.9094
       -15.2814
  -2108570.07248  -1642648.25643  24490601.4444   24490600.4054
      1737.4844
 04  9  9 21 57 30.0030000  0  8G 3G 8G13G10G23G27G19G28
   4199786.00648   3270001.92644  24013644.3354   24013643.1634
     -2435.3594
  -3327024.44049  -2584427.93047  22389822.0854   22389819.8824
       448.5474
   6840688.58249   5321205.76348  21596904.3824   21596900.7494
     -3002.3284
   -674941.11346   -522165.01343  24535928.8434   24535928.2374
       -46.2504
  14526994.88648  11291529.69344  24233000.4994   24232997.7454
     -4795.9844
   1024114.02949    796917.88347  21789579.9054   21789577.0194
      -765.8284
  -2944576.95448  -2284901.29745  23655512.6634   23655509.1514
       -23.3284
  -2134604.54848  -1662934.79443  24485647.0384   24485645.9054
      1733.9534
 04  9  9 21 57 45.0030000  0  8G 3G 8G13G10G23G27G19G28
   4236395.86348   3298529.08244  24020610.8824   24020609.7144
     -2445.5164
  -3333719.49249  -2589644.85247  22388547.7024   22388545.5194
       444.5784
   6885791.07849   5356350.55148  21605487.3354   21605483.7374
     -3010.9224
   -674171.78546   -521565.52043  24536075.0854   24536074.3234
       -55.9534
  14598969.77048  11347613.97744  24246696.7024   24246693.9684
     -4800.3124
   1035633.22849    805893.88847  21791771.7104   21791769.1204
      -769.6414
  -2944160.17448  -2284576.51845  23655592.0694   23655588.5074
       -31.9374
  -2160579.46148  -1683174.93143  24480704.2574   24480702.7694
      1729.7974
 04  9  9 21 58  0.0030000  0  8G 3G 8G13G10G23G27G19G28
   4273148.98348   3327167.87844  24027605.1794   24027604.1404
     -2454.9374
  -3340363.12249  -2594821.69247  22387283.4444   22387281.3824
       441.2194
   6931014.29149   5391589.41548  21614092.8974   21614089.1554
     -3018.8594
   -673264.13247   -520858.23043  24536247.6164   24536246.9604
       -65.1414
  14671002.28148  11403743.15944  24260403.9444   24260401.4054
     -4804.0944
   1047199.83849    814906.85247  21793972.8584   21793970.2184
      -772.6874
  -2943622.33648  -2284157.39745  23655694.3664   23655690.8514
       -39.8914
  -2186500.51648  -1703373.08743  24475771.1404   24475770.2374
      1726.3134
 04  9  9 21 58 15.0030000  0  8G 3G 8G13G10G23G27G19G28
   4310052.06448   3355923.52144  24034627.1404   24034626.1984
     -2465.4844
  -3346948.22949  -2599952.92947  22386030.7104   22386028.8664
       436.8134
   6976364.85749   5426927.50148  21622722.7414   21622719.7264
     -3027.9534
   -672211.27947   -520037.82543  24536448.2574   24536447.5654
       -75.3444
  14743098.98447  11459922.34644  24274123.9054   24274120.6834
     -4808.8284
   1058820.63849    823962.00948  21796184.2024   21796181.7184
      -776.7814
  -2942956.56948  -2283638.58945  23655820.7574   23655817.6474
       -48.9694
  -2212360.84148  -1723523.90243  24470849.8434   24470849.2764
      1721.7664
 04  9  9 21 58 30.0030000  0  8G 3G 8G13G10G23G27G19G28
   4347103.66048   3384794.87944  24041678.0854   24041676.6984
     -2475.5164
  -3353476.10949  -2605039.58847  22384788.2884   22384786.1084
       432.7974
   7021841.24649   5462363.63448  21631376.6794   21631373.2724
     -3036.3914
   -671014.27647   -519105.05943  24536676.0464   24536675.1874
       -85.0474
  14815258.41348  11516150.42644  24287855.1634   24287852.3474
     -4813.1874
   1070494.40749    833058.46348  21798405.7574   21798403.3004
      -780.4694
  -2942163.78048  -2283020.82545  23655971.8904   23655969.0264
       -57.5944
  -2238161.67748  -1743628.40243  24465940.4524   24465939.7574
      1717.6254
 04  9  9 21 58 45.0030000  0  8G 3G 8G13G10G23G27G19G28
   4384302.38948   3413780.91244  24048756.7804   24048755.4294
     -2484.2194
  -3359948.03149  -2610082.62147  22383557.2184   22383554.8904
       430.1884
   7067442.10149   5497896.75948  21640054.3514   21640051.1044
     -3043.5624
   -669674.33647   -518060.92443  24536930.9374   24536930.1754
       -93.4534
  14887478.98448  11572426.15344  24301598.7264   24301595.7654
     -4816.1254
   1082219.84949    842195.17048  21800636.9214   21800634.3624
      -782.8444
  -2941245.04147  -2282304.88845  23656146.3824   23656143.2454
       -64.8444
  -2263904.08748  -1763687.35043  24461041.7804   24461041.0074
      1714.8284
 04  9  9 21 59  0.0030000  0  8G 3G 8G13G10G23G27G19G28
   4421646.21448   3442880.00144  24055862.8664   24055862.1944
     -2494.2664
  -3366365.86249  -2615083.52047  22382335.5934   22382333.2574
       426.2194
   7113165.53549   5533525.38548  21648755.2184   21648751.5974
     -3052.1414
   -668193.31546   -516906.87043  24537212.8514   24537212.2024
      -103.2194
  14959758.65648  11628747.90944  24315353.0934   24315350.3704
     -4820.3594
   1093994.95349    851370.58847  21802877.6324   21802875.2884
      -786.5314
  -2940202.08748  -2281492.18045  23656345.0694   23656341.7964
       -73.5004
  -2289589.78348  -1783702.09943  24456154.2884   24456153.3664
      1710.6254
 04  9  9 21 59 15.0030000  0  8G 3G 8G13G10G23G27G19G28
   4459136.93348   3472093.52444  24062997.4054   24062996.3864
     -2504.5164
  -3372727.93049  -2620040.96847  22381125.1794   22381122.9174
       422.0634
   7159013.21449   5569250.84648  21657479.7724   21657476.2184
     -3060.8594
   -666569.18346   -515641.31143  24537521.8044   24537521.0384
      -113.2974
  15032099.01648  11685116.97644  24329118.8274   24329115.7924
     -4824.8754
   1105821.78249    860586.30048  21805128.1474   21805125.3474
      -790.3754
  -2939032.77148  -2280580.99846  23656568.1084   23656564.4484
       -82.4224
  -2315216.84648  -1803671.17743  24451277.4684   24451276.4794
      1706.2664
 04  9  9 21 59 30.0030000  0  8G 3G 8G13G10G23G27G19G28
   4496777.95848   3501424.19444  24070160.2724   24070159.2694
     -2514.2664
  -3379030.33649  -2624951.91147  22379925.6404   22379923.5694
       418.3444
   7204988.60749   5605075.80947  21666228.5074   21666224.9834
     -3069.1254
   -664798.33346   -514261.39843  24537858.7414   24537857.4954
      -122.7504
  15104503.21947  11741535.76844  24342896.7574   24342893.5974
     -4828.9694
   1117703.78449    869845.00647  21807388.8194   21807386.9564
      -793.8124
  -2937733.38348  -2279568.46346  23656815.2414   23656811.7724
       -90.8444
  -2340781.49248  -1823591.61643  24446412.6714   24446411.3544
      1702.3914
 04  9  9 21 59 45.0030000  0  8G 3G 8G13G10G23G27G19G28
   4534566.12948   3530869.50944  24077351.1874   24077350.0344
     -2523.8124
  -3385276.26149  -2629818.85947  22378736.9214   22378734.8784
       414.8754
   7251088.61949   5640997.88948  21675001.1014   21674997.8004
     -3077.1874
   -662883.47947   -512769.30143  24538222.9994   24538222.2294
      -132.1724
  15176968.18448  11798001.91344  24356686.6474   24356683.6904
     -4832.6564
   1129637.96049    879144.36547  21809660.0624   21809657.6874
      -797.0944
  -2936306.72648  -2278456.76846  23657086.7104   23657082.8744
       -99.0314
  -2366286.52648  -1843465.61744  24441559.2414   24441557.8904
      1698.7194
 04  9  9 22  0  0.0030000  0  8G 3G 8G13G10G23G27G19G28
   4572499.17248   3560427.73644  24084569.3354   24084568.2574
     -2533.6564
  -3391467.95449  -2634643.54847  22377558.8824   22377556.6754
       410.9224
   7297310.96549   5677015.28448  21683796.6714   21683793.7374
     -3085.5624
   -660826.79047   -511166.66643  24538614.4684   24538613.4684
      -141.9064
  15249491.60947  11854513.64244  24370487.6794   24370484.5814
     -4836.7974
   1141622.27449    888482.80548  21811940.4764   21811938.0424
      -800.6874
  -2934754.62448  -2277247.31945  23657381.8124   23657378.0894
      -107.6564
  -2391734.07648  -1863294.83043  24436716.4604   24436715.1674
      1694.5634
 04  9  9 22  0 15.0030000  0  8G 3G 8G13G10G23G27G19G28
   4610577.35548   3590099.02944  24091815.2414   24091814.1594
     -2543.0004
  -3397604.68449  -2639425.40047  22376390.9374   22376389.0734
       407.7344
   7343656.07349   5713128.33648  21692616.2184   21692612.6874
     -3093.2974
   -658627.59647   -509452.99043  24539032.9134   24539032.1984
      -150.9534
  15322073.52047  11911070.89744  24384299.2334   24384296.5894
     -4840.3284
   1153657.06849    897860.55948  21814230.8434   21814228.1124
      -803.5624
  -2933076.45848  -2275939.61646  23657701.0774   23657697.4444
      -115.6724
  -2417123.48748  -1883078.70644  24431884.9684   24431883.9484
      1691.0944
 04  9  9 22  0 30.0030000  0  8G 3G 8G13G10G23G27G19G28
   4648800.11948   3619882.99544  24099088.4834   24099087.6554
     -2553.2034
  -3403686.98549  -2644164.84447  22375233.6714   22375231.3744
       403.4534
   7390123.22749   5749336.51247  21701458.4914   21701454.8944
     -3102.1254
   -656286.30646   -507628.59443  24539478.0544   24539478.2294
      -161.1874
  15394713.39847  11967673.35844  24398121.9684   24398119.3354
     -4844.7814
   1165741.91149    907277.34648  21816530.2724   21816527.8744
      -807.5164
  -2931272.45247  -2274533.88745  23658044.4764   23658040.8044
      -124.7194
  -2442455.04048  -1902817.54644  24427064.7804   24427063.2104
      1686.5004
 04  9  9 22  0 45.0030000  0  8G 3G 8G13G10G23G27G19G28
   4687171.23848   3649782.56244  24106390.5774   24106389.4954
     -2562.1254
  -3409710.80549  -2648858.71747  22374087.2724   22374085.1164
       400.4694
   7436716.41849   5785642.87848  21710324.7334   21710321.5154
     -3109.5784
   -653798.90946   -505690.33943  24539952.1794   24539951.0264
      -169.8124
  15467415.02147  12024323.91744  24411956.8124   24411953.8784
     -4848.0314
   1177881.02549    916736.39448  21818840.5854   21818838.2144
      -810.2034
  -2929338.36848  -2273026.78045  23658412.3904   23658409.1444
      -132.4374
  -2467724.62048  -1922508.05044  24422255.9994   24422254.6284
      1683.4844
 04  9  9 22  1  0.0030000  0  8G 3G 8G13G10G23G27G19G28
   4725684.70748   3679793.04144  24113719.5694   24113718.7414
     -2572.2194
  -3415681.97549  -2653511.56647  22372951.1084   22372948.6284
       396.4384
   7483429.62849   5822042.76248  21719214.1324   21719210.6284
     -3118.0944
   -651171.19147   -503642.74443  24540451.8194   24540450.7064
      -179.7034
  15540171.99648  12081017.59644  24425802.1084   24425799.4644
     -4852.1564
   1190068.16349    926232.85948  21821159.7574   21821157.3434
      -814.0164
  -2927280.02548  -2271422.86045  23658803.9054   23658800.6794
      -141.2344
  -2492938.04348  -1942154.80644  24417458.4994   24417456.5034
      1679.0944
 04  9  9 22  1 15.0030000  0  8G 3G 8G13G10G23G27G19G28
   4764340.32248   3709914.29944  24121075.7654   24121074.9604
     -2581.8124
  -3421600.68049  -2658123.52447  22371824.7654   22371822.3824
       392.8754
   7530262.85149   5858536.16948  21728126.1874   21728122.7494
     -3126.1874
   -648402.94147   -501485.65744  24540978.1474   24540977.9684
      -189.1874
  15612984.21547  12137754.33044  24439657.9604   24439655.5154
     -4856.0164
   1202303.52049    935766.91047  21823487.8514   21823485.3864
      -817.2974
  -2925096.95048  -2269721.73146  23659219.1324   23659215.9914
      -149.7194
  -2518095.02548  -1961757.60044  24412670.9374   24412669.5384
      1675.2974
 04  9  9 22  1 30.0030000  0  8G 3G 8G13G10G23G27G19G28
   4803143.49948   3740150.53544  24128459.6634   24128458.6874
     -2591.3914
  -3427461.07949  -2662690.06047  22370709.5154   22370707.5734
       389.2034
   7577221.57749   5895127.36648  21737061.9374   21737058.7694
     -3134.2814
   -645488.37847   -499214.56543  24541533.3044   24541532.7494
      -198.7814
  15685856.99647  12194538.28944  24453524.9524   24453522.1124
     -4859.8124
   1214592.62149    945342.83148  21825826.5464   21825823.8744
      -820.6094
  -2922783.44348  -2267918.98845  23659659.5154   23659655.6084
      -158.1564
  -2543189.89148  -1981311.98544  24407895.2964   24407893.6714
      1671.3594
 04  9  9 22  1 45.0030000  0  8G 3G 8G13G10G23G27G19G28
   4842092.78848   3770500.62044  24135871.2264   24135870.9094
     -2601.9374
  -3433264.53849  -2667212.21647  22369604.8974   22369603.1904
       384.5784
   7624304.29249   5931815.18147  21746021.4994   21746018.5154
     -3143.4694
   -642428.95847   -496830.60343  24542115.4684   24542114.6164
      -209.2344
  15758788.78247  12251368.17344  24467403.5934   24467400.9834
     -4864.4694
   1226934.23249    954959.67647  21828175.1324   21828172.4174
      -824.9694
  -2920340.80148  -2266015.60545  23660124.8824   23660121.6204
      -167.6414
  -2568223.89848  -2000818.94144  24403131.4994   24403129.7844
      1666.4384
 04  9  9 22  2  0.0030000  0  8G 3G 8G13G10G23G27G19G28
   4881183.79448   3800961.14144  24143310.3974   24143309.4374
     -2611.2504
  -3439015.55249  -2671693.51747  22368510.7574   22368508.4334
       381.2504
   7671506.43349   5968596.06847  21755004.1164   21755001.0384
     -3151.2504
   -639228.84847   -494336.98343  24542724.4214   24542723.2534
      -218.4224
  15831775.08647  12308240.56544  24481292.3824   24481289.6834
     -4867.9374
   1239323.96549    964614.02147  21830532.6244   21830529.9994
      -828.0164
  -2917773.07648  -2264014.75845  23660613.2414   23660609.3944
      -175.7194
  -2593201.15448  -2020281.69544  24398378.2654   24398376.8434
      1662.8914
 04  9  9 22  2 15.0030000  0  8G 3G 8G13G10G23G27G19G28
   4920420.78748   3831535.39644  24150777.0224   24150776.3314
     -2620.5164
  -3444709.52049  -2676130.36147  22367427.2264   22367424.8394
       377.8594
   7718832.42149   6005473.44647  21764009.5774   21764006.6474
     -3159.1094
   -635883.39748   -491730.13243  24543360.9684   24543360.5154
      -227.7034
  15904820.01847  12365158.62344  24495192.6944   24495189.9954
     -4871.4694
   1251766.32549    974309.36648  21832900.6164   21832898.0544
      -831.1094
  -2915075.69548  -2261912.86846  23661126.0854   23661122.8784
      -184.0314
  -2618117.12448  -2039696.68244  24393637.3354   24393635.0074
      1659.1564
 04  9  9 22  2 30.0030000  0  8G 3G 8G13G10G23G27G19G28
   4959803.19048   3862222.97644  24158270.7884   24158269.9054
     -2630.5314
  -3450346.86049  -2680523.08747  22366354.4914   22366352.3474
       373.7504
   7766281.79449   6042446.97047  21773038.8584   21773035.9334
     -3167.6414
   -632392.90448   -489010.25043  24544025.7494   24544024.6244
      -237.7814
  15977922.96948  12422121.91044  24509103.8434   24509100.7574
     -4875.7034
   1264260.90449    984045.41048  21835278.1554   21835275.2844
      -834.9224
  -2912248.68748  -2259709.98945  23661664.2104   23661660.7184
      -193.0004
  -2642972.01148  -2059064.07344  24388907.2184   24388905.8314
      1654.7974
 04  9  9 22  2 45.0030000  0  8G 3G 8G13G10G23G27G19G28
   4999328.22248   3893021.68744  24165792.5624   24165791.6594
     -2640.2034
  -3455930.03749  -2684873.60847  22365291.9374   22365290.2064
       369.9694
   7813851.82249   6079514.52047  21782091.2574   21782088.0694
     -3175.7814
   -628759.94148   -486179.37343  24544716.1084   24544716.0894
      -247.3284
  16051081.17947  12479128.26644  24523025.3274   24523022.2654
     -4879.5164
   1276805.22849    993820.21648  21837665.2104   21837662.4484
      -838.3914
  -2909294.41248  -2257407.93845  23662226.5384   23662222.4484
      -201.6414
  -2667768.29748  -2078385.80344  24384188.3434   24384186.7184
      1650.7194
 04  9  9 22  3  0.0030000  0  8G 3G 8G13G10G23G27G19G28
   5039000.75848   3923935.34644  24173341.5774   24173340.8704
     -2649.4694
  -3461453.91149  -2689177.90347  22364240.8584   22364238.9764
       366.5944
   7861547.44349   6116679.91948  21791167.6714   21791164.3544
     -3183.5784
   -624979.27648   -483233.37944  24545435.5464   24545435.4524
      -256.6254
  16124299.39047  12536181.35844  24536958.3194   24536955.7844
     -4882.9534
   1289404.33349   1003637.70148  21840062.7184   21840060.2264
      -841.4534
  -2906207.63648  -2255002.63146  23662813.7574   23662810.1474
      -210.0314
  -2692500.74948  -2097657.79444  24379481.5854   24379480.4014
      1646.9844
 04  9  9 22  3 15.0030000  0  8G 3G 8G13G10G23G27G19G28
   5078814.89148   3954959.33744  24180918.1714   24180917.2334
     -2659.7344
  -3466924.40449  -2693440.61647  22363199.5544   22363197.8624
       362.2344
   7909362.70949   6153938.55147  21800266.5624   21800263.2964
     -3192.4064
   -621056.69548   -480176.80143  24546182.3664   24546181.8784
      -267.0004
  16197571.56347  12593276.49844  24550901.9374   24550898.9684
     -4887.3754
   1302052.40749   1013493.35448  21842469.5694   21842467.2694
      -845.5624
  -2902993.97448  -2252498.46346  23663425.3434   23663422.0344
      -219.2814
  -2717175.02648  -2116884.46244  24374786.6874   24374784.8974
      1642.2344
 04  9  9 22  3 30.0030000  0  8G 3G 8G13G10G23G27G19G28
   5118774.11648   3986096.40044  24188522.2104   24188521.1324
     -2668.5314
  -3472337.79749  -2697658.82847  22362169.9994   22362168.1044
       359.2814
   7957301.06849   6191293.09647  21809389.0694   21809385.6514
     -3199.7194
   -616988.46047   -477006.73143  24546956.5304   24546955.7184
      -275.7194
  16270901.08948  12650416.33244  24564855.9834   24564853.1674
     -4890.2344
   1314752.95849   1023389.88548  21844886.4524   21844883.7724
      -848.1874
  -2899649.61548  -2249892.44646  23664061.7104   23664057.8784
      -227.1094
  -2741787.37548  -2136062.84944  24370102.3974   24370101.4014
      1639.0474
 04  9  9 22  3 45.0030000  0  8G 3G 8G13G10G23G27G19G28
   5158869.99448   4017339.91144  24196152.6404   24196151.5384
     -2677.4374
  -3477702.18849  -2701838.86047  22361148.8974   22361146.4294
       356.2034
   8005354.34449   6228737.20047  21818533.1634   21818529.7024
     -3207.1254
   -612782.62146   -473729.44743  24547756.6794   24547755.9914
      -284.7034
  16344279.48447  12707594.26444  24578818.6164   24578816.2724
     -4893.3594
   1327497.95049   1033321.05047  21847311.8194   21847309.5194
      -850.9374
  -2896182.43748  -2247190.72346  23664721.8584   23664718.1834
      -234.9374
  -2766345.84548  -2155199.28044  24365429.4054   24365427.7454
      1635.6254
 04  9  9 22  4  0.0030000  0  8G 3G 8G13G10G23G27G19G28
   5199110.88947   4048696.44844  24203809.7654   24203808.8154
     -2687.2504
  -3483009.10649  -2705974.11147  22360139.0934   22360136.9834
       352.1884
   8053530.97449   6266277.41148  21827700.8584   21827697.3944
     -3215.5784
   -608430.62946   -470338.27843  24548585.4834   24548583.9834
      -294.7034
  16417714.97547  12764816.66844  24592793.5384   24592790.9834
     -4897.2814
   1340295.79349   1043293.40548  21849746.8824   21849744.5264
      -854.6564
  -2892583.81348  -2244386.58446  23665406.3584   23665402.7724
      -243.9694
  -2790841.73048  -2174286.93644  24360768.3044   24360766.6204
      1631.2814
 04  9  9 22  4 15.0030000  0  8G 3G 8G13G10G23G27G19G28
   5239492.79848   4080162.87544  24211494.6164   24211493.4994
     -2697.3124
  -3488262.52749  -2710067.66947  22359139.1014   22359137.0224
       348.0164
   8101826.71449   6303910.43048  21836891.4294   21836887.9564
     -3224.2034
   -603936.32346   -466836.21343  24549440.2024   24549439.2964
      -304.8284
  16491203.41547  12822080.33744  24606778.3664   24606775.7614
     -4901.3754
   1353142.62749   1053303.93748  21852191.5854   21852188.7844
      -858.5474
  -2888857.63748  -2241483.04446  23666115.5694   23666111.9214
      -253.1414
  -2815278.92248  -2193328.84944  24356118.1084   24356116.3514
      1626.7504
 04  9  9 22  4 30.0030000  0  8G 3G 8G13G10G23G27G19G28
   5280020.28348   4111742.70944  24219206.2884   24219205.6014
     -2706.5944
  -3493457.58349  -2714115.75647  22358150.6554   22358148.4294
       344.5314
   8150246.40849   6341640.04547  21846105.2184   21846102.0934
     -3231.9844
   -599294.74647   -463219.39143  24550323.5154   24550322.4524
      -314.1874
  16564749.34447  12879388.79744  24620772.8904   24620771.0894
     -4904.8594
   1366043.36849   1063356.45648  21854646.6874   21854643.9404
      -861.7034
  -2884998.84748  -2238476.17846  23666850.4764   23666846.0154
      -261.5164
  -2839652.41448  -2212321.15244  24351479.4834   24351477.9604
      1622.8444
 04  9  9 22  4 45.0030000  0  8G 3G 8G13G10G23G27G19G28
   5320692.56448   4143435.38644  24226945.5934   24226945.0074
     -2716.2194
  -3498595.13949  -2718119.04247  22357173.0934   22357170.9094
       340.6254
   8198789.28349   6379465.63848  21855342.7184   21855339.2724
     -3240.2344
   -594506.52047   -459488.29843  24551234.9834   24551233.7414
      -324.0784
  16638352.01747  12936741.47444  24634779.4684   24634777.2334
     -4908.6254
   1378997.23549   1073450.38047  21857111.6554   21857108.9094
      -865.3284
  -2881007.73948  -2235366.20246  23667609.2884   23667605.3474
      -270.4694
  -2863962.76548  -2231264.22044  24346853.6874   24346851.8234
      1618.6564
 04  9  9 22  5  0.0040000  0  8G 3G 8G13G10G23G27G19G28
   5361510.25448   4175241.37644  24234713.0514   24234712.5194
     -2726.0624
  -3503676.87349  -2722078.81447  22356206.0904   22356203.9344
       336.5634
   8247456.56249   6417388.18248  21864603.9184   21864600.6294
     -3248.6564
   -589573.13747   -455644.09243  24552173.5434   24552172.0744
      -334.0314
  16712014.22147  12994140.53744  24648796.8094   24648794.8444
     -4912.5784
   1392003.29449   1083584.98448  21859586.5434   21859584.2694
      -869.0004
  -2876885.83948  -2232154.31946  23668393.7304   23668389.7974
      -279.4224
  -2888213.28848  -2250160.68744  24342239.0434   24342237.1644
      1614.2504
 04  9  9 22  5 15.0040000  0  8G 3G 8G13G10G23G27G19G28
   5402470.23548   4207158.22444  24242507.8404   24242506.7114
     -2735.4694
  -3508700.12749  -2725993.02747  22355250.0514   22355247.8984
       333.0004
   8296244.05949   6455404.38448  21873887.8794   21873884.7424
     -3256.5624
   -584492.73347   -451685.34144  24553140.1684   24553138.9884
      -343.4694
  16785728.18047  13051579.93344  24662823.8874   24662822.0434
     -4916.1564
   1405062.25149   1093760.78748  21862071.6684   21862069.1134
      -872.3284
  -2872631.03748  -2228838.86746  23669203.1914   23669199.6024
      -288.0474
  -2912398.18748  -2269006.00944  24337636.1054   24337634.4344
      1610.2664
 04  9  9 22  5 30.0040000  0  8G 3G 8G13G10G23G27G19G28
   5443576.73848   4239189.24844  24250330.1764   24250329.3204
     -2745.5944
  -3513663.22949  -2729860.36247  22354305.6764   22354303.5784
       328.6884
   8345156.56249   6493518.00848  21883195.5514   21883192.2814
     -3265.2504
   -579263.13247   -447610.30844  24554135.2774   24554134.3364
      -353.8754
  16859500.12647  13109064.50744  24676862.7074   24676860.4184
     -4920.2344
   1418176.63249   1103979.79448  21864567.3634   21864564.9454
      -876.3444
  -2868241.16748  -2225418.17146  23670038.5434   23670035.0904
      -297.3914
  -2936517.26348  -2287800.05644  24333046.9884   24333044.8794
      1605.5634
 04  9  9 22  5 45.0040000  0  8G 3G 8G13G10G23G27G19G28
   5484819.46748   4271326.43544  24258178.0044   24258177.5594
     -2753.4224
  -3518576.29749  -2733688.71147  22353370.5594   22353369.1604
       326.4844
   8394183.83649   6531721.06348  21892525.1294   21892521.6874
     -3271.6874
   -573894.34747   -443426.81943  24555157.4884   24555156.0824
      -361.8914
  16933319.90147  13166586.34543  24690909.9734   24690908.0004
     -4922.2034
   1431336.51249   1114234.24348  21867071.4184   21867069.0594
      -878.2344
  -2863726.11248  -2221899.91646  23670897.5984   23670893.9064
      -304.5474
  -2960580.34048  -2306550.45644  24328467.8634   24328466.0234
      1602.9534
 04  9  9 22  6  0.0040000  0  8G 3G 8G13G10G23G27G19G28
   5526205.64848   4303575.39244  24266053.8244   24266053.5164
     -2763.6564
  -3523432.09749  -2737472.43847  22352446.6134   22352444.5234
       321.9844
   8443333.12749   6570019.17947  21901877.9964   21901874.8324
     -3280.4224
   -568378.99847   -439129.13743  24556206.5664   24556205.6024
      -372.2814
  17007194.63347  13224151.01043  24704968.1524   24704965.9184
     -4926.5784
   1444549.10249   1124529.75848  21869585.7934   21869583.2074
      -882.3444
  -2859078.42548  -2218278.32046  23671782.0904   23671778.4184
      -314.0314
  -2984580.05148  -2325251.47944  24323900.4804   24323899.2504
      1598.1254
 04  9  9 22  6 15.0040000  0  8G 3G 8G13G10G23G27G19G28
   5567731.57248   4335933.23744  24273955.8244   24273955.1874
     -2772.7664
  -3528233.94549  -2741214.13047  22351532.5274   22351530.8284
       318.6094
   8492600.81749   6608409.57648  21911253.1684   21911250.3634
     -3288.1414
   -562720.50448   -434719.90944  24557283.2694   24557282.3094
      -381.7194
  17081120.61047  13281755.62043  24719035.2774   24719033.4924
     -4929.6874
   1457811.03449   1134863.74148  21872109.5124   21872106.5784
      -885.4064
  -2854301.30948  -2214555.88946  23672691.1764   23672687.7974
      -322.4694
  -3008519.79948  -2343905.78344  24319344.8874   24319343.4734
      1594.2814
 04  9  9 22  6 30.0040000  0  8G 3G 8G13G10G23G27G19G28
   5609397.19548   4368399.96044  24281884.6444   24281883.6994
     -2782.6874
  -3532981.75149  -2744913.70347  22350629.1604   22350627.2774
       314.3754
   8541986.81349   6646892.15248  21920650.8874   21920648.5864
     -3296.6724
   -556918.73647   -430199.04343  24558387.3634   24558386.2074
      -391.9374
  17155097.52546  13339399.88943  24733112.8714   24733111.1024
     -4933.7974
   1471122.26849   1145236.13348  21874642.3944   21874639.8444
      -889.3914
  -2849394.58148  -2210732.43346  23673624.6054   23673621.0194
      -331.8284
  -3032399.31648  -2362513.12944  24314800.7384   24314799.4654
      1589.5944
 04  9  9 22  6 45.0040000  0  8G 3G 8G13G10G23G27G19G28
   5651201.99748   4400975.11244  24289839.6214   24289839.2074
     -2791.0784
  -3537676.00149  -2748571.54947  22349736.1844   22349733.8524
       311.7034
   8591490.67149   6685466.57247  21930071.4734   21930068.5314
     -3303.6094
   -550973.90248   -425566.69643  24559518.3404   24559517.5904
      -400.5784
  17229124.79246  13397083.40543  24747199.9414   24747198.4614
     -4936.2504
   1484482.55049   1155646.74948  21877184.5124   21877182.1764
      -891.7504
  -2844358.31748  -2206808.06145  23674583.0744   23674579.8244
      -339.4844
  -3056218.83748  -2381073.75144  24310268.0664   24310266.7934
      1586.4694
 04  9  9 22  7  0.0040000  0  8G 3G 8G13G10G23G27G19G28
   5693148.24848   4433660.48544  24297821.5274   24297821.3164
     -2800.7504
  -3542314.09949  -2752185.64547  22348853.3324   22348851.4104
       307.7034
   8641114.80849   6724134.71847  21939514.2694   21939511.3594
     -3312.0004
   -544883.53848   -420820.94743  24560677.3944   24560676.5354
      -410.4534
  17303204.85947  13454808.07143  24761296.6444   24761294.8594
     -4940.1094
   1497894.48749   1166097.61648  21879737.4414   21879734.4614
      -895.5004
  -2839189.90348  -2202780.70846  23675566.7774   23675562.9804
      -348.6414
  -3079975.73248  -2399585.58544  24305747.3404   24305745.8444
      1582.0004
 04  9  9 22  7 15.0040000  0  8G 3G 8G13G10G23G27G19G28
   5735231.33548   4466452.49444  24305830.0664   24305829.6524
     -2810.3914
  -3546900.31949  -2755759.31447  22347980.6764   22347978.5704
       303.7034
   8690854.64849   6762893.00748  21948979.8944   21948977.0274
     -3320.1414
   -538651.79747   -415965.05044  24561863.2624   24561862.5354
      -420.5784
  17377332.93447  13512570.14743  24775403.4184   24775401.7034
     -4943.7504
   1511353.53149   1176585.18648  21882298.3094   21882295.6254
      -899.0784
  -2833893.54248  -2198653.66346  23676574.2624   23676571.0944
      -357.6724
  -3103674.24048  -2418051.90144  24301237.7774   24301235.8484
      1577.6724
 04  9  9 22  7 30.0040000  0  8G 3G 8G13G10G23G27G19G28
   5777458.16548   4499356.51144  24313865.4024   24313865.0824
     -2819.9374
  -3551427.60649  -2759287.05447  22347119.0744   22347116.7114
       299.7034
   8740717.13849   6801746.87348  21958468.2854   21958465.3204
     -3328.3754
   -532271.66247   -410993.49843  24563076.8714   24563076.1254
      -430.4064
  17451515.78647  13570374.90343  24789519.9494   24789517.1844
     -4947.3754
   1524866.94549   1187115.11648  21884869.4964   21884867.0354
      -902.7974
  -2828461.91648  -2194421.21846  23677607.9104   23677604.2344
      -366.7344
  -3127307.09948  -2436467.04944  24296740.2934   24296738.8244
      1573.2664
 04  9  9 22  7 45.0040000  0  8G 3G 8G13G10G23G27G19G28
   5819823.71648   4532368.59844  24321927.3014   24321926.3714
     -2829.1414
  -3555900.68249  -2762772.56947  22346267.9264   22346266.0554
       296.3284
   8790697.32549   6840692.45548  21967979.1524   21967976.0354
     -3336.0004
   -525747.79748   -405909.95843  24564318.7934   24564318.0514
      -439.7194
  17525748.29847  13628218.34044  24803645.9024   24803643.4024
     -4950.5164
   1538429.72249   1197683.52648  21887450.8554   21887448.4224
      -905.8914
  -2822899.74048  -2190087.04345  23678666.6684   23678662.7384
      -375.1874
  -3150879.04848  -2454834.77244  24292254.5824   24292253.2424
      1569.4224
 04  9  9 22  8  0.0040000  0  8G 3G 8G13G10G23G27G19G28
   5862330.69048   4565490.92644  24330016.3164   24330015.7624
     -2838.6254
  -3560316.71949  -2766213.60947  22345427.6214   22345425.8204
       292.4534
   8840798.09049   6879731.99648  21977513.2074   21977510.2234
     -3344.1874
   -519077.25548   -400712.11143  24565588.2694   24565587.5354
      -449.6724
  17600033.20146  13686102.61843  24817781.8634   24817779.7464
     -4954.2034
   1552044.92649   1208292.76448  21890041.5194   21890038.9774
      -909.5164
  -2817203.94948  -2185648.74046  23679750.4964   23679746.6414
      -384.2814
  -3174387.09248  -2473152.67244  24287781.1134   24287779.4924
      1564.9534
 04  9  9 22  8 15.0040000  0  8G 3G 8G13G10G23G27G19G28
   5904979.27948   4598723.58544  24338131.7694   24338131.2544
     -2847.5314
  -3564675.25249  -2769609.86147  22344598.1604   22344596.2774
       289.0634
   8891019.55249   6918865.59348  21987069.8324   21987066.9534
     -3351.6874
   -512259.63148   -395399.68643  24566885.3244   24566884.3484
      -459.0314
  17674370.64047  13744027.82843  24831927.8484   24831925.3794
     -4957.0624
   1565712.88449   1218943.13248  21892642.4734   21892639.8324
      -912.5004
  -2811373.94348  -2181105.87146  23680859.9734   23680856.3364
      -392.7034
  -3197830.69547  -2491420.35444  24283319.9264   24283318.6374
      1561.1094
 04  9  9 22  8 30.0040000  0  8G 3G 8G13G10G23G27G19G28
   5947769.50948   4632066.61444  24346274.6294   24346274.2624
     -2857.2034
  -3568975.96949  -2772961.05747  22343779.8164   22343777.7384
       284.9694
   8941361.57649   6958093.12748  21996649.8794   21996646.7114
     -3359.9224
   -505294.80447   -389972.53943  24568211.2934   24568209.9374
      -469.0624
  17748760.55648  13801993.93543  24846083.9264   24846081.3244
     -4960.9224
   1579433.76249   1229634.73048  21895253.2304   21895251.1994
      -916.2814
  -2805409.40648  -2176458.16446  23681994.9344   23681990.8674
      -401.9694
  -3221209.56347  -2509637.58944  24278871.4494   24278869.5394
      1556.6564
 04  9  9 22  8 45.0040000  0  8G 3G 8G13G10G23G27G19G28
   5990698.19047   4665517.54044  24354443.8794   24354443.4884
     -2866.8124
  -3573222.02249  -2776269.65547  22342971.8324   22342969.9264
       280.8444
   8991821.22949   6997412.31848  22006251.9184   22006248.7934
     -3368.2664
   -498185.60347   -384432.88144  24569563.6914   24569562.9144
      -479.1414
  17823199.54647  13859998.28744  24860249.3324   24860246.7774
     -4964.6564
   1593204.57949   1240365.23348  21897874.0354   21897871.3284
      -920.1254
  -2799313.09348  -2171707.77346  23683154.8164   23683150.9694
      -411.2034
  -3244526.59648  -2527806.66244  24274434.2304   24274432.6254
      1552.0944
 04  9  9 22  9  0.0040000  0  8G 3G 8G13G10G23G27G19G28
   6033767.50548   4699078.01644  24362639.7544   24362639.2624
     -2876.0624
  -3577411.18849  -2779533.92647  22342174.7854   22342172.3634
       277.2344
   9042400.65449   7036824.83748  22015877.0124   22015873.7664
     -3376.0314
   -490929.57747   -378778.82944  24570944.6994   24570943.7504
      -488.6724
  17897689.80447  13918042.57043  24874424.1764   24874422.0274
     -4967.7664
   1607027.77149   1251136.55947  21900504.1604   21900501.7034
      -923.4374
  -2793082.49948  -2166852.76146  23684339.9344   23684336.2584
      -419.9534
  -3267779.23547  -2545925.54344  24270009.2544   24270007.6214
      1547.9384
 04  9  9 22  9 15.0040000  0  8G 3G 8G13G10G23G27G19G28
   6076972.79048   4732744.45844  24370861.3404   24370860.8324
     -2885.2974
  -3581547.47849  -2782756.99847  22341387.3944   22341385.1374
       273.5784
   9093095.33149   7076327.17447  22025523.8164   22025520.4414
     -3383.8754
   -483531.16447   -373013.81443  24572352.2154   24572351.4104
      -498.3124
  17972226.73747  13976123.24043  24888608.2774   24888605.6644
     -4970.9844
   1620898.88249   1261945.21848  21903143.7854   21903141.0864
      -926.7034
  -2786721.88648  -2161896.41146  23685550.8014   23685547.0784
      -428.8124
  -3290971.80247  -2563997.63544  24265595.7154   24265593.9414
      1543.7344
 04  9  9 22  9 30.0040000  0  8G 3G 8G13G10G23G27G19G28
   6120318.35948   4766520.23844  24379109.6524   24379109.0514
     -2894.7194
  -3585626.45449  -2785935.40547  22340611.2694   22340609.3674
       269.5784
   9143909.67649   7115922.74747  22035193.1524   22035190.1294
     -3391.9374
   -475985.71047   -367134.21243  24573788.3094   24573787.6804
      -508.2344
  18046814.58447  14034243.58943  24902801.4654   24902799.8244
     -4974.5474
   1634822.60649   1272794.88148  21905793.6844   21905791.0434
      -930.4064
  -2780226.50348  -2156835.05146  23686786.6444   23686782.9264
      -437.9064
  -3314099.65647  -2582019.27644  24261194.9574   24261193.1724
      1539.4064
 04  9  9 22  9 45.0040000  0  8G 3G 8G13G10G23G27G19G28
   6163807.67248   4800408.00744  24387385.3094   24387384.7034
     -2904.3444
  -3589644.62549  -2789066.44347  22339846.5274   22339844.6054
       265.6724
   9194847.05749   7155614.19547  22044886.3324   22044883.2894
     -3400.1564
   -468289.57347   -361137.22043  24575253.0194   24575251.7544
      -518.2974
  18121456.69347  14092406.20243  24917005.6524   24917003.1134
     -4978.1254
   1648802.32049   1283688.16848  21908453.9184   21908450.9964
      -934.0944
  -2773592.61948  -2151665.79346  23688049.4344   23688045.5904
      -447.1254
  -3337158.97648  -2599987.52644  24256806.5274   24256805.2544
      1534.9224
 04  9  9 22 10  0.0040000  0  8G 3G 8G13G10G23G27G19G28
   6207439.17847   4834406.56844  24395688.2694   24395687.1684
     -2913.2664
  -3593603.14749  -2792150.99247  22339093.1374   22339091.1804
       262.1724
   9245906.03449   7195400.39347  22054602.6764   22054599.7584
     -3407.6874
   -460443.94547   -355023.72543  24576745.6524   24576744.9064
      -527.8284
  18196151.38147  14150609.80343  24931219.8094   24931217.5354
     -4981.1254
   1662836.93049   1294624.22648  21911124.5594   21911121.8714
      -937.2974
  -2766821.46448  -2146389.54746  23689337.8164   23689334.2344
      -455.7664
  -3360151.06148  -2617903.39344  24252431.6444   24252429.9734
      1530.7664
 04  9  9 22 10 15.0040000  0  8G 3G 8G13G10G23G27G19G28
   6251204.70147   4868509.56844  24404016.0904   24404015.7464
     -2923.2034
  -3597510.02949  -2795195.30447  22338349.9024   22338347.6374
       257.8444
   9297078.48349   7235275.00548  22064340.4414   22064337.4534
     -3416.2344
   -452456.97448   -348800.10143  24578266.2464   24578265.0274
      -538.1564
  18270890.45947  14208847.97643  24945442.3714   24945439.7854
     -4984.9534
   1676918.29049   1305596.71947  21913804.0274   21913801.4884
      -941.2344
  -2759920.93048  -2141012.49946  23690651.2304   23690647.3944
      -465.3594
  -3383083.87248  -2635773.06944  24248067.6914   24248065.7934
      1525.9534
 04  9  9 22 10 30.0040000  0  8G 3G 8G13G10G23G27G19G28
   6295113.80147   4902724.43744  24412372.2774   24412371.9024
     -2931.5944
  -3601355.60949  -2798191.85047  22337618.1374   22337615.6294
       254.7504
   9348374.08549   7275245.59147  22074101.3944   22074098.8874
     -3423.3284
   -444318.68048   -342458.57144  24579814.1764   24579813.3244
      -547.1094
  18345683.35347  14267128.06743  24959674.5744   24959672.9614
     -4987.5314
   1691056.22449   1316613.29347  21916494.3094   21916491.8204
      -943.9224
  -2752880.95248  -2135526.78046  23691990.6214   23691986.7074
      -473.4844
  -3405947.34248  -2653588.70844  24243716.4494   24243714.4144
      1522.3914
 04  9  9 22 10 45.0040000  0  8G 3G 8G13G10G23G27G19G28
   6339157.92747   4937044.52344  24420753.9494   24420752.7154
     -2941.2814
  -3605148.06449  -2801146.99847  22336896.3094   22336893.7504
       250.6414
   9399784.26449   7315305.44747  22083884.7544   22083882.0274
     -3431.5624
   -436037.34148   -336005.57443  24581389.9574   24581388.9344
      -557.2664
  18420521.63546  14325443.56643  24973916.5744   24973913.9414
     -4991.1254
   1705242.54149   1327667.57148  21919193.8324   21919191.4734
      -947.8124
  -2745709.69648  -2129938.78846  23693355.1214   23693351.1684
      -482.8594
  -3428749.74348  -2671356.76444  24239376.8944   24239375.8484
      1517.5784
 04  9  9 22 11  0.0040000  0  8G 3G 8G13G10G23G27G19G28
   6383336.21347   4971469.17143  24429160.3164   24429159.0944
     -2950.1564
  -3608888.01849  -2804061.23247  22336184.6844   22336182.1604
       247.1094
   9451308.30249   7355454.03047  22093689.6134   22093686.3634
     -3439.1724
   -427613.55448   -329441.55944  24582993.0274   24582992.2274
      -566.7344
  18495404.36947  14383793.66243  24988165.5744   24988163.5234
     -4994.1094
   1719476.56849   1338759.01747  21921902.4574   21921900.3284
      -950.9224
  -2738407.56248  -2124248.79246  23694744.8244   23694741.0744
      -491.6564
  -3451491.53048  -2689077.58144  24235049.6444   24235048.0984
      1513.5944
 04  9  9 22 11 15.0040000  0  8G 3G 8G13G10G23G27G19G28
   6427655.97147   5006004.03344  24437594.1604   24437593.2344
     -2959.1724
  -3612567.89749  -2806928.66047  22335484.3794   22335482.0124
       243.5474
   9502953.44849   7395696.98548  22103517.3404   22103514.5864
     -3446.9064
   -419039.85148   -322760.74943  24584625.0354   24584623.6334
      -576.3594
  18570338.72446  14442183.99243  25002425.5044   25002423.1764
     -4997.1094
   1733765.79849   1349893.48347  21924621.9264   21924619.1994
      -954.2974
  -2730967.00148  -2118450.93846  23696160.9344   23696156.9264
      -500.4844
  -3474165.10448  -2706745.25544  24230735.2464   24230733.5664
      1509.5634
 04  9  9 22 11 30.0040000  0  8G 3G 8G13G10G23G27G19G28
   6472114.19247   5040646.80543  24446054.0594   24446053.0594
     -2969.0314
  -3616190.60749  -2809751.53647  22334795.0124   22334792.8244
       239.1094
   9554716.84849   7436032.08648  22113367.5194   22113364.6134
     -3455.4224
   -410319.00147   -315965.27243  24586283.7464   24586283.2974
      -586.8444
  18645321.71146  14500612.22743  25016694.2544   25016692.3674
     -5001.0784
   1748107.35749   1361068.72547  21927350.9344   21927348.0354
      -958.4064
  -2723390.72148  -2112547.33746  23697602.6294   23697598.2814
      -510.1414
  -3496773.18348  -2724361.91044  24226432.4184   24226431.1444
      1504.4694
 04  9  9 22 11 45.0040000  0  8G 3G 8G13G10G23G27G19G28
   6516710.06347   5075396.82643  24454540.4574   24454539.7504
     -2977.3914
  -3619756.70349  -2812530.30148  22334116.2154   22334114.3204
       236.0944
   9606597.71449   7476458.72947  22123239.8094   22123237.3324
     -3462.4064
   -401451.61047   -309055.59943  24587971.5904   24587970.4534
      -595.7974
  18720352.45847  14559077.69543  25030972.1374   25030969.7624
     -5003.4064
   1762500.72849   1372284.34547  21930089.9264   21930087.0984
      -961.0314
  -2715679.17348  -2106538.31446  23699070.2544   23699065.6844
      -518.3914
  -3519316.32148  -2741927.93744  24222143.3554   24222141.3284
      1500.9384
 04  9  9 22 12  0.0040000  0  8G 3G 8G13G10G23G27G19G28
   6561446.29047   5110256.21643  24463053.3944   24463052.5044
     -2986.9374
  -3623262.97549  -2815262.44647  22333449.1444   22333447.1844
       231.8594
   9658598.86549   7516979.08847  22133135.7074   22133132.7034
     -3470.5784
   -392434.65747   -302029.39343  24589687.3244   24589686.8594
      -606.0164
  18795433.60247  14617582.37943  25045259.5664   25045257.8754
     -5006.9534
   1776948.79049   1383542.57947  21932839.2384   21932836.8554
      -964.9534
  -2707829.22048  -2100421.46246  23700563.9184   23700559.8834
      -527.8754
  -3541791.43148  -2759440.97145  24217865.8244   24217864.4694
      1496.1414
 04  9  9 22 12 15.0040000  0  8G 3G 8G13G10G23G27G19G28
   6606321.35948   5145223.78543  24471593.0824   24471592.2694
     -2996.6094
  -3626711.29849  -2817949.44147  22332792.9494   22332790.8834
       227.7034
   9710718.55049   7557591.79948  22143053.7154   22143050.6804
     -3478.9374
   -383269.43547   -294887.65643  24591431.1764   24591430.1564
      -616.2974
  18870563.43146  14676125.05243  25059556.6294   25059554.2194
     -5010.5944
   1791450.33249   1394842.48948  21935598.9804   21935596.2154
      -968.8124
  -2699842.18548  -2094197.77746  23702083.5124   23702079.3944
      -537.3754
  -3564199.75648  -2776901.93145  24213601.9964   24213600.6024
      1491.4224
 04  9  9 22 12 30.0040000  0  8G 3G 8G13G10G23G27G19G28
   6651335.06747   5180299.40143  24480158.4184   24480158.1524
     -3005.3594
  -3630101.34549  -2820591.02447  22332147.9654   22332145.8524
       224.1884
   9762956.89849   7598296.97848  22152994.5744   22152991.4454
     -3486.2814
   -373955.88247   -287630.32843  24593203.4734   24593202.7774
      -625.6724
  18945741.87346  14734705.59143  25073862.1994   25073860.7034
     -5013.2504
   1806005.34449   1406184.04648  21938368.5124   21938366.5164
      -971.9374
  -2691717.64948  -2087866.95646  23703629.6684   23703625.7234
      -546.0164
  -3586540.99747  -2794310.64344  24209350.5904   24209348.7274
      1487.3594
 04  9  9 22 12 45.0040000  0  8G 3G 8G13G10G23G27G19G28
   6696480.09947   5215477.34944  24488749.7234   24488748.6844
     -3014.2034
  -3633439.85949  -2823192.44547  22331512.4184   22331510.2624
       220.6724
   9815306.69449   7639089.01648  22162956.3874   22162953.5394
     -3493.8754
   -364500.99947   -280262.87143  24595002.7694   24595001.9104
      -635.2344
  19020961.60546  14793318.27743  25088175.7854   25088174.5354
     -5016.1254
   1820606.76449   1417561.79048  21941146.8244   21941144.5624
      -975.1724
  -2683462.59148  -2081434.42946  23705200.3244   23705196.7814
      -554.8914
  -3608822.16248  -2811672.53645  24205110.2934   24205108.5474
      1483.2344
 04  9  9 22 13  0.0040000  0  8G 3G 8G13G10G23G27G19G28
   6741758.81247   5250759.45843  24497366.2774   24497365.6524
     -3022.6414
  -3636724.54049  -2825751.92547  22330887.6684   22330885.7774
       217.6724
   9867770.30449   7679969.72548  22172939.5044   22172936.6954
     -3500.9534
   -354902.20148   -272783.27643  24596830.0354   24596828.9064
      -644.2664
  19096224.88946  14851964.91143  25102498.1844   25102497.0664
     -5018.5944
   1835257.25849   1428977.76848  21943934.9184   21943932.2664
      -977.8444
  -2675074.35148  -2074898.11846  23706796.8094   23706792.4184
      -563.2664
  -3631040.64447  -2828985.59845  24200882.4884   24200880.5394
      1479.5474
 04  9  9 22 13 15.0040000  0  8G 3G 8G13G10G23G27G19G28
   6787173.11347   5286147.19944  24506008.2234   24506007.1564
     -3031.6564
  -3639953.15949  -2828267.72847  22330272.9734   22330270.7344
       213.7504
   9920349.54649   7720940.54048  22182944.9494   22182942.1644
     -3508.7504
   -345157.28948   -265189.84443  24598683.8794   24598682.8244
      -654.1564
  19171533.47646  14910646.86843  25116829.5044   25116827.6414
     -5021.7974
   1849958.82049   1440433.52947  21946732.5354   21946730.2154
      -981.3754
  -2666550.64948  -2068256.26346  23708418.3164   23708414.6804
      -572.4224
  -3653194.11648  -2846248.00345  24196666.7774   24196664.9264
      1475.0164
 04  9  9 22 13 30.0040000  0  8G 3G 8G13G10G23G27G19G28
   6832720.91448   5321639.00143  24514675.9574   24514674.9884
     -3041.1094
  -3643127.85749  -2830741.50547  22329668.9654   22329666.9184
       209.7034
   9973042.40349   7761999.89047  22192972.2624   22192969.5554
     -3516.8124
   -335268.23247   -257484.06243  24600565.5194   24600565.0084
      -664.2814
  19246885.25147  14969362.46243  25131168.3794   25131166.8124
     -5025.0624
   1864709.63449   1451927.66848  21949539.8164   21949536.9104
      -985.2194
  -2657893.31348  -2061510.25746  23710066.0354   23710062.1914
      -581.7344
  -3675284.50148  -2863461.24845  24192463.1604   24192461.3164
      1470.4064
 04  9  9 22 13 45.0040000  0  8G 3G 8G13G10G23G27G19G28
   6878406.69848   5357238.31143  24523369.7544   24523368.6604
     -3050.3594
  -3646243.46949  -2833169.23847  22329076.0514   22329074.0084
       205.6884
  10025853.53649   7803151.41047  22203021.9734   22203018.8834
     -3524.7344
   -325230.19948   -249662.20943  24602475.6524   24602475.0554
      -674.2034
  19322284.74747  15028115.20843  25145516.6604   25145515.0704
     -5028.1414
   1879514.51249   1463463.93747  21952356.7774   21952354.2034
      -988.8594
  -2649097.35448  -2054656.25046  23711739.7934   23711736.0514
      -591.0474
  -3697306.78248  -2880621.40845  24188272.3324   24188270.7114
      1465.8594
 04  9  9 22 14  0.0040000  0  8G 3G 8G13G10G23G27G19G28
   6924232.55148   5392946.75444  24532089.2774   24532088.7344
     -3059.4224
  -3649297.60749  -2835549.08047  22328494.9654   22328492.3444
       201.8754
  10078785.24349   7844396.88147  22213094.5904   22213091.5044
     -3532.5004
   -315040.77848   -241722.39643  24604414.7774   24604413.9494
      -684.0314
  19397734.00746  15086906.78043  25159874.4184   25159872.7304
     -5031.2194
   1894375.82049   1475044.19447  21955184.9344   21955182.1874
      -992.3444
  -2640160.32848  -2047692.32546  23713440.5824   23713436.7814
      -600.2344
  -3719258.44448  -2897726.55245  24184095.0354   24184093.5594
      1461.3594
 04  9  9 22 14 15.0040000  0  8G 3G 8G13G10G23G27G19G28
   6970186.95948   5428755.38143  24540834.6684   24540833.4654
     -3068.3444
  -3652301.65249  -2837889.88448  22327923.2304   22327921.3554
       198.1564
  10131825.84249   7885727.19547  22223187.7234   22223185.0784
     -3540.1414
   -304711.35847   -233673.51043  24606380.5274   24606379.4184
      -693.7194
  19473221.60346  15145728.19243  25174239.2544   25174237.4104
     -5034.2034
   1909282.20049   1486659.55747  21958021.4184   21958018.9494
      -995.6564
  -2631093.44748  -2040627.20946  23715165.6764   23715161.9374
      -609.1874
  -3741150.93748  -2914785.59845  24179929.0434   24179927.2234
      1457.1564
 04  9  9 22 14 30.0040000  0  8G 3G 8G13G10G23G27G19G28
   7016278.80048   5464671.09544  24549605.7774   24549604.8094
     -3077.3594
  -3655246.66549  -2840184.68348  22327362.9574   22327360.8524
       194.3444
  10184984.27649   7927149.32947  22233303.8244   22233300.8834
     -3547.9064
   -294232.87948   -225508.44443  24608374.7934   24608373.8164
      -703.6254
  19548756.21146  15204586.26443  25188613.0904   25188611.2304
     -5037.2194
   1924242.78149   1498317.13647  21960868.2934   21960865.9774
      -999.2034
  -2621887.37748  -2033453.61646  23716917.5744   23716914.1484
      -618.3754
  -3762974.93848  -2931791.26245  24175776.0354   24175774.0984
      1452.6884
 04  9  9 22 14 45.0040000  0  8G 3G 8G13G10G23G27G19G28
   7062507.79248   5500693.67544  24558402.5044   24558401.6484
     -3086.2194
  -3658132.63249  -2842433.47247  22326813.5594   22326811.7624
       190.6724
  10238260.21349   7968663.04647  22243441.8634   22243438.7854
     -3555.2814
   -283605.24847   -217227.15643  24610396.8094   24610395.9414
      -713.1874
  19624337.53046  15263480.70643  25202994.9344   25202994.1254
     -5040.0624
   1939257.54249   1510016.96548  21963725.5664   21963722.8674
     -1002.4694
  -2612542.09648  -2026171.56546  23718696.1214   23718691.9734
      -627.3754
  -3784730.46748  -2948743.58045  24171636.1134   24171634.4104
      1448.3134
 04  9  9 22 15  0.0040000  0  8G 3G 8G13G10G23G27G19G28
   7108870.62048   5536820.54544  24567224.8944   24567224.4374
     -3095.8284
  -3660962.65649  -2844638.67847  22326275.2074   22326272.9774
       186.2974
  10291650.70149   8010266.00247  22253601.4344   22253598.3244
     -3563.7194
   -272831.59147   -208832.10343  24612446.9264   24612446.1684
      -723.6414
  19699962.21647  15322408.97243  25217386.1214   25217385.1094
     -5043.5944
   1954323.43849   1521756.63147  21966592.6524   21966589.7464
     -1006.6094
  -2603060.50148  -2018783.29346  23720500.5124   23720496.4374
      -637.1874
  -3806420.32048  -2965644.72545  24167508.4574   24167506.9844
      1443.2344
 04  9  9 22 15 15.0040000  0  8G 3G 8G13G10G23G27G19G28
   7155374.33948   5573057.19643  24576075.1294   24576073.4574
     -3105.2034
  -3663729.45049  -2846794.60847  22325748.5514   22325746.1764
       182.1094
  10345162.61949   8051963.58747  22263784.7934   22263781.3444
     -3571.7664
   -261904.74948   -200317.68043  24614526.6844   24614525.5274
      -733.7664
  19775637.18646  15381376.41043  25231786.6374   25231785.3164
     -5046.9844
   1969447.58449   1533541.68447  21969470.5744   21969467.8524
     -1010.4694
  -2593435.31848  -2011283.12946  23722332.0044   23722328.0904
      -646.7034
  -3828037.16848  -2982488.97745  24163394.9344   24163392.9924
      1438.4384
 04  9  9 22 15 30.0040000  0  8G 3G 8G13G10G23G27G19G28
   7202016.21648   5609401.50844  24584950.2304   24584949.3554
     -3114.0164
  -3666435.29349  -2848903.05647  22325233.6294   22325231.3524
       178.4224
  10398793.47849   8093753.85347  22273990.2234   22273987.6214
     -3579.3284
   -250827.01147   -191685.68143  24616634.6214   24616633.2384
      -743.5164
  19851359.81647  15440380.96643  25246196.5194   25246195.7034
     -5049.7504
   1984627.83349   1545370.44947  21972359.4414   21972356.6994
     -1013.8444
  -2583668.78948  -2003672.84446  23724190.2854   23724186.3324
      -655.7974
  -3849583.44848  -2999278.25045  24159294.6604   24159292.7854
      1434.0944
 04  9  9 22 15 45.0040000  0  8G 3G 8G13G10G23G27G19G28
   7248792.71548   5645850.72044  24593851.5594   24593851.0744
     -3123.5314
  -3669083.30849  -2850966.42847  22324729.7304   22324727.0164
       173.9844
  10452539.73749   8135634.04348  22284217.8094   22284215.1134
     -3587.5474
   -239601.62347   -182938.61643  24618770.4654   24618769.3054
      -753.8594
  19927126.47447  15499419.86743  25260614.7304   25260613.2234
     -5053.2344
   1999860.69949   1557240.22447  21975257.9414   21975255.7464
     -1017.8594
  -2573764.13748  -1995954.90946  23726075.2074   23726071.2734
      -665.4844
  -3871062.39948  -3016015.05245  24155207.4574   24155205.4414
      1429.1094
 04  9  9 22 16  0.0040000  0  8G 3G 8G13G10G23G27G19G28
   7295704.71348   5682405.51944  24602778.7154   24602777.4494
     -3131.6874
  -3671672.65349  -2852984.09648  22324237.0274   22324234.6804
       171.0004
  10506402.27449   8177604.82147  22294467.4964   22294464.5864
     -3594.4374
   -228227.58447   -174075.72143  24620934.7774   24620933.7304
      -763.0474
  20002937.96647  15558493.67843  25275041.3714   25275039.3124
     -5055.2344
   2015147.23849   1569151.80447  21978166.8554   21978164.1804
     -1020.6254
  -2563720.14248  -1988128.40746  23727986.4734   23727982.5434
      -673.9694
  -3892472.73148  -3032698.39745  24151133.1134   24151131.1174
      1425.4224
 04  9  9 22 16 15.0040000  0  8G 3G 8G13G10G23G27G19G28
   7342751.40748   5719065.26244  24611730.9574   24611730.2694
     -3141.4064
  -3674203.87649  -2854956.47647  22323755.2694   22323752.9654
       166.2664
  10560380.20849   8219665.54847  22304739.2544   22304736.1214
     -3602.8594
   -216705.50847   -165097.49743  24623126.9734   24623125.9654
      -773.5474
  20078793.51746  15617601.82643  25289476.1604   25289474.5664
     -5059.0164
   2030487.07049   1581104.93447  21981086.0594   21981082.8944
     -1024.9064
  -2553537.24448  -1980193.66546  23729924.2074   23729920.2544
      -683.9844
  -3913814.91948  -3049328.62545  24147071.5984   24147069.6844
      1420.0944
 04  9  9 22 16 30.0040000  0  8G 3G 8G13G10G23G27G19G28
   7389930.34848   5755828.06144  24620709.6444   24620707.8164
     -3150.1254
  -3676679.12849  -2856885.22948  22323284.3164   22323282.2304
       162.7664
  10614471.19449   8261814.34647  22315032.3554   22315029.3674
     -3610.2194
   -205037.58047   -156005.58943  24625347.7544   24625346.5784
      -783.2194
  20154690.62347  15676742.33343  25303919.0354   25303917.4104
     -5061.6564
   2045877.84949   1593097.74747  21984014.6604   21984012.2504
     -1028.1724
  -2543217.50748  -1972152.29946  23731888.3634   23731884.2584
      -693.0474
  -3935091.07948  -3065907.42245  24143022.6214   24143020.8594
      1415.7974
 04  9  9 22 16 45.0040000  0  8G 3G 8G13G10G23G27G19G28
   7437243.87548   5792695.74244  24629713.2074   24629711.3524
     -3158.5784
  -3679095.74349  -2858768.28948  22322824.0514   22322821.8914
       159.1884
  10668677.86249   8304053.29347  22325347.6374   22325344.5864
     -3617.5164
   -193221.07747   -146797.91243  24627596.7234   24627594.8054
      -792.6414
  20230631.47346  15735916.95143  25318369.9734   25318368.1024
     -5064.0624
   2061322.27749   1605132.36247  21986953.4104   21986950.9534
     -1031.3594
  -2532758.25149  -1964002.20446  23733878.6764   23733874.3204
      -701.8754
  -3956298.55548  -3082432.68645  24138987.3164   24138985.2234
      1411.6094
 04  9  9 22 17  0.0040000  0  8G 3G 8G13G10G23G27G19G28
   7484694.78748   5829670.47444  24638742.4264   24638741.6334
     -3167.7194
  -3681450.73649  -2860603.34448  22322376.1604   22322374.2074
       155.1724
  10723002.97949   8346384.53147  22335685.2544   22335682.7664
     -3625.3594
   -181252.98347   -137472.10643  24629873.9654   24629872.6724
      -802.7344
  20306618.95547  15795127.91743  25332830.1524   25332828.4734
     -5067.1724
   2076823.35149   1617211.11747  21989903.5824   21989900.9534
     -1035.0314
  -2522156.26648  -1955740.91146  23735895.8634   23735891.7854
      -711.3754
  -3977434.14248  -3098901.94645  24134965.2934   24134963.1954
      1406.9064
 04  9  9 22 17 15.0040000  0  8G 3G 8G13G10G23G27G19G28
   7532277.17948   5866747.66544  24647797.0434   24647795.7584
     -3176.8914
  -3683749.63749  -2862394.67848  22321938.4654   22321936.6024
       151.0474
  10777440.67549   8388803.49148  22346044.6604   22346041.5084
     -3633.2504
   -169139.13847   -128032.76243  24632179.1294   24632177.6564
      -812.7194
  20382647.10846  15854370.56443  25347297.0984   25347296.6604
     -5070.2814
   2092375.38549   1629329.59147  21992862.6764   21992860.0124
     -1038.8284
  -2511417.24748  -1947372.81046  23737939.2854   23737935.4654
      -720.8284
  -3998503.44448  -3115319.55345  24130956.0434   24130953.8794
      1402.0474
 04  9  9 22 17 30.0040000  0  8G 3G 8G13G10G23G27G19G28
   7579991.70148   5903927.80244  24656876.6134   24656875.7694
     -3185.3444
  -3685991.62249  -2864141.67548  22321512.1054   22321510.3244
       147.5634
  10831991.62949   8431310.70747  22356425.1604   22356422.3754
     -3640.5164
   -156878.53347   -118479.02643  24634512.0044   24634511.0824
      -822.3124
  20458716.60946  15913645.40043  25361773.1684   25361772.0474
     -5072.6874
   2107979.35349   1641488.52948  21995832.4574   21995829.6214
     -1041.9844
  -2500540.06348  -1938897.07546  23740009.1444   23740005.5274
      -729.7344
  -4019505.37548  -3131684.64844  24126959.1844   24126957.2934
      1397.8754
 04  9  9 22 17 45.0040000  0  7G 3G 8G13G10G27G19G28
   7627837.67448   5941210.37044  24665981.8714   24665980.0124
     -3194.2504
  -3688177.04149  -2865844.60248  22321096.2384   22321093.9574
       143.6564
  10886655.16649   8473905.65947  22366827.4494   22366824.4654
     -3648.1094
   -144471.53447   -108811.22643  24636872.8324   24636871.7424
      -832.1254
   2123634.83749   1653687.62147  21998811.4494   21998808.6214
     -1045.5004
  -2489525.04348  -1930313.93446  23742105.3164   23742101.6524
      -739.0944
  -4040440.34748  -3147997.57844  24122975.6684   24122973.3874
      1393.3594
 04  9  9 22 18  0.0040000  0  7G 3G 8G13G10G27G19G28
   7675813.85048   5978594.39944  24675111.3634   24675110.0274
     -3202.5004
  -3690307.14549  -2867504.39948  22320691.0194   22320689.1334
       140.4064
  10941430.17149   8516587.47147  22377250.7774   22377247.5394
     -3655.1094
   -131919.31847    -99030.27743  24639261.3634   24639260.1134
      -841.3124
   2139340.74349   1665925.99148  22001800.0984   22001797.6564
     -1048.3914
  -2478373.09149  -1921624.07546  23744227.1134   23744223.6764
      -747.7504
  -4061309.23048  -3164259.00344  24119004.3324   24119002.4574
      1389.3134
 04  9  9 22 18 15.0040000  0  7G 3G 8G13G10G27G19G28
   7723924.23848   6016083.01143  24684265.6604   24684265.0194
     -3212.1254
  -3692377.15849  -2869117.39148  22320296.7234   22320294.8284
       135.6884
  10996320.80749   8559359.38047  22387695.9734   22387693.1414
     -3663.5314
   -119217.42047    -89132.70043  24641679.0194   24641677.9104
      -852.1254
   2155101.53749   1678207.12948  22004799.3244   22004796.4344
     -1052.8444
  -2467079.82848  -1912824.11346  23746376.1604   23746372.5434
      -757.8914
  -4082107.72648  -3180465.59145  24115046.7774   24115044.3634
      1383.9064
 04  9  9 22 18 30.0040000  0  7G 3G 8G13G10G27G19G28
   7772171.34648   6053678.15144  24693446.6914   24693446.1914
     -3220.4844
  -3694384.60849  -2870681.63748  22319915.1604   22319912.7114
       132.2814
  11051329.62849   8602223.37447  22398163.8874   22398161.0594
     -3670.6874
   -106363.13547    -79116.35543  24644124.8874   24644123.7854
      -861.3444
   2170919.92549   1690533.14948  22007809.7074   22007806.8914
     -1055.9374
  -2455642.18648  -1903911.64946  23748552.8484   23748548.6414
      -766.7974
  -4102832.92948  -3196615.06845  24111102.3404   24111100.0824
      1379.8134
 04  9  9 22 18 45.0040000  0  7G 3G 8G13G10G27G19G28
   7820546.99348   6091373.44844  24702652.6444   24702651.7274
     -3229.5784
  -3696337.36849  -2872203.26348  22319543.2234   22319540.9804
       128.0944
  11106448.42149   8645173.07547  22408652.8164   22408649.6644
     -3678.5314
    -93364.44748    -68987.50343  24646598.2384   24646597.0274
      -871.6874
   2186788.00449   1702897.89048  22010828.9184   22010826.4884
     -1059.8754
  -2444068.21048  -1894892.94746  23750755.4184   23750751.5824
      -776.4224
  -4123492.72048  -3212713.58545  24107171.4264   24107169.2304
      1374.8594
 04  9  9 22 19  0.0040000  0  7G 3G 8G13G10G27G19G28
   7869054.84848   6129171.76644  24711882.8944   24711882.8324
     -3238.2194
  -3698231.45849  -2873679.16748  22319182.9654   22319180.7504
       124.3444
  11161680.90249   8688211.35647  22419163.2544   22419159.8714
     -3685.9374
    -80217.50047    -58743.11643  24649100.3164   24649099.3364
      -881.3284
   2202709.67949   1715304.38548  22013858.9344   22013856.1094
     -1063.2504
  -2432353.85948  -1885764.87546  23752984.5194   23752980.0394
      -785.5944
  -4144082.89048  -3228757.83544  24103252.8794   24103251.2664
      1370.2814
 04  9  9 22 19 15.0040000  0  7G 3G 8G13G10G27G19G28
   7917696.38848   6167074.27244  24721139.8324   24721138.9964
     -3247.4224
  -3700065.09649  -2875107.96948  22318834.0664   22318831.9964
       120.0784
  11217028.69049   8731339.49947  22429695.6294   22429692.6134
     -3693.7814
    -66920.46947    -48381.79343  24651630.7304   24651629.5274
      -891.7034
   2218686.67849   1727753.99247  22016899.1054   22016896.1094
     -1067.1564
  -2420497.31248  -1876525.98446  23755240.6764   23755236.4184
      -795.3594
  -4164601.72148  -3244746.49245  24099348.5744   24099346.2974
      1365.3444
 04  9  9 22 19 30.0040000  0  7G 3G 8G13G10G27G19G28
   7966472.51048   6205081.61444  24730421.4344   24730420.7194
     -3256.0624
  -3701837.15849  -2876488.78948  22318496.8094   22318494.7424
       116.1884
  11272492.65549   8774558.15747  22440250.1914   22440246.7774
     -3701.2664
    -53472.28247    -37902.69743  24654189.8324   24654188.5704
      -901.3754
   2234720.24249   1740247.69348  22019950.1444   22019947.3284
     -1070.6724
  -2408497.26648  -1867175.28546  23757524.1994   23757520.0624
      -804.6874
  -4185047.97248  -3260678.60545  24095457.7694   24095455.4734
      1360.7504
 04  9  9 22 19 45.0040000  0  7G 3G 8G13G10G27G19G28
   8015382.22448   6243193.04544  24739728.5124   24739727.8554
     -3265.2504
  -3703548.33749  -2877822.16948  22318171.0984   22318168.7504
       111.8914
  11328071.99449   8817866.73047  22450826.3164   22450823.1564
     -3709.2974
    -39873.66447    -27306.37143  24656777.5274   24656776.4374
      -911.7664
   2250809.68449   1752784.93547  22023011.8874   22023009.3284
     -1074.6564
  -2396354.30548  -1857713.23546  23759834.5664   23759830.5864
      -814.4694
  -4205422.28848  -3276554.67045  24091580.4654   24091578.0624
      1355.7194
 04  9  9 22 20  0.0040000  0  7G 3G 8G13G10G27G19G28
   8064423.17648   6281406.77143  24749060.7774   24749060.1444
     -3274.1094
  -3705200.62749  -2879109.66648  22317856.6294   22317854.6874
       107.8444
  11383764.27249   8861263.28247  22461424.2154   22461421.1134
     -3716.9224
    -26126.84547    -16594.55343  24659393.4184   24659392.1094
      -921.6874
   2266952.85149   1765364.02147  22026084.0194   22026080.7694
     -1078.3754
  -2384070.53248  -1848141.44646  23762172.3404   23762168.4844
      -823.9374
  -4225726.66548  -3292376.23445  24087716.6604   24087714.6054
      1350.9064
 04  9  9 22 20 15.0040000  0  7G 3G 8G13G10G27G19G28
   8113593.85948   6319721.59543  24758417.4964   24758417.0864
     -3282.3284
  -3706795.34149  -2880352.27748  22317553.2544   22317550.8554
       104.4384
  11439568.07849   8904746.76647  22472043.1444   22472040.2584
     -3723.9224
    -12233.00647     -5768.16643  24662037.0434   24662036.0124
      -931.2034
   2283148.45949   1777983.97247  22029165.8094   22029163.5314
     -1081.3594
  -2371647.07849  -1838460.81946  23764536.7154   23764532.3944
      -832.8754
  -4245962.35948  -3308144.27545  24083865.7074   24083863.8914
      1346.8134
 04  9  9 22 20 30.0040000  0  7G 3G 8G13G10G27G19G28
   8162897.65048   6358140.10243  24767799.9654   24767799.3094
     -3291.4224
  -3708328.63849  -2881547.05448  22317261.6684   22317259.1644
       100.1254
  11495487.01449   8948319.94347  22482684.3014   22482681.3714
     -3731.8124
      1811.46947      5175.58843  24664710.0664   24664708.7504
      -941.3594
   2299400.31649   1790647.76847  22032258.4104   22032256.0194
     -1085.3284
  -2359080.12848  -1828668.37446  23766927.7854   23766923.5354
      -842.5944
  -4266125.52048  -3323855.79045  24080028.9574   24080027.0744
      1341.7194
 04  9  9 22 20 45.0040000  0  7G 3G 8G13G10G27G19G28
   8212337.54848   6396664.69643  24777208.0044   24777207.0354
     -3300.0164
  -3709797.52849  -2882691.62948  22316981.9414   22316979.9694
        96.2504
  11551524.01549   8991985.12447  22493347.9104   22493345.2624
     -3739.2344
     16009.69547     16239.14943  24667411.4494   24667410.6134
      -951.1564
   2315711.53249   1803357.80147  22035362.4344   22035359.7424
     -1088.8754
  -2346366.36948  -1818761.52546  23769347.3164   23769343.3014
      -852.0164
  -4286212.86648  -3339508.23145  24076206.3714   24076204.3914
      1337.0784
 04  9  9 22 21  0.0040000  0  7G 3G 8G13G10G27G19G28
   8261899.27848   6435284.21243  24786639.3794   24786638.5664
     -3308.2504
  -3711215.80049  -2883796.76548  22316711.9574   22316709.9884
        92.7344
  11607664.91649   9035731.27147  22504030.9804   22504028.2504
     -3746.2664
     30347.89947     27411.77443  24670139.7774   24670139.4694
      -960.5944
   2332068.28649   1816103.33047  22038475.0434   22038472.1334
     -1091.9844
  -2333519.66348  -1808751.09146  23771791.6764   23771787.7734
      -860.8444
  -4306238.08248  -3355112.26645  24072395.9344   24072393.8794
      1332.8444
 04  9  9 22 21 15.0040000  0  7G 3G 8G13G10G27G19G28
   8311596.44648   6474009.27343  24796096.3484   24796095.7584
     -3317.0004
  -3712569.53249  -2884851.62148  22316454.7624   22316452.4184
        88.7344
  11663923.33949   9079568.98247  22514736.8404   22514733.6954
     -3753.7974
     44839.91447     38704.25443  24672897.8554   24672897.2504
      -970.6094
   2348484.39849   1828895.09547  22041598.8324   22041596.3444
     -1095.7664
  -2320525.98148  -1798626.13446  23774264.3404   23774260.6054
      -870.4844
  -4326187.39948  -3370657.16445  24068599.3404   24068597.3634
      1328.0634
 04  9  9 22 21 30.0040000  0  7G 3G 8G13G10G27G19G28
   8361423.36548   6512835.43243  24805578.2304   24805577.3714
     -3326.3594
  -3713864.11749  -2885860.37148  22316207.9024   22316205.5944
        84.1254
  11720293.72149   9123493.94047  22525463.7154   22525460.8054
     -3762.0474
     59480.06147     50112.18243  24675683.8404   24675683.0164
      -981.2504
   2364954.51549   1841728.95947  22044733.0594   22044730.5744
     -1100.0624
  -2307390.77648  -1788390.88646  23776763.9574   23776759.9844
      -880.6724
  -4346066.09748  -3386147.01945  24064816.5124   24064814.2234
      1322.6254
 04  9  9 22 21 45.0040000  0  7G 3G 8G13G10G27G19G28
   8411380.15548   6551762.78243  24815084.8244   24815083.9064
     -3334.9534
  -3715099.28349  -2886822.84248  22315972.9574   22315970.5084
        80.1254
  11776776.17649   9167506.24147  22536211.7934   22536208.7234
     -3769.4534
     74268.81147     61635.86643  24678497.5194   24678496.5164
      -991.1254
   2381478.99549   1854605.20347  22047877.3404   22047875.2074
     -1103.6254
  -2294113.56048  -1778045.00546  23779290.8404   23779286.4494
      -890.0474
  -4365873.76348  -3401581.54745  24061046.7624   24061044.5984
      1317.9384
 04  9  9 22 22  0.0040000  0  7G 3G 8G13G10G27G19G28
   8461466.49948   6590791.07343  24824615.7304   24824614.5044
     -3343.3444
  -3716274.90949  -2887738.89948  22315749.4494   22315747.4024
        76.4534
  11833370.52549   9211605.71247  22546981.4344   22546978.3324
     -3776.6094
     89206.04748     73275.27943  24681340.2074   24681339.0474
     -1000.6254
   2398057.73949   1867523.69047  22051032.4024   22051029.7694
     -1106.9844
  -2280694.33248  -1767588.44246  23781843.9734   23781840.2854
      -899.3124
  -4385610.27449  -3416960.61145  24057291.3794   24057288.7934
      1313.4384
 04  9  9 22 22 15.0040000  0  7G 3G 8G13G10G27G19G28
   8511678.37748   6629917.21643  24834170.6684   24834170.1294
     -3351.8444
  -3717394.59849  -2888611.37948  22315536.1604   22315533.9774
        72.5634
  11890072.85649   9255789.33447  22557771.5194   22557768.4804
     -3783.9694
    104288.04847     85027.49043  24684210.3324   24684209.1564
     -1010.5624
   2414687.15249   1880481.68347  22054196.8714   22054194.2234
     -1110.5944
  -2267136.74748  -1757024.08346  23784424.0984   23784419.8794
      -908.7664
  -4405279.29248  -3432287.08845  24053548.6444   24053546.3984
      1308.7034
 04  9  9 22 22 30.0040000  0  7G 3G 8G13G10G27G19G28
   8562014.79848   6669140.36943  24843749.8404   24843748.7934
     -3359.2194
  -3718459.37749  -2889441.06248  22315333.9264   22315331.3244
        69.8284
  11946882.19749   9300056.33347  22568582.1914   22568578.8594
     -3790.1874
    119513.95548     96891.85243  24687107.6134   24687106.9224
     -1019.1254
   2431366.36849   1893478.46947  22057370.5744   22057368.0664
     -1112.9374
  -2253441.36548  -1746352.34146  23787030.1524   23787025.8674
      -916.9534
  -4424881.47748  -3447561.48145  24049818.6444   24049816.2034
      1305.2504
 04  9  9 22 22 45.0040000  0  7G 3G 8G13G10G27G19G28
   8612480.60948   6708464.35943  24853352.7934   24853352.5594
     -3368.6414
  -3719464.00349  -2890223.87648  22315142.2624   22315140.3754
        65.0944
  12003803.36049   9344410.46647  22579413.5594   22579410.6254
     -3798.3754
    134888.89748    108872.31943  24690033.9344   24690032.4144
     -1029.8124
   2448100.60949   1906518.13947  22060555.6054   22060552.8014
     -1117.2974
  -2239603.10348  -1735569.25646  23789663.3714   23789659.0554
      -927.2344
  -4444411.72448  -3462779.82045  24046101.8484   24046100.1024
      1299.6724
 04  9  9 22 23  0.0050000  0  7G 3G 8G13G10G27G19G28
   8663078.19748   6747891.03843  24862981.3374   24862980.6144
     -3377.3594
  -3720409.41549  -2890960.54848  22314962.6104   22314960.1454
        60.9384
  12060839.27149   9388854.00947  22590267.3294   22590264.4314
     -3806.0004
    150413.25948    120969.24443  24692987.8454   24692986.8104
     -1039.9694
   2464890.30749   1919601.00847  22063750.4624   22063747.8644
     -1121.1564
  -2225621.62748  -1724674.58146  23792324.1814   23792319.9934
      -936.9224
  -4463871.80948  -3477943.49045  24042398.7594   24042396.5244
      1294.7194
 04  9  9 22 23 15.0050000  0  7G 3G 8G13G10G27G19G28
   8713799.90948   6787414.42644  24872633.5954   24872632.5914
     -3385.5474
  -3721295.85049  -2891651.27548  22314793.7674   22314791.8564
        57.3134
  12117981.47149   9433380.39347  22601140.7824   22601138.2704
     -3812.9844
    166084.18547    133180.34943  24695969.8924   24695968.3844
     -1049.5474
   2481732.60549   1932724.89348  22066955.1184   22066952.2744
     -1124.4844
  -2211499.32548  -1713670.17946  23795011.5874   23795007.7594
      -946.0784
  -4483259.83748  -3493051.01745  24038709.2594   24038707.1534
      1290.3134
 04  9  9 22 23 30.0050000  0  7G 3G 8G13G10G27G19G28
   8764647.42148   6827035.85343  24882309.2594   24882308.5094
     -3393.9534
  -3722124.94749  -2892297.31848  22314635.9624   22314634.1144
        53.3754
  12175232.04649   9477991.20847  22612035.6814   22612032.7984
     -3820.2344
    181901.19347    145505.30643  24698979.9464   24698978.6654
     -1059.1874
   2498627.07049   1945889.40747  22070170.0094   22070167.2864
     -1128.0164
  -2197236.81948  -1702556.52646  23797725.4624   23797721.3954
      -955.4224
  -4502578.42649  -3508104.42445  24035033.0564   24035031.0174
      1285.5944
 04  9  9 22 23 45.0050000  0  7G 3G 8G13G10G27G19G28
   8815624.65348   6866758.37244  24892010.0634   24892009.1774
     -3402.9534
  -3722892.31149  -2892895.25948  22314490.4784   22314487.8924
        48.8754
  12232595.08149   9522689.66847  22622951.3294   22622948.7944
     -3828.0314
    197868.59148    157947.42643  24702018.1494   24702016.8994
     -1069.6724
   2515578.13049   1959098.02547  22073395.7124   22073392.9784
     -1132.0624
  -2182829.56648  -1691330.09346  23800467.2674   23800463.2984
      -965.4064
  -4521823.23449  -3523100.34845  24031370.4234   24031368.6144
      1280.3284
 04  9  9 22 24  0.0050000  0  7G 3G 8G13G10G27G19G28
   8866726.15448   6906577.70943  24901733.8684   24901733.9114
     -3411.0624
  -3723602.84949  -2893448.92048  22314354.7674   22314352.3844
        45.2814
  12290065.36049   9567471.70447  22633887.7594   22633884.1854
     -3835.0784
    213981.13548    170502.65644  24705084.2984   24705083.2204
     -1079.2664
   2532580.67249   1972346.77648  22076631.3064   22076628.8064
     -1135.3754
  -2168282.57048  -1679994.76046  23803235.6184   23803231.4424
      -974.6254
  -4540999.18348  -3538042.61745  24027721.5564   24027719.7284
      1275.9064
 04  9  9 22 24 15.0050000  0  7G 3G 8G13G10G27G19G28
   8917947.26848   6946490.22543  24911481.2354   24911480.7314
     -3418.5314
  -3724261.23949  -2893961.93848  22314229.3924   22314227.1854
        42.2974
  12347638.15749   9612333.59247  22644843.3994   22644840.5754
     -3841.4534
    230234.33248    183167.47543  24708176.5094   24708175.8294
     -1088.1094
   2549630.22649   1985632.14547  22079875.6264   22079872.8104
     -1138.1254
  -2153600.25848  -1668553.98446  23806029.5564   23806025.6144
      -983.1874
  -4560110.69249  -3552934.65945  24024085.4854   24024082.6264
      1272.1094
 04  9  9 22 24 30.0050000  0  7G 3G 8G13G10G27G19G28
   8969297.52648   6986503.38944  24921252.9234   24921252.3064
     -3427.8594
  -3724857.56049  -2894426.59248  22314116.2204   22314114.2784
        37.4694
  12405323.12649   9657282.89447  22655820.5174   22655817.7554
     -3849.5624
    246637.91146    195949.50343  24711298.2824   24711297.4384
     -1098.7814
   2566736.65149   1998961.82847  22083130.7434   22083128.0364
     -1142.5314
  -2138772.79648  -1657000.09646  23808850.9074   23808846.7744
      -993.5164
  -4579147.91749  -3567768.83545  24020462.6734   24020460.4624
      1266.5164
 04  9  9 22 24 45.0050000  0  7G 3G 8G13G10G27G19G28
   9020776.46648   7026616.84943  24931049.3294   24931048.4854
     -3436.1254
  -3725392.06349  -2894843.08148  22314014.3684   22314012.2744
        33.5784
  12463119.66349   9702319.13947  22666818.6884   22666816.0244
     -3856.8124
    263191.53746    208848.44643  24714448.0954   24714447.5524
     -1108.4534
   2583899.59149   2012335.55147  22086396.8604   22086394.3134
     -1146.0164
  -2123800.28148  -1645333.19446  23811699.9074   23811696.2204
     -1002.8594
  -4598110.92848  -3582545.15545  24016853.9384   24016851.7984
      1261.7814
 04  9  9 22 25  0.0050000  0  7G 3G 8G13G10G27G19G28
   9072382.59248   7066829.39743  24940869.1104   24940868.5014
     -3444.4694
  -3725865.77749  -2895212.18748  22313924.1964   22313921.9074
        29.7974
  12521026.40849   9747441.25447  22677838.0244   22677835.1854
     -3863.8754
    279894.17946    221863.51043  24717627.4784   24717626.1494
     -1118.2814
   2601118.02048   2025752.50347  22089673.2984   22089670.8924
     -1149.5164
  -2108683.85748  -1633554.15246  23814576.5634   23814572.3024
     -1012.3444
  -4617000.91048  -3597264.58445  24013258.9234   24013256.9154
      1257.0634
 04  9  9 22 25 15.0050000  0  7G 3G 8G13G10G27G19G28
   9124110.11548   7107136.52343  24950712.1494   24950712.0484
     -3452.7974
  -3726284.21449  -2895538.23648  22313844.5714   22313842.0834
        25.8284
  12579037.82749   9792644.94347  22688877.4154   22688874.4544
     -3871.1564
    296740.24546    234990.30043  24720832.4074   24720831.9354
     -1128.0944
   2618386.59449   2039208.53648  22092959.2434   22092956.7594
     -1153.1254
  -2093428.99448  -1621667.22946  23817479.3064   23817475.3724
     -1021.7664
  -4635823.17948  -3611931.26045  24009677.3924   24009675.1534
      1252.3754
 04  9  9 22 25 30.0050000  0  7G 3G 8G13G10G27G19G28
   9175964.16948   7147542.27243  24960580.0174   24960579.6574
     -3460.7344
  -3726641.93849  -2895816.96548  22313776.4074   22313773.9854
        22.2504
  12637159.00649   9837934.15147  22699937.3214   22699934.4624
     -3877.9374
    313735.02746    248232.99843  24724066.6574   24724065.6574
     -1137.5314
   2635710.65048   2052707.80047  22096256.1734   22096253.2674
     -1156.3594
  -2078030.08548  -1609668.06646  23820409.8374   23820406.1304
     -1030.9534
  -4654572.17048  -3626540.82145  24006109.0634   24006107.6774
      1247.9384
 04  9  9 22 25 45.0050000  0  7G 3G 8G13G10G27G19G28
   9227940.65848   7188043.40243  24970470.7744   24970470.1104
     -3469.0944
  -3726942.75549  -2896051.36548  22313719.0014   22313717.0524
        18.2034
  12695385.82449   9883305.68347  22711017.6734   22711015.0604
     -3885.2504
    330874.62846    261588.53943  24727328.1494   24727327.7704
     -1147.4534
   2653086.29449   2066247.28247  22099562.6574   22099559.4784
     -1159.9534
  -2062490.99248  -1597559.69246  23823366.5714   23823362.8684
     -1040.5624
  -4673251.82048  -3641096.36345  24002554.9384   24002552.5094
      1243.0944
 04  9  9 22 26  0.0050000  0  7G 3G 8G13G10G27G19G28
   9280043.25048   7228642.80043  24980385.6654   24980385.4074
     -3477.6094
  -3727183.12649  -2896238.65148  22313673.5874   22313671.3494
        14.1414
  12753721.97149   9928762.40947  22722118.8924   22722115.9354
     -3892.5314
    348162.86946    275059.88444  24730618.0954   24730617.3564
     -1157.2664
   2670517.41148   2079829.97047  22102879.5564   22102876.8804
     -1163.7034
  -2046807.80448  -1585338.99746  23826351.4704   23826347.2084
     -1050.1874
  -4691858.20748  -3655594.81545  23999013.9234   23999011.2314
      1238.1564
 04  9  9 22 26 15.0050000  0  7G 3G 8G13G10G27G19G28
   9332269.38648   7269338.49043  24990324.0564   24990323.4894
     -3485.9844
  -3727364.56849  -2896380.01348  22313638.8454   22313636.7944
         9.9534
  12812165.05249   9974302.44247  22733240.2284   22733237.3214
     -3899.9224
    365597.40446    288645.25844  24733935.5954   24733934.8884
     -1167.4694
   2688001.81748   2093454.17347  22106206.6104   22106203.8494
     -1167.5624
  -2030982.65848  -1573007.70946  23829362.4314   23829358.4354
     -1059.9694
  -4710393.35649  -3670037.74945  23995486.6034   23995484.2944
      1233.1254
 04  9  9 22 26 30.0050000  0  7G 3G 8G13G10G27G19G28
   9384618.23648   7310129.77343  25000285.8684   25000284.6814
     -3494.2974
  -3727487.88049  -2896476.09548  22313615.6884   22313613.1144
         5.9844
  12870714.54549  10019925.40547  22744381.5324   22744378.8924
     -3907.0784
    383177.78946    302344.24943  24737281.1034   24737280.1654
     -1177.1564
   2705539.07249   2107119.58148  22109543.9934   22109541.4624
     -1171.1874
  -2015015.96648  -1560566.12246  23832400.6264   23832396.6454
     -1069.4694
  -4728857.68549  -3684425.50645  23991972.8534   23991970.7864
      1228.3444
 04  9  9 22 26 45.0050000  0  7G 3G 8G13G10G27G19G28
   9437093.75448   7351019.76643  25010271.9314   25010271.2634
     -3502.4844
  -3727549.02949  -2896523.73048  22313603.7674   22313601.5054
         2.0474
  12929374.13049  10065634.15247  22755543.9854   22755541.4744
     -3914.2344
    400908.20446    316160.15844  24740655.5634   24740654.1304
     -1187.0004
   2723133.48248   2120829.50747  22112892.0174   22112889.7514
     -1174.7194
  -1998903.47848  -1548010.92746  23835467.1184   23835463.2594
     -1078.9374
  -4747246.83748  -3698754.68945  23988473.6734   23988471.6884
      1223.5314
 04  9  9 22 27  0.0050000  0  7G 3G 8G13G10G27G19G28
   9489693.84648   7392006.84243  25020281.3454   25020280.4584
     -3510.7034
  -3727549.54049  -2896524.12348  22313603.8454   22313601.7784
        -1.8754
  12988141.85049  10111427.15147  22766727.3924   22766724.7864
     -3921.2814
    418786.72946    330091.50144  24744057.5324   24744056.4784
     -1196.7814
   2740783.29348   2134582.60947  22116250.8064   22116248.5174
     -1178.4224
  -1982646.74349  -1535343.33346  23838560.8374   23838556.5054
     -1088.4534
  -4765562.56449  -3713026.64745  23984988.5484   23984986.1884
      1218.6724
 04  9  9 22 27 15.0050000  0  7G 3G 8G13G10G27G19G28
   9542415.35448   7433088.51743  25030313.7674   25030312.9544
     -3518.7664
  -3727492.29049  -2896479.49448  22313614.5484   22313612.4504
        -5.6874
  13047014.66449  10157302.05347  22777930.3844   22777927.8534
     -3928.3444
    436810.47546    344135.97344  24747486.8604   24747486.2594
     -1206.5314
   2758485.59548   2148376.62447  22119619.1814   22119616.5674
     -1181.8754
  -1966248.77048  -1522565.67846  23841681.2284   23841677.0754
     -1097.8284
  -4783807.62849  -3727243.54845  23981516.5874   23981514.0604
      1214.0314
 04  9  9 22 27 30.0050000  0  7G 3G 8G13G10G27G19G28
   9595258.74648   7474265.17043  25040369.5564   25040369.1574
     -3526.9224
  -3727376.37149  -2896389.16748  22313636.5174   22313634.4814
        -9.6724
  13105993.17049  10203259.31747  22789153.9234   22789151.2044
     -3935.4374
    454980.10646    358294.11543  24750944.5014   24750943.4504
     -1216.2034
   2776241.20049   2162212.15647  22122997.9074   22122995.5954
     -1185.5004
  -1949708.74649  -1509677.35246  23844828.2434   23844824.0094
     -1107.4064
  -4801981.21749  -3741404.77245  23978058.0714   23978055.7594
      1209.1724
 04  9  9 22 27 45.0050000  0  7G 3G 8G13G10G27G19G28
   9648220.13048   7515533.77843  25050447.6184   25050446.8994
     -3534.9694
  -3727205.38949  -2896255.92048  22313668.7824   22313667.0174
       -13.5164
  13165073.60149  10249295.99247  22800396.4704   22800393.6184
     -3942.3594
    473291.99446    372563.13544  24754429.5014   24754428.8804
     -1225.8594
   2794046.51349   2176086.42947  22126386.3604   22126383.7554
     -1188.9374
  -1933030.22049  -1496681.07546  23848002.4234   23847998.3454
     -1116.8124
  -4820086.88949  -3755513.04545  23974612.7044   23974610.1454
      1204.4694
 04  9  9 22 28  0.0050000  0  7G 3G 8G13G10G27G19G28
   9701302.97148   7556897.01343  25060549.1574   25060549.0754
     -3542.7664
  -3726975.68949  -2896076.92348  22313713.0714   22313710.6614
       -17.1094
  13224259.52749  10295414.88047  22811659.1734   22811656.1734
     -3949.0624
    491749.87646    386945.88744  24757941.4314   24757940.8374
     -1235.2814
   2811905.36349   2190002.41647  22129784.7744   22129782.1034
     -1192.1724
  -1916209.28649  -1483573.85346  23851203.1184   23851198.8724
     -1126.0004
  -4838120.81849  -3769565.42145  23971181.1964   23971178.8104
      1200.0634
 04  9  9 22 28 15.0050000  0  7G 3G 8G13G10G27G19G28
   9754506.87048   7598354.58543  25070673.3454   25070673.3214
     -3550.6564
  -3726687.36149  -2895852.23948  22313767.3374   22313765.5284
       -20.8284
  13283550.43749  10341615.56847  22822942.1654   22822938.8644
     -3955.8594
    510353.31647    401442.09843  24761481.4464   24761480.6654
     -1244.8284
   2829817.53149   2203959.95347  22133193.4934   22133190.8924
     -1195.5944
  -1899246.11848  -1470355.78346  23854431.3604   23854427.2394
     -1135.2974
  -4856083.01949  -3783561.92445  23967763.0484   23967760.5954
      1195.4534
 04  9  9 22 28 30.0050000  0  7G 3G 8G13G10G27G19G28
   9807832.94048   7639907.35543  25080821.0404   25080820.7124
     -3559.1254
  -3726339.05949  -2895580.82648  22313833.9154   22313831.8454
       -25.1724
  13342947.38749  10387898.88447  22834244.7674   22834242.0754
     -3963.2504
    529103.70348    416052.79544  24765050.3924   24765049.0404
     -1254.8754
   2847784.47048   2217960.16547  22136612.3064   22136609.7284
     -1199.6564
  -1882139.25548  -1457025.75246  23857686.3764   23857682.2704
     -1145.2344
  -4873972.07649  -3797501.40845  23964358.7044   23964356.4314
      1190.1564
 04  9  9 22 28 45.0050000  0  7G 3G 8G13G10G27G19G28
   9861281.73648   7681555.72743  25090991.9854   25090991.0954
     -3567.5474
  -3725929.75249  -2895261.88848  22313911.7044   22313909.8844
       -29.5474
  13402451.18749  10434265.45747  22845568.0014   22845564.5914
     -3970.7034
    548001.93048    430778.67244  24768646.4074   24768645.4314
     -1265.0474
   2865807.12949   2232003.79947  22140041.9784   22140039.3844
     -1203.6874
  -1864887.79348  -1443583.05046  23860969.2594   23860965.0404
     -1155.1564
  -4891786.93549  -3811383.08945  23960968.1574   23960966.1454
      1184.9224
 04  9  9 22 29  0.0050000  0  7G 3G 8G13G10G27G19G28
   9914851.61048   7723298.46943  25101186.0874   25101185.6424
     -3575.5164
  -3725460.60349  -2894896.30648  22314000.8994   22313998.7394
       -33.4374
  13462060.24149  10480714.05147  22856910.9314   22856908.6454
     -3977.5944
    567046.61548    445618.69744  24772270.4624   24772268.9504
     -1274.7034
   2883884.18449   2246089.82848  22143481.8684   22143479.3564
     -1207.0474
  -1847492.91048  -1430028.59046  23864279.4074   23864274.8604
     -1164.6414
  -4909528.88949  -3825207.96545  23957592.6264   23957590.1734
      1180.2344
 04  9  9 22 29 15.0050000  0  7G 3G 8G13G10G27G19G28
   9968540.09748   7765133.64443  25111402.3534   25111402.4894
     -3583.4064
  -3724933.82349  -2894485.81848  22314101.6184   22314099.3564
       -37.2344
  13521772.16849  10527242.80347  22868274.1344   22868271.1654
     -3984.4534
    586235.48047    460571.05643  24775921.5954   24775920.9234
     -1284.2664
   2902013.55949   2260216.61047  22146931.7984   22146929.2474
     -1210.6094
  -1829956.80048  -1416364.07846  23867616.4234   23867612.3414
     -1173.9694
  -4927200.08749  -3838977.71145  23954229.4384   23954227.4154
      1175.5634
 04  9  9 22 29 30.0050000  0  7G 3G 8G13G10G27G19G28
  10022350.18548   7807063.57643  25121642.2204   25121641.9544
     -3591.5944
  -3724346.21549  -2894027.93448  22314212.9384   22314211.0324
       -41.4224
  13581589.92149  10573854.01047  22879656.9704   22879654.1854
     -3991.5624
    605571.61048    475638.18344  24779600.9704   24779600.4934
     -1294.1724
   2920198.40949   2274386.60847  22150392.0954   22150389.6384
     -1214.4064
  -1812276.18449  -1402586.95146  23870981.0484   23870976.7944
     -1183.7664
  -4944797.30049  -3852689.77145  23950881.1344   23950878.8644
      1170.4844
 04  9  9 22 29 45.0050000  0  7G 3G 8G13G10G27G19G28
  10076283.18348   7849089.27843  25131905.8064   25131905.0714
     -3599.6094
  -3723696.17949  -2893521.40748  22314336.7984   22314334.3174
       -45.4844
  13641515.00349  10620548.86347  22891060.4544   22891057.7314
     -3998.6414
    625056.62848    490821.31743  24783308.7744   24783307.9424
     -1304.0474
   2938440.47749   2288601.21847  22153863.6574   22153860.8724
     -1218.0624
  -1794449.43149  -1388695.98146  23874373.4234   23874368.6774
     -1193.3124
  -4962318.64449  -3866342.74245  23947546.7284   23947544.5324
      1165.5164
 04  9  9 22 30  0.0050000  0  7G 3G 8G13G10G27G19G28
  10130337.35448   7891209.37943  25142192.0404   25142191.3064
     -3608.2504
  -3722985.03049  -2892967.25048  22314471.8134   22314470.0524
       -50.0004
  13701545.79549  10667326.07847  22902483.9704   22902481.0244
     -4006.1254
    644688.97948    506119.25643  24787044.6184   24787043.7904
     -1314.2344
   2956738.28749   2302859.25347  22157345.3534   22157342.9424
     -1222.2814
  -1776477.91749  -1374692.19146  23877792.9464   23877789.0674
     -1203.4064
  -4979765.50549  -3879937.65945  23944226.5484   23944224.1034
      1160.1564
 04  9  9 22 30 15.0050000  0  7G 3G 8G13G10G27G19G28
  10184515.75148   7933426.30843  25152501.4704   25152500.7084
     -3616.0004
  -3722209.34849  -2892362.83048  22314619.4934   22314617.3214
       -53.7814
  13761685.33949  10714188.04047  22913928.0244   22913924.9194
     -4012.9064
    664472.04648    521534.61543  24790809.4934   24790808.5174
     -1323.8444
   2975095.26249   2317163.39647  22160838.7594   22160836.4424
     -1225.7814
  -1758358.21849  -1360572.93846  23881241.1494   23881237.3414
     -1212.8594
  -4997134.48749  -3893471.91045  23940921.4384   23940918.7634
      1155.3594
 04  9  9 22 30 30.0050000  0  7G 3G 8G13G10G27G19G28
  10238815.09048   7975737.46643  25162834.9854   25162833.6924
     -3623.9534
  -3721372.37049  -2891710.61648  22314779.0484   22314777.1034
       -57.7664
  13821930.25349  10761132.09447  22925392.2514   22925389.2004
     -4019.7344
    684402.61148    537064.94243  24794602.0714   24794601.5564
     -1333.5624
   2993508.45549   2331511.33347  22164342.5404   22164340.1184
     -1229.3594
  -1740093.34549  -1346340.55846  23884717.0174   23884712.8764
     -1222.4694
  -5014428.57549  -3906947.79245  23937630.4074   23937628.3214
      1150.5314
 04  9  9 22 30 45.0050000  0  7G 3G 8G13G10G27G19G28
  10293228.68748   8018137.65943  25173188.9074   25173188.7864
     -3631.2344
  -3720480.20849  -2891015.41848  22314948.9384   22314946.6734
       -61.2034
  13882274.03049  10808153.18847  22936875.2824   22936872.5714
     -4026.0474
    704474.35148    552705.25243  24798422.0954   24798420.9704
     -1342.6094
   3011971.50449   2345898.11948  22167855.8764   22167853.6614
     -1232.3284
  -1721689.52649  -1331999.91046  23888219.3454   23888215.0914
     -1231.4374
  -5031653.98449  -3920370.16145  23934352.8294   23934350.2244
      1146.2194
 04  9  9 22 31  0.0050000  0  7G 3G 8G13G10G27G19G28
  10347766.23048   8060634.43743  25183567.2904   25183567.0364
     -3639.2504
  -3719522.54849  -2890269.17748  22315131.1344   22315128.7944
       -65.2504
  13942726.64649  10855259.10547  22948379.3134   22948376.1064
     -4033.0164
    724697.18248    568463.31543  24802270.3924   24802269.1384
     -1352.4694
   3030494.44349   2360331.59347  22171380.7434   22171378.4584
     -1236.1254
  -1703136.76549  -1317543.20546  23891749.5324   23891745.5994
     -1241.1094
  -5048800.61649  -3933731.13245  23931089.8214   23931087.2004
      1141.1884
 04  9  9 22 31 15.0050000  0  7G 3G 8G13G10G27G19G28
  10402423.17948   8103224.26343  25193968.2284   25193967.8724
     -3647.9694
  -3718504.00149  -2889475.50448  22315324.6104   22315322.3374
       -70.0944
  14003283.45449  10902446.20547  22959902.8454   22959899.9194
     -4040.7974
    745066.58948    584335.56443  24806146.6734   24806145.3644
     -1363.1094
   3049072.97149   2374808.36247  22174916.6814   22174913.6814
     -1240.6254
  -1684439.26949  -1302973.72946  23895307.6424   23895303.3994
     -1251.5314
  -5065872.64549  -3947033.99545  23927840.7044   23927838.6654
      1135.4224
 04  9  9 22 31 30.0050000  0  7G 3G 8G13G10G27G19G28
  10457197.71248   8145905.66643  25204391.0174   25204390.8294
     -3655.3914
  -3717425.99549  -2888635.49148  22315529.7904   22315527.6304
       -73.7034
  14063942.71449  10949713.13147  22971445.8534   22971442.9194
     -4047.2814
    765580.95448    600320.78343  24810050.1344   24810049.1104
     -1372.3124
   3067705.68149   2389327.35447  22178461.7044   22178459.1734
     -1243.9374
  -1665598.63949  -1288292.69946  23898892.3534   23898888.4704
     -1260.7814
  -5082871.81449  -3960280.06545  23924606.0404   23924603.4584
      1131.0004
 04  9  9 22 31 45.0050000  0  7G 3G 8G13G10G27G19G28
  10512095.53848   8188683.21143  25214837.7904   25214837.7284
     -3663.5474
  -3716282.22749  -2887744.22748  22315747.5094   22315745.5794
       -77.9534
  14124710.18449  10997064.37747  22983009.3064   22983006.3954
     -4054.3284
    786246.31648    616423.68243  24813982.8454   24813981.4034
     -1382.2814
   3086398.59449   2403893.25847  22182019.4154   22182016.8254
     -1247.7344
  -1646608.72349  -1273495.35746  23902506.8764   23902502.5244
     -1270.6094
  -5099791.72949  -3973464.38845  23921386.2434   23921384.0054
      1125.8444
 04  9  9 22 32  0.0050000  0  7G 3G 8G13G10G27G19G28
  10567100.08548   8231543.86043  25225305.0954   25225304.7004
     -3670.6414
  -3715089.26649  -2886814.64948  22315974.4544   22315972.5914
       -81.4224
  14185569.29949  11044487.05747  22994590.6884   22994587.5174
     -4060.5314
    807046.36148    632631.48943  24817940.3374   24817939.5204
     -1391.3594
   3105135.53249   2418493.47647  22185584.5794   22185582.1574
     -1250.8444
  -1627485.78349  -1258594.36146  23906145.3134   23906141.2864
     -1279.5314
  -5116648.55949  -3986599.56245  23918178.3684   23918176.3644
      1121.5004
 04  9  9 22 32 15.0050000  0  7G 3G 8G13G10G27G19G28
  10622224.22648   8274497.71443  25235794.9854   25235794.3644
     -3679.4064
  -3713833.68049  -2885836.26948  22316213.4934   22316211.4234
       -86.2974
  14246533.04049  11091991.23847  23006191.8064   23006188.7634
     -4068.2664
    827994.06148    648954.38443  24821926.8214   24821925.8214
     -1401.9534
   3123929.59449   2433138.20447  22189160.9544   22189158.1854
     -1255.2814
  -1608216.63849  -1243579.43746  23909812.0794   23909807.9624
     -1289.9534
  -5133429.21649  -3999675.37145  23914985.2044   23914982.5204
      1115.7034
 04  9  9 22 32 30.0050000  0  7G 3G 8G13G10G27G19G28
  10677461.89448   8317540.03343  25246305.7744   25246306.0054
     -3686.5164
  -3712521.29149  -2884813.61748  22316463.3604   22316461.0364
       -89.5784
  14307595.44449  11139572.30047  23017811.6494   23017808.1814
     -4074.2974
    849083.60448    665387.78544  24825940.0564   24825938.8494
     -1410.8594
   3142775.17149   2447823.06647  22192747.0634   22192744.4544
     -1258.2814
  -1588806.86749  -1228454.94346  23913505.5634   23913501.4544
     -1298.8594
  -5150139.33549  -4012696.21245  23911805.4934   23911802.8844
      1111.4384
 04  9  9 22 32 45.0050000  0  7G 3G 8G13G10G27G19G28
  10732818.38048   8360674.93743  25256840.2204   25256840.1304
     -3694.1564
  -3711146.42349  -2883742.28948  22316725.0634   22316722.7634
       -93.5474
  14368761.94549  11187234.49347  23029450.8994   23029448.5284
     -4081.0474
    870320.52248    681936.04943  24829981.9074   24829980.5914
     -1420.5004
   3161677.78349   2462552.38347  22196344.1344   22196342.0244
     -1261.8444
  -1569251.03949  -1213216.62046  23917226.9854   23917222.9744
     -1308.3754
  -5166773.29449  -4025657.71045  23908639.6814   23908637.4274
      1106.6414
 04  9  9 22 33  0.0050000  0  7G 3G 8G13G10G27G19G28
  10788292.74948   8403901.71243  25267397.0404   25267396.3024
     -3701.9694
  -3709709.68549  -2882622.73448  22316998.3134   22316996.2284
       -97.5624
  14430031.74549  11234977.16547  23041110.2354   23041107.2784
     -4087.8444
    891704.05648    698598.54144  24834050.2354   24834049.8804
     -1430.2034
   3180637.03948   2477325.81947  22199951.7044   22199949.5914
     -1265.5784
  -1549549.67548  -1197864.89946  23920975.8534   23920972.1384
     -1318.0164
  -5183331.46649  -4038560.14045  23905489.1964   23905486.4504
      1101.6414
 04  9  9 22 33 15.0050000  0  7G 3G 8G13G10G27G19G28
  10843889.07047   8447223.48243  25277976.0954   25277975.4034
     -3709.7974
  -3708206.63449  -2881451.51648  22317284.2284   22317281.7674
      -101.7344
  14491408.75049  11282803.38247  23052790.2824   23052787.5954
     -4094.7344
    913238.37648    715378.54043  24838148.7514   24838147.5794
     -1439.9534
   3199657.06448   2492146.61847  22203571.3684   22203568.8604
     -1269.3444
  -1529698.48148  -1182396.42846  23924753.5484   23924749.5634
     -1327.7814
  -5199809.55749  -4051400.18245  23902353.3764   23902351.3494
      1096.5944
 04  9  9 22 33 30.0050000  0  7G 3G 8G13G10G27G19G28
  10899602.89648   8490636.82943  25288578.0094   25288577.7244
     -3717.8124
  -3706641.40949  -2880231.85348  22317582.1344   22317579.7124
      -106.0624
  14552888.37549  11330709.57447  23064489.1034   23064486.6144
     -4101.7344
    934919.20847    732272.68343  24842274.5954   24842273.1884
     -1449.9374
   3218733.82049   2507011.64147  22207201.6884   22207199.1964
     -1273.3914
  -1509701.61848  -1166814.45846  23928558.6034   23928555.0564
     -1337.6874
  -5216211.70649  -4064181.04846  23899231.9704   23899230.0874
      1091.2034
 04  9  9 22 33 45.0050000  0  7G 3G 8G13G10G27G19G28
  10955428.63248   8534137.36443  25299201.5174   25299201.4544
     -3726.2974
  -3705019.16249  -2878967.77148  22317890.9314   22317888.7864
      -110.8594
  14614465.49249  11378691.71047  23076206.9234   23076204.1224
     -4109.1874
    956741.50748    749277.06144  24846426.4854   24846425.9034
     -1460.2814
   3237862.19149   2521916.86547  22210841.6964   22210838.9894
     -1277.6874
  -1489564.04549  -1151122.83946  23932390.8134   23932386.9274
     -1348.0474
  -5232543.04649  -4076906.74746  23896124.3374   23896122.0244
      1085.5474
 04  9  9 22 34  0.0050000  0  7G 3G 8G13G10G27G19G28
  11011379.78248   8577735.63443  25309848.2124   25309848.6034
     -3733.8124
  -3703326.00649  -2877648.42248  22318213.2284   22318210.5754
      -114.8594
  14676153.70349  11426760.41647  23087945.5954   23087942.9854
     -4115.8754
    978718.78348    766402.21644  24850608.4314   24850607.3954
     -1469.9064
   3257056.04049   2536873.09047  22214494.2904   22214491.8954
     -1281.3754
  -1469272.02749  -1135310.86646  23936252.6344   23936248.3684
     -1357.6094
  -5248789.56549  -4089566.33146  23893032.5634   23893030.5244
      1080.6884
 04  9  9 22 34 15.0050000  0  7G 3G 8G13G10G27G19G28
  11067440.65547   8621419.42043  25320516.6494   25320516.5094
     -3741.1414
  -3701577.33649  -2876285.81248  22318545.8764   22318543.4504
      -118.5164
  14737937.26749  11474903.43347  23099703.0874   23099700.5994
     -4122.2194
   1000835.57148    783636.08444  24854817.4854   24854816.9784
     -1479.1564
   3276299.87149   2551868.29247  22218155.9074   22218153.4664
     -1284.6724
  -1448841.01949  -1119390.59346  23940140.1654   23940135.8534
     -1366.8284
  -5264966.70549  -4102171.85346  23889954.1104   23889951.8604
      1076.0784
 04  9  9 22 34 30.0050000  0  7G 3G 8G13G10G27G19G28
  11123613.16948   8665190.18543  25331205.6184   25331206.3104
     -3748.0314
  -3699770.72049  -2874878.05248  22318889.6964   22318887.5204
      -121.7974
  14799818.24449  11523122.34847  23111478.4154   23111475.4664
     -4128.1094
   1023094.04748    800980.34743  24859053.2354   24859052.1344
     -1488.0944
   3295596.04749   2566904.28647  22221828.1104   22221825.5364
     -1287.5944
  -1428268.73949  -1103360.23946  23944055.0714   23944051.3924
     -1375.6564
  -5281072.18649  -4114721.54746  23886889.7434   23886887.5634
      1071.7974
 04  9  9 22 34 45.0050000  0  7G 3G 8G13G10G27G19G28
  11179897.90448   8709048.38443  25341916.3374   25341916.6454
     -3756.3124
  -3697905.46549  -2873424.60148  22319244.4074   22319242.4544
      -126.5624
  14861797.34049  11571417.71747  23123272.5484   23123269.6064
     -4135.5314
   1045494.99448    818435.63443  24863316.6264   24863315.2244
     -1498.3594
   3314945.57549   2581981.83347  22225509.9624   22225507.6064
     -1292.0474
  -1407554.25649  -1087219.07546  23947996.6104   23947992.5914
     -1385.9694
  -5297104.90849  -4127214.54646  23883838.4544   23883835.9934
      1066.1564
 04  9  9 22 35  0.0050000  0  7G 3G 8G13G10G27G19G28
  11236299.90748   8752997.97943  25352649.1884   25352649.5364
     -3764.3914
  -3695976.16349  -2871921.23948  22319611.5404   22319609.4194
      -131.0944
  14923879.31949  11619793.25847  23135086.2824   23135084.0564
     -4142.6414
   1068043.48148    836005.86243  24867606.8604   24867605.8294
     -1508.5624
   3334353.64549   2597105.00247  22229203.1424   22229200.6884
     -1296.1414
  -1386692.35349  -1070963.04646  23951966.5324   23951962.9114
     -1396.1254
  -5313059.69849  -4139646.82246  23880802.2044   23880800.1344
      1060.6414
 04  9  9 22 35 15.0050000  0  7G 3G 8G13G10G27G19G28
  11292819.92448   8797039.53143  25363405.0794   25363404.7394
     -3771.8284
  -3693981.84949  -2870367.21648  22319991.2824   22319988.8764
      -134.9534
  14986065.18049  11668249.75047  23146920.0484   23146917.4744
     -4149.0474
   1090740.49848    853691.85544  24871926.1424   24871924.6814
     -1518.0164
   3353821.42649   2612274.70347  22232907.8924   22232905.7204
     -1299.6724
  -1365681.86849  -1054591.23146  23955964.7824   23955961.1184
     -1405.5784
  -5328935.31949  -4152017.41146  23877781.2434   23877779.0014
      1055.8444
 04  9  9 22 35 30.0050000  0  7G 3G 8G13G10G27G19G28
  11349449.95648   8841166.79343  25374181.4154   25374180.9504
     -3779.0624
  -3691929.97049  -2868768.33248  22320381.4784   22320379.2824
      -138.7504
  15048347.23049  11716781.20447  23158772.2044   23158769.2674
     -4155.4064
   1113578.32148    871487.58344  24876271.6424   24876270.9314
     -1527.3124
   3373341.40849   2627485.08747  22236622.5014   22236620.0714
     -1303.1254
  -1344530.42749  -1038109.57446  23959989.8994   23959986.0364
     -1414.8444
  -5344739.41149  -4164332.23846  23874773.9544   23874771.5244
      1051.1414
 04  9  9 22 35 45.0050000  0  7G 3G 8G13G10G27G19G28
  11406195.06748   8885383.75043  25384979.6884   25384979.3644
     -3786.6724
  -3689815.04049  -2867120.33148  22320784.0794   22320781.8414
      -142.9694
  15110730.41149  11765391.44647  23170642.9934   23170640.4814
     -4162.1414
   1136562.17148    889397.07043  24880645.1104   24880644.5874
     -1536.9694
   3392918.83549   2642740.22747  22240347.9234   22240345.1424
     -1306.9694
  -1323232.59149  -1021513.84846  23964042.7904   23964038.6734
     -1424.5784
  -5360466.38749  -4176586.99346  23871781.2674   23871778.6774
      1045.9844
 04  9  9 22 36  0.0050000  0  7G 3G 8G13G10G27G19G28
  11463050.68648   8929686.81043  25395798.9384   25395798.4384
     -3794.0784
  -3687641.28949  -2865426.49248  22321197.7904   22321195.3064
      -146.8594
  15173210.10349  11814076.88747  23182532.6264   23182529.7434
     -4168.5004
   1159687.65948    907416.91244  24885045.8454   24885045.0714
     -1546.3444
   3412549.43649   2658036.79647  22244083.5484   22244080.9664
     -1310.4534
  -1301792.76448  -1004807.48446  23968122.7434   23968118.6814
     -1434.0314
  -5376120.62549  -4188785.07846  23868802.4704   23868799.8024
      1041.2194
 04  9  9 22 36 15.0050000  0  7G 3G 8G13G10G27G19G28
  11520023.04448   8974080.82043  25406640.9934   25406640.0324
     -3802.4844
  -3685402.20749  -2863681.73948  22321623.7434   22321621.6104
      -151.9224
  15235792.75848  11862842.57047  23194442.0094   23194439.1454
     -4176.0784
   1182961.28548    925552.21144  24889475.0174   24889474.0874
     -1557.0624
   3432239.99749   2673380.09847  22247830.5874   22247827.8804
     -1315.1874
  -1280204.27748   -987985.28146  23972230.5404   23972226.8064
     -1444.6874
  -5391695.38049  -4200921.21046  23865838.3134   23865836.0444
      1035.2034
 04  9  9 22 36 30.0050000  0  7G 3G 8G13G10G27G19G28
  11577114.81148   9018567.89443  25417504.8294   25417504.5324
     -3810.1414
  -3683094.82849  -2861883.77048  22322062.9624   22322060.7394
      -156.2194
  15298481.01348  11911690.52847  23206370.8454   23206368.1304
     -4182.8754
   1206385.83048    943805.09143  24893932.7984   24893931.6184
     -1566.7814
   3451993.42749   2688772.39047  22251589.4314   22251587.1184
     -1319.0944
  -1258464.17149   -971044.92546  23976367.9074   23976363.6264
     -1454.4844
  -5407187.62749  -4212993.06146  23862889.9934   23862887.2394
      1029.8754
 04  9  9 22 36 45.0050000  0  7G 3G 8G13G10G27G19G28
  11634316.70848   9063140.78743  25428389.8214   25428389.8884
     -3816.8914
  -3680728.09049  -2860039.55648  22322513.4854   22322510.8064
      -159.5004
  15361265.72248  11960613.65847  23218318.5244   23218315.5484
     -4188.5944
   1229952.31548    962168.59543  24898417.1574   24898416.1734
     -1575.5944
   3471800.87849   2704206.76247  22255358.4464   22255355.9854
     -1322.0624
  -1236581.44649   -953993.45246  23980531.3534   23980527.7314
     -1463.3124
  -5422606.32349  -4225007.59946  23859956.3454   23859953.5674
      1025.7344
 04  9  9 22 37  0.0050000  0  7G 3G 8G13G10G27G19G28
  11691626.78948   9107797.97343  25439296.0094   25439295.1814
     -3824.7194
  -3678303.59249  -2858150.32048  22322974.1424   22322972.1884
      -164.0164
  15424144.99748  12009610.46246  23230284.0404   23230281.7244
     -4195.5624
   1253659.00548    980641.33143  24902928.4074   24902927.1424
     -1585.5624
   3491660.64849   2719681.92147  22259137.9544   22259135.4354
     -1326.1414
  -1214557.70048   -936832.07546  23984722.9384   23984719.0994
     -1473.3754
  -5437953.08149  -4236966.08346  23857035.5094   23857033.3294
      1020.2664
 04  9  9 22 37 15.0050000  0  7G 3G 8G13G10G27G19G28
  11749046.85248   9152540.86843  25450222.6884   25450222.0634
     -3831.7034
  -3675819.22449  -2856214.43948  22323447.3764   22323444.6264
      -167.7504
  15487120.73248  12058682.43147  23242267.7514   23242265.3604
     -4201.6724
   1277507.83948    999224.83843  24907466.4234   24907465.6104
     -1594.7664
   3511574.79449   2735199.43447  22262927.2824   22262925.0674
     -1329.5004
  -1192390.88349   -919559.22046  23988940.9784   23988937.2044
     -1482.5944
  -5453225.61949  -4248866.72445  23854129.5794   23854126.8564
      1015.6094
 04  9  9 22 37 30.0050000  0  7G 3G 8G13G10G27G19G28
  11806582.99748   9197374.21943  25461170.8764   25461170.6064
     -3839.1874
  -3673268.23849  -2854226.65148  22323932.7284   22323930.3494
      -171.8914
  15550199.07448  12107834.36746  23254271.3064   23254269.0404
     -4208.2504
   1301505.09948   1017923.98944  24912032.9704   24912032.3374
     -1604.4374
   3531549.98749   2750764.52747  22266728.4464   22266726.2944
     -1333.2974
  -1170074.42749   -902169.76846  23993187.5014   23993183.6614
     -1492.3444
  -5468417.53149  -4260704.54646  23851238.6344   23851235.6854
      1010.4694
 04  9  9 22 37 45.0050000  0  7G 3G 8G13G10G27G19G28
  11864226.74948   9242291.41943  25472140.3684   25472139.9194
     -3846.5164
  -3670658.94249  -2852193.42048  22324429.0794   22324426.9114
      -175.9844
  15613371.56248  12157059.64746  23266292.3764   23266290.2784
     -4214.7344
   1325642.41048   1036732.28144  24916626.4074   24916625.4034
     -1613.9224
   3551577.96849   2766370.74747  22270539.6964   22270537.2824
     -1337.0784
  -1147616.59249   -884670.14546  23997460.7204   23997457.0444
     -1502.0164
  -5483536.96249  -4272485.88446  23848361.4314   23848358.9704
      1005.4064
 04  9  9 22 38  0.0050000  0  7G 3G 8G13G10G27G19G28
  11921983.04148   9287296.30443  25483131.5794   25483130.7704
     -3854.1414
  -3667986.06749  -2850110.65148  22324937.8684   22324935.3214
      -180.2664
  15676643.29849  12206362.27846  23278332.8214   23278330.5174
     -4221.4374
   1349925.04148   1055653.82144  24921246.8844   24921246.3804
     -1623.6254
   3571664.09849   2782022.27647  22274362.2514   22274359.5284
     -1341.0164
  -1125012.25349   -867056.35946  24001762.2984   24001758.6694
     -1511.8914
  -5498578.50749  -4284206.54946  23845499.3214   23845496.1534
      1000.1724
 04  9  9 22 38 15.0050000  0  7G 3G 8G13G10G27G19G28
  11979854.26348   9332390.73043  25494143.9384   25494143.7474
     -3861.7504
  -3665246.67249  -2847976.04348  22325459.0794   22325456.8684
      -184.6564
  15740016.77748  12255744.18846  23290392.6964   23290389.9854
     -4228.0474
   1374355.54848   1074690.57744  24925896.7674   24925895.1574
     -1633.4064
   3591811.16149   2797721.28647  22278195.7984   22278193.0564
     -1345.0164
  -1102258.52749   -849326.18346  24006092.5874   24006088.1814
     -1521.6724
  -5513539.40749  -4295864.36246  23842652.0954   23842649.5754
       994.9384
 04  9  9 22 38 30.0050000  0  7G 3G 8G13G10G27G19G28
  12037837.95548   9377572.77743  25505177.3924   25505177.0794
     -3869.4374
  -3662442.79349  -2845791.19848  22325992.6344   22325990.3994
      -189.1564
  15803489.53848  12305203.44946  23302471.0324   23302468.3764
     -4234.9374
   1398931.61248   1093840.77044  24930572.8604   24930572.0604
     -1643.3284
   3612017.08949   2813466.17247  22282040.7514   22282038.2004
     -1349.1254
  -1079357.55449   -831481.24146  24010450.7354   24010446.6034
     -1531.6724
  -5528421.59249  -4307460.82346  23839820.2514   23839817.5014
       989.4224
 04  9  9 22 38 45.0050000  0  7G 3G 8G13G10G27G19G28
  12095935.66648   9422843.71143  25516232.9704   25516232.6104
     -3876.7034
  -3659572.68149  -2843554.73648  22326539.1344   22326536.6574
      -193.3124
  15867063.15548  12354741.29646  23314568.4934   23314565.9384
     -4241.2974
   1423655.06348   1113105.78644  24935277.4074   24935276.4704
     -1652.9064
   3632283.82249   2829258.42747  22285897.2904   22285894.5634
     -1352.8594
  -1056307.44249   -813520.11346  24014836.7354   24014832.5914
     -1541.3444
  -5543223.17149  -4318994.50246  23837003.3604   23837000.6814
       984.3444
 04  9  9 22 39  0.0050000  0  7G 3G 8G13G10G27G19G28
  12154145.68248   9468202.15043  25527310.6884   25527309.7864
     -3884.3284
  -3656637.76349  -2841267.77548  22327097.4854   22327095.0204
      -197.7664
  15930735.96648  12404356.44046  23326685.3534   23326682.5914
     -4248.1414
   1448524.22848   1132484.36644  24940010.0634   24940008.8064
     -1662.7664
   3652609.97449   2845096.98847  22289765.5174   22289762.8334
     -1357.0474
  -1033109.65849   -795443.90346  24019251.2044   24019247.3334
     -1551.4374
  -5557945.59449  -4330466.48546  23834201.8134   23834199.2044
       978.9064
 04  9  9 22 39 15.0050000  0  7G 3G 8G13G10G27G19G28
  12212464.39348   9513645.29843  25538407.8064   25538407.2044
     -3891.2974
  -3653641.00349  -2838932.62848  22327667.8214   22327665.5444
      -201.6254
  15994504.54848  12454046.22546  23338820.1574   23338817.2864
     -4254.2194
   1473535.79848   1151973.90344  24944769.6574   24944768.4934
     -1671.9064
   3672992.21149   2860979.26147  22293644.1424   22293641.0714
     -1360.4844
  -1009767.39749   -777255.12146  24023692.9544   24023689.1034
     -1560.7194
  -5572592.05749  -4341879.28546  23831414.7354   23831411.9274
       974.1414
 04  9  9 22 39 30.0050000  0  7G 3G 8G13G10G27G19G28
  12270888.95348   9559170.91142  25549526.0244   25549525.8534
     -3898.8124
  -3650585.14249  -2836551.42648  22328249.1654   22328246.6574
      -206.0474
  16058366.11649  12503808.45246  23350972.3214   23350970.0794
     -4260.9064
   1498687.15248   1171572.35344  24949555.7824   24949554.6104
     -1681.7664
   3693428.15549   2876903.36247  22297532.8294   22297530.0994
     -1364.5314
   -986283.27349   -758955.79846  24028161.9154   24028158.3724
     -1570.6414
  -5587165.05249  -4353234.83246  23828641.4544   23828639.3174
       968.7194
 04  9  9 22 39 45.0050000  0  7G 3G 8G13G10G27G19G28
  12329425.34348   9604783.65542  25560664.9784   25560664.3454
     -3906.3594
  -3647463.55749  -2834119.02048  22328843.1734   22328841.0364
      -210.5314
  16122326.55349  12553647.71646  23363143.8214   23363141.3924
     -4267.5624
   1523984.45648   1191284.52544  24954369.5324   24954368.5994
     -1691.5624
   3713924.10249   2892874.22447  22301433.3994   22301430.8294
     -1368.6874
   -962651.00749   -740541.04846  24032659.2284   24032654.5404
     -1580.6724
  -5601658.16749  -4364528.13546  23825883.3924   23825880.8564
       963.3284
 04  9  9 22 40  0.0050000  0  7G 3G 8G13G10G27G19G28
  12388076.24548   9650485.63542  25571825.7354   25571825.5284
     -3913.6094
  -3644273.33049  -2831633.10048  22329450.0794   22329447.9704
      -214.7664
  16186388.92148  12603566.40046  23375334.4384   23375331.7944
     -4273.9534
   1549430.52348   1211112.64944  24959212.0244   24959210.6264
     -1701.0784
   3734483.10549   2908894.22447  22305345.4854   22305342.7784
     -1372.4064
   -938867.58249   -722008.48246  24037184.9154   24037180.6424
     -1590.3594
  -5616068.36749  -4375756.81846  23823141.1424   23823139.0994
       958.1724
 04  9  9 22 40 15.0050000  0  7G 3G 8G13G10G27G19G28
  12446831.50348   9696268.94742  25583006.1344   25583006.4934
     -3920.7034
  -3641024.24749  -2829101.35948  22330068.4934   22330065.8644
      -218.8444
  16250542.97548  12653556.54746  23387542.5094   23387539.9664
     -4280.1874
   1575015.32748   1231048.84444  24964080.1574   24964079.1924
     -1710.4374
   3755095.37649   2924955.74047  22309267.8454   22309265.1614
     -1376.1414
   -914942.85749   -703365.84646  24041737.7674   24041733.6734
     -1599.9374
  -5630405.49849  -4386928.58846  23820412.7204   23820410.4544
       953.1564
 04  9  9 22 40 30.0050000  0  7G 3G 8G13G10G27G19G28
  12505694.72348   9742136.38742  25594208.6494   25594207.4074
     -3927.9224
  -3637712.52449  -2826520.78248  22330698.8294   22330696.3374
      -223.0314
  16314792.23648  12703620.88346  23399769.0874   23399766.6224
     -4286.5474
   1600742.69048   1251096.12644  24968976.2044   24968975.0604
     -1720.0314
   3775764.71549   2941061.73247  22313201.1264   22313198.3494
     -1380.0314
   -890873.04449   -684610.14646  24046317.5954   24046313.7434
     -1609.6874
  -5644665.45749  -4398040.20746  23817699.2674   23817696.3254
       947.9384
 04  9  9 22 40 45.0060000  0  7G 3G 8G13G10G27G19G28
  12564669.98248   9788091.10742  25605430.6394   25605429.9434
     -3934.7194
  -3634337.50849  -2823890.89748  22331341.0294   22331338.3384
      -226.7814
  16379141.26949  12753762.95946  23412014.2484   23412011.7444
     -4292.5784
   1626614.57048   1271256.04244  24973899.5144   24973898.4984
     -1729.2504
   3796493.14549   2957213.74647  22317145.4984   22317142.5064
     -1383.4844
   -866656.06349   -665739.75646  24050925.8894   24050922.4324
     -1618.9224
  -5658848.89449  -4409092.21646  23815000.2794   23814997.9434
       943.1564
 04  9  9 22 41  0.0060000  0  7G 3G 8G13G10G27G19G28
  12623750.51948   9834127.84842  25616673.5614   25616672.3734
     -3942.2504
  -3630897.71249  -2821210.52748  22331995.6624   22331993.1624
      -231.5314
  16443582.88648  12803977.16546  23424277.1544   23424274.7404
     -4299.3284
   1652628.96448   1291526.99544  24978850.0454   24978848.6784
     -1739.1254
   3817279.52349   2973410.92847  22321101.1154   22321098.2324
     -1387.7344
   -842293.60949   -646756.01446  24055562.1544   24055558.1464
     -1629.0474
  -5672952.12449  -4420081.70146  23812316.2174   23812314.0454
       937.5944
 04  9  9 22 41 15.0060000  0  7G 3G 8G13G10G27G19G28
  12682941.56847   9880250.76242  25627936.6074   25627935.9004
     -3949.4694
  -3627391.32249  -2818478.27148  22332663.0064   22332660.5924
      -235.6874
  16508122.60249  12854267.81846  23436558.5294   23436556.1664
     -4305.6254
   1678789.10548   1311911.51344  24983828.2254   24983826.8734
     -1748.5944
   3838126.80349   2989655.56547  22325068.1004   22325065.1744
     -1391.5784
   -817782.46549   -627656.41246  24060226.2484   24060222.6704
     -1638.7504
  -5686974.44049  -4431008.16846  23809648.0614   23809645.4554
       932.4064
 04  9  9 22 41 30.0060000  0  7G 3G 8G13G10G27G19G28
  12742235.84547   9926454.06643  25639220.0924   25639219.8504
     -3956.8444
  -3623825.45249  -2815699.67048  22333341.4594   22333339.2874
      -240.0784
  16572753.08149  12904629.21446  23448857.0454   23448854.9124
     -4312.1094
   1705087.80548   1332404.00944  24988832.7794   24988830.8934
     -1758.2504
   3859028.06749   3005942.27147  22329045.4044   22329043.0184
     -1395.7034
   -793129.65849   -608446.42446  24064918.0374   24064913.9084
     -1648.6724
  -5700922.89049  -4441877.06246  23806993.8264   23806991.0844
       927.0164
 04  9  9 22 41 45.0060000  0  7G 3G 8G13G10G27G19G28
  12801637.79647   9972741.27243  25650523.8184   25650523.6824
     -3963.6094
  -3620195.05849  -2812870.78248  22334032.2644   22334030.0064
      -244.0474
  16637478.98749  12955064.95246  23461174.3114   23461171.8344
     -4318.1874
   1731529.69248   1353008.07044  24993864.3114   24993862.7714
     -1767.4694
   3879988.09049   3022274.75147  22333033.9364   22333031.1744
     -1399.2034
   -768330.44249   -589122.35746  24069636.9434   24069632.7834
     -1658.0474
  -5714792.66449  -4452684.64446  23804354.6314   23804351.5254
       922.1094
 04  9  9 22 42  0.0060000  0  7G 3G 8G13G10G27G19G28
  12861147.29047  10019112.30142  25661848.5374   25661847.8384
     -3970.9534
  -3616500.07349  -2809991.56648  22334735.1004   22334732.7054
      -248.5784
  16702300.22848  13005574.97746  23473509.1154   23473507.3224
     -4324.6414
   1758114.79648   1373723.74144  24998923.1624   24998922.0764
     -1777.1094
   3901007.15649   3038653.24247  22337033.8734   22337031.2834
     -1403.2814
   -743384.56549   -569683.99546  24074383.6154   24074379.9394
     -1668.0314
  -5728583.51349  -4463430.73346  23801730.1934   23801727.2284
       916.7194
 04  9  9 22 42 15.0060000  0  7G 3G 8G13G10G27G19G28
  12920762.15447  10065565.41442  25673192.1234   25673192.2364
     -3977.8124
  -3612742.38949  -2807063.49048  22335450.1704   22335448.3074
      -252.6414
  16767214.69749  13056157.66146  23485862.2954   23485859.4824
     -4330.6874
   1784841.11548   1394549.43844  25004008.9514   25004007.9044
     -1786.4374
   3922083.47949   3055076.35547  22341044.4044   22341041.9084
     -1406.9844
   -718294.02649   -550132.91446  24079158.8034   24079154.2364
     -1677.5164
  -5742297.14149  -4474116.65046  23799120.7254   23799117.5764
       911.6724
 04  9  9 22 42 30.0060000  0  7G 3G 8G13G10G27G19G28
  12980481.54147  10112099.97142  25684556.8654   25684556.7444
     -3984.7344
  -3608922.17349  -2804086.69048  22336177.1934   22336174.5454
      -256.7194
  16832221.71549  13106812.44246  23498232.5844   23498230.4754
     -4336.8594
   1811708.05848   1415484.73044  25009121.7324   25009119.9164
     -1795.7034
   3943216.53749   3071543.66647  22345065.9434   22345063.5574
     -1410.7504
   -693059.30449   -530469.49946  24083960.5454   24083956.3184
     -1687.1094
  -5755933.94549  -4484742.70446  23796525.5374   23796522.6664
       906.5314
 04  9  9 22 42 45.0060000  0  7G 3G 8G13G10G27G19G28
  13040304.37047  10158715.15243  25695940.8424   25695940.6234
     -3992.0474
  -3605040.21849  -2801061.79348  22336916.1784   22336913.6314
      -261.2504
  16897320.03449  13157538.38446  23510620.2324   23510617.9824
     -4343.2974
   1838714.67748   1436528.82944  25014260.6624   25014259.4904
     -1805.4374
   3964405.63849   3088054.65347  22349098.4754   22349095.8114
     -1414.8284
   -667681.21949   -510694.35746  24088789.3894   24088785.7914
     -1696.9694
  -5769494.74849  -4495309.54146  23793945.3034   23793942.2604
       901.1564
 04  9  9 22 43  0.0060000  0  7G 3G 8G13G10G27G19G28
  13100235.13947  10205414.41642  25707345.3504   25707344.6544
     -3999.0944
  -3601091.58849  -2797984.92248  22337667.4044   22337664.8614
      -265.4844
  16962514.31348  13208339.09146  23523026.3184   23523024.1354
     -4349.6094
   1865865.68348   1457685.45244  25019427.7404   25019426.2524
     -1814.9374
   3985655.63649   3104613.11247  22353141.6544   22353139.2094
     -1418.6874
   -642154.94049   -490803.72846  24093647.4904   24093643.0924
     -1706.7194
  -5782974.60149  -4505813.28746  23791379.9124   23791376.9904
       895.9384
 04  9  9 22 43 15.0060000  0  7G 3G 8G13G10G27G19G28
  13160269.63947  10252194.54143  25718768.8034   25718769.1314
     -4005.6564
  -3597080.37849  -2794859.28948  22338430.7324   22338427.9824
      -269.4534
  17027800.33648  13259211.29346  23535450.1154   23535447.7254
     -4355.4224
   1893156.90148   1478951.35044  25024621.3654   25024619.8854
     -1824.0944
   4006962.73149   3121216.04047  22357196.1464   22357193.5184
     -1422.3594
   -616484.47449   -470800.76346  24098532.3114   24098528.1864
     -1716.1874
  -5796377.43149  -4516257.02146  23788829.0924   23788826.7254
       890.9694
 04  9  9 22 43 30.0060000  0  7G 3G 8G13G10G27G19G28
  13220408.36047  10299055.85742  25730213.6154   25730213.1314
     -4012.5004
  -3593005.52049  -2791684.07148  22339206.0214   22339203.7794
      -273.5004
  17093178.71249  13310155.44446  23547890.9284   23547888.6824
     -4361.3754
   1920589.01448   1500327.01444  25029840.8504   25029839.9244
     -1833.2194
   4028327.70749   3137864.06547  22361262.1154   22361259.4784
     -1426.0164
   -590668.98149   -450684.78046  24103444.8184   24103440.6934
     -1725.6094
  -5809702.40449  -4526640.09346  23786293.6314   23786290.8034
       886.0004
 04  9  9 22 43 45.0060000  0  7G 3G 8G13G10G27G19G28
  13280649.06747  10345996.64442  25741677.0844   25741676.5684
     -4018.9224
  -3588868.88949  -2788460.71048  22339993.5144   22339991.0534
      -277.3124
  17158647.44049  13361169.99746  23560349.6074   23560347.2914
     -4367.0944
   1948160.07648   1521810.95244  25035087.6314   25035086.6274
     -1842.1724
   4049748.80749   3154555.83847  22365338.6074   22365335.6934
     -1429.3594
   -564710.26049   -430457.19546  24108384.3504   24108380.9124
     -1734.8124
  -5822951.18049  -4536963.78546  23783772.4824   23783769.7714
       881.2194
 04  9  9 22 44  0.0060000  0  7G 3G 8G13G10G27G19G28
  13340990.23247  10393015.71442  25753159.2714   25753158.4674
     -4025.3914
  -3584671.71649  -2785190.18948  22340791.9754   22340789.1664
      -281.2034
  17224204.98249  13412253.77546  23572824.5454   23572822.2914
     -4372.8914
   1975868.66348   1543402.06144  25040360.5534   25040359.5494
     -1851.2504
   4071224.96149   3171290.50647  22369425.2644   22369422.8574
     -1432.8754
   -538609.59449   -410119.01146  24113351.0144   24113346.9594
     -1744.1564
  -5836125.09349  -4547229.13946  23781265.4044   23781262.7754
       876.3914
 04  9  9 22 44 15.0060000  0  7G 3G 8G13G10G27G19G28
  13401435.06247  10440115.58642  25764661.4364   25764661.5454
     -4032.6564
  -3580410.35249  -2781869.63348  22341602.9754   22341600.9714
      -285.7504
  17289854.60948  13463409.29946  23585317.9364   23585315.2014
     -4379.2974
   2003718.24348   1565103.03444  25045660.0214   25045658.7174
     -1860.8914
   4092759.70149   3188070.82047  22373523.1314   22373520.5924
     -1437.1724
   -512363.56049   -389667.54946  24118346.2954   24118341.6434
     -1754.0944
  -5849220.39949  -4557433.25546  23778773.6074   23778770.9204
       870.8134
 04  9  9 22 44 30.0060000  0  7G 3G 8G13G10G27G19G28
  13461982.61547  10487295.47943  25776183.4434   25776182.7214
     -4040.2194
  -3576085.19749  -2778499.37448  22342425.8344   22342423.3304
      -290.6564
  17355595.43948  13514635.90046  23597827.5064   23597825.1354
     -4385.9534
   2031707.91848   1586913.15944  25050986.2714   25050985.1274
     -1870.8754
   4114352.35149   3204896.28047  22377632.2874   22377629.6544
     -1441.6414
   -485972.88249   -369103.38946  24123368.1004   24123363.4204
     -1764.5004
  -5862237.60849  -4567576.52046  23776296.2874   23776293.8534
       864.9694
 04  9  9 22 44 45.0060000  0  7G 3G 8G13G10G27G19G28
  13522634.34547  10534556.50342  25787725.6464   25787724.8424
     -4047.1414
  -3571694.38649  -2775077.95848  22343261.2874   22343258.9634
      -295.1094
  17421428.98148  13565934.72246  23610355.2014   23610352.8934
     -4392.2194
   2059839.45248   1608833.82244  25056339.3114   25056338.3774
     -1880.3754
   4136004.94249   3221768.41347  22381752.6784   22381750.1704
     -1445.7344
   -459435.66849   -348425.02846  24128417.8504   24128413.5684
     -1774.2504
  -5875174.98149  -4577657.55546  23773834.5534   23773831.9784
       859.6094
 04  9  9 22 45  0.0060000  0  7G 3G 8G13G10G27G19G28
  13583392.67147  10581900.68043  25799287.0684   25799287.1314
     -4053.6874
  -3567235.31949  -2771603.35448  22344109.9044   22344107.6824
      -299.2194
  17487357.70548  13617307.71846  23622901.4044   23622898.6354
     -4398.0164
   2088115.29448   1630866.94044  25061720.2174   25061719.0184
     -1889.5474
   4157720.20049   3238689.39247  22385884.5374   22385882.2014
     -1449.4064
   -432749.21949   -327630.37546  24133495.9594   24133491.7994
     -1783.7664
  -5888029.70449  -4587674.18446  23771388.1704   23771385.9864
       854.5944
 04  9  9 22 45 15.0060000  0  7G 3G 8G13G10G27G19G28
  13644248.64547  10629320.86343  25810867.3894   25810867.6114
     -4060.3914
  -3562716.54449  -2768082.23048  22344969.9754   22344967.5214
      -303.3914
  17553372.68848  13668747.91246  23635463.1934   23635461.2014
     -4404.0004
   2116526.64548   1653005.64244  25067126.7564   25067125.4904
     -1898.7504
   4179489.44549   3255652.43847  22390027.3814   22390024.4594
     -1453.2194
   -405922.34049   -306726.31146  24138600.9594   24138596.7284
     -1793.2664
  -5900810.44749  -4597633.19946  23768955.8504   23768953.2014
       849.4694
 04  9  9 22 45 30.0060000  0  7G 3G 8G13G10G27G19G28
  13705207.14647  10676820.99743  25822467.7714   25822467.5684
     -4067.0624
  -3558132.72849  -2764510.41548  22345842.1234   22345839.7054
      -307.5314
  17619479.00748  13720259.31146  23648042.9124   23648040.9044
     -4409.8594
   2145078.63148   1675253.94044  25072559.8504   25072559.1274
     -1907.9224
   4201318.02349   3272661.73247  22394181.2174   22394178.3034
     -1456.8914
   -378949.65049   -285708.62746  24143733.6934   24143729.8144
     -1802.7504
  -5913511.82949  -4607530.33846  23766538.9984   23766536.0964
       844.3754
 04  9  9 22 45 45.0060000  0  7G 3G 8G13G10G27G19G28
  13766266.71447  10724399.83943  25834087.1624   25834086.6544
     -4074.1874
  -3553484.95849  -2760888.76948  22346726.4674   22346724.3184
      -312.1564
  17685675.18549  13771840.70646  23660639.7404   23660637.4824
     -4416.2974
   2173769.92048   1697610.77844  25078019.8344   25078019.1274
     -1917.5624
   4223204.75949   3289716.31747  22398346.0844   22398343.2324
     -1461.2664
   -351832.44249   -264578.33046  24148893.7094   24148889.9754
     -1812.8594
  -5926135.02249  -4617366.57346  23764137.2174   23764134.5184
       838.7344
 04  9  9 22 46  0.0060000  0  6G 8G13G10G27G19G28
  -3548776.46049  -2757219.79548  22347622.8814   22347620.6624
      -315.8124
  17751957.93249  13823489.57746  23673252.7324   23673250.2524
     -4421.5944
   2202597.28148   1720073.64944  25083505.7324   25083504.4244
     -1926.2194
   4245146.73849   3306813.96647  22402521.6314   22402518.6274
     -1464.5314
   -324573.84449   -243337.86146  24154080.9284   24154076.7014
     -1821.8284
  -5938682.97449  -4627144.18446  23761749.5614   23761746.2994
       834.1254
 04  9  9 22 46 15.0060000  0  6G 8G13G10G27G19G28
  -3544000.12449  -2753497.97148  22348531.7644   22348529.1544
      -320.5784
  17818333.64449  13875210.88146  23685883.9674   23685881.3224
     -4428.0624
   2231567.29448   1742647.67944  25089018.1074   25089017.7324
     -1935.9694
   4267150.80649   3323960.00047  22406708.6624   22406706.0024
     -1468.9534
   -297167.14749   -221981.99246  24159296.3034   24159291.8034
     -1831.9844
  -5951148.89449  -4636857.86146  23759377.0844   23759374.0184
       828.3914
 04  9  9 22 46 30.0060000  0  6G 8G13G10G27G19G28
  -3539157.50949  -2749724.49248  22349452.8964   22349450.6394
      -324.7664
  17884800.30149  13927003.03546  23698531.9824   23698529.6894
     -4433.8914
   2260678.08248   1765331.40244  25094558.0374   25094556.8224
     -1945.0624
   4289215.16449   3341152.99947  22410907.4674   22410904.8654
     -1472.6414
   -269614.12149   -200512.08846  24164539.3814   24164534.8854
     -1841.4534
  -5963534.53949  -4646508.98446  23757020.2874   23757017.4324
       823.3134
 04  9  9 22 46 45.0060000  0  6G 8G13G10G27G19G28
  -3534248.93549  -2745899.61748  22350386.8184   22350384.6434
      -329.4694
  17951357.60748  13978865.84446  23711197.6154   23711195.2094
     -4440.1564
   2289929.26848   1788124.52744  25100124.1394   25100123.0294
     -1954.7974
   4311339.67749   3358392.88847  22415117.7094   22415114.5804
     -1476.9694
   -241915.00349   -178928.34746  24169810.2794   24169806.2254
     -1851.4694
  -5975839.96449  -4656097.60446  23754678.5684   23754675.2954
       817.6564
 04  9  9 22 47  0.0060000  0  6G 8G13G10G27G19G28
  -3529272.79849  -2742022.09548  22351333.8504   22351331.5184
      -334.0624
  18018006.88848  14030800.31746  23723880.1464   23723878.1314
     -4446.3754
   2319322.34648   1811028.22044  25105718.0294   25105716.6824
     -1964.2814
   4333526.23349   3375681.12247  22419339.3814   22419337.1744
     -1481.2504
   -214068.21849   -157229.55146  24175109.0214   24175104.9864
     -1861.4064
  -5988063.56649  -4665622.46046  23752352.4984   23752349.5454
       812.0784
 04  9  9 22 47 15.0060000  0  6G 8G13G10G27G19G28
  -3524230.42649  -2738092.97548  22352293.5924   22352290.9364
      -338.2344
  18084746.30548  14082805.01346  23736580.7094   23736578.1624
     -4452.1254
   2348855.64948   1834041.16044  25111337.4754   25111336.5844
     -1973.4224
   4355773.17149   3393016.39347  22423572.8654   22423569.7754
     -1484.9374
   -186075.32249   -135416.90746  24180436.5534   24180432.0884
     -1870.9064
  -6000206.73949  -4675084.65346  23750041.5214   23750038.7444
       807.0634
 04  9  9 22 47 30.0060000  0  6G 8G13G10G27G19G28
  -3519118.95749  -2734110.00148  22353265.9824   22353263.5254
      -343.5164
  18151578.25948  14134881.82246  23749298.3894   23749296.9474
     -4458.9224
   2378531.66848   1857165.33144  25116984.9514   25116983.4324
     -1983.5314
   4378083.40349   3410400.99047  22427818.4514   22427815.8614
     -1489.8914
   -157933.58349   -113488.27446  24185791.6784   24185787.4944
     -1881.4534
  -6012266.70049  -4684482.00646  23747746.3034   23747743.8654
       800.8134
 04  9  9 22 47 45.0060000  0  6G 8G13G10G27G19G28
  -3513941.74049  -2730075.79348  22354251.5614   22354249.0534
      -347.4694
  18218499.13848  14187027.92146  23762032.9124   23762030.9674
     -4464.4534
   2408346.92748   1880397.99744  25122658.4674   25122656.9394
     -1992.4534
   4400453.62649   3427832.33547  22432075.7094   22432072.7684
     -1493.5164
   -129646.37249    -91446.29546  24191174.5144   24191170.0574
     -1890.8444
  -6024246.71649  -4693817.05246  23745466.6544   23745463.8424
       795.8284
 04  9  9 22 48  0.0060000  0  6G 8G13G10G27G19G28
  -3508697.06849  -2725989.02548  22355249.4984   22355246.9984
      -351.5944
  18285510.42148  14239244.48146  23774784.7254   23774782.9284
     -4470.1414
   2438302.75648   1903740.19644  25128358.4594   25128357.6234
     -2001.4844
   4422885.43549   3445311.67547  22436344.1464   22436341.2604
     -1497.2814
   -101212.18649    -69289.76846  24196585.2714   24196581.2174
     -1900.2664
  -6036145.22449  -4703088.59546  23743202.6704   23743200.1154
       790.7344
 04  9  9 22 48 15.0060000  0  6G 8G13G10G27G19G28
  -3503386.22549  -2721850.68948  22356260.1004   22356257.9434
      -356.1414
  18352610.46148  14291530.20146  23787553.5924   23787551.5214
     -4476.1254
   2468397.76448   1927190.84644  25134085.4594   25134084.7794
     -2010.8754
   4445377.55549   3462837.99547  22440624.0684   22440621.5214
     -1501.2974
    -72632.45349    -47019.83946  24202023.8344   24202019.4944
     -1910.0784
  -6047963.40149  -4712297.53046  23740953.8654   23740951.1354
       785.3444
 04  9  9 22 48 30.0060000  0  6G 8G13G10G27G19G28
  -3498012.27149  -2717663.19448  22357282.6544   22357280.6034
      -360.0944
  18419795.92848  14343882.47846  23800338.5684   23800336.5764
     -4481.7034
   2498628.56548   1950747.28844  25139838.6934   25139837.8694
     -2019.7504
   4467927.09249   3480409.06448  22444915.5684   22444912.6894
     -1505.0004
    -43910.33749    -24638.97646  24207489.2324   24207485.4944
     -1919.3124
  -6059704.35449  -4721446.31146  23738719.3504   23738716.5804
       780.3284
 04  9  9 22 48 45.0060000  0  6G 8G13G10G27G19G28
  -3492579.47549  -2713429.84348  22358316.3034   22358314.0534
      -364.4064
  18487062.21948  14396297.73646  23813138.8654   23813137.1234
     -4487.3444
   2528990.69148   1974406.10444  25145616.5064   25145615.4044
     -2028.7974
   4490529.61749   3498021.42647  22449216.4284   22449213.9164
     -1508.8124
    -15050.23749     -2150.58746  24212981.0374   24212977.0764
     -1928.8284
  -6071372.38049  -4730538.25046  23736499.2174   23736496.3534
       775.1724
 04  9  9 22 49  0.0060000  0  6G 8G13G10G27G19G28
  -3487081.50849  -2709145.70348  22359362.9364   22359360.0574
      -368.7194
  18554415.37749  14448780.69446  23825955.9044   23825953.7284
     -4493.0624
   2559490.41648   1998172.08544  25151419.9434   25151418.9474
     -2037.8754
   4513191.60549   3515680.12647  22453528.7874   22453526.0924
     -1512.8284
     13954.26149     20450.32446  24218500.6234   24218495.9044
     -1938.4844
  -6082961.08249  -4739568.38946  23734294.0924   23734291.3504
       769.8594
 04  9  9 22 49 15.0060000  0  6G 8G13G10G27G19G28
  -3481521.98449  -2704813.60448  22360420.6394   22360418.2644
      -372.9534
  18621851.39348  14501328.19246  23838788.3964   23838786.0024
     -4498.6254
   2590123.66548   2022042.16244  25157249.3184   25157248.2834
     -2046.7814
   4535909.31249   3533382.23447  22457851.8184   22457849.6624
     -1516.5474
     43099.16949     43160.64946  24224046.7794   24224042.6704
     -1947.8284
  -6094474.17649  -4748539.59846  23732103.0294   23732100.5254
       764.8284
 04  9  9 22 49 30.0060000  0  6G 8G13G10G27G19G28
  -3475896.09249  -2700429.76848  22361491.1864   22361488.9284
      -376.8124
  18689374.71448  14553943.74246  23851637.5294   23851635.7484
     -4504.0314
   2620894.92048   2046019.74344  25163104.8654   25163103.7794
     -2055.5474
   4558687.46549   3551131.43847  22462186.4124   22462183.6584
     -1520.1254
     72389.14849     65984.01046  24229620.2954   24229615.9634
     -1957.0474
  -6105906.89549  -4757448.18646  23729927.3114   23729924.9394
       759.9534
 04  9  9 22 49 45.0060000  0  6G 8G13G10G27G19G28
  -3470211.59949  -2696000.29348  22362572.9124   22362570.3344
      -380.9224
  18756977.17948  14606620.95946  23864502.2404   23864499.9364
     -4509.5624
   2651796.30848   2070098.74544  25168985.2324   25168984.5454
     -2064.5004
   4581518.47449   3568921.84147  22466530.9124   22466528.3964
     -1523.8914
    101816.39949     88914.33146  24235220.1934   24235216.1504
     -1966.4534
  -6117266.96949  -4766300.17446  23727765.6074   23727762.4364
       754.9534
 04  9  9 22 50  0.0060000  0  6G 8G13G10G27G19G28
  -3464463.20149  -2691521.02448  22363666.5924   22363664.0644
      -386.1564
  18824663.87248  14659363.80846  23877382.6394   23877380.3034
     -4516.0624
   2682832.94048   2094283.12444  25174891.1624   25174890.6934
     -2074.4064
   4604407.61349   3586757.54347  22470886.5924   22470883.5644
     -1528.6874
    131386.26249    111955.78446  24240847.3894   24240843.1624
     -1976.8754
  -6128549.09949  -4775091.42146  23725618.7714   23725616.0294
       748.7344
 04  9  9 22 50 15.0060000  0  6G 8G13G10G27G19G28
  -3458648.42349  -2686990.01348  22364773.1624   22364770.9204
      -389.1414
  18892436.89148  14712173.91346  23890279.0844   23890277.2524
     -4520.3284
   2714006.96848   2118574.58744  25180823.6154   25180822.8264
     -2082.1414
   4627357.21249   3604640.34947  22475253.6004   22475250.7834
     -1531.2504
    161100.93349    135110.08046  24246501.8034   24246497.0414
     -1985.1414
  -6139750.91449  -4783820.07946  23723486.9674   23723484.1154
       744.8134
 04  9  9 22 50 30.0060000  0  6G 8G13G10G27G19G28
  -3452774.29149  -2682412.76648  22365891.0374   22365888.8854
      -393.7194
  18960288.85148  14765045.54446  23903190.7014   23903189.0254
     -4526.2034
   2745311.08548   2142967.38744  25186780.4594   25186778.9784
     -2091.4534
   4650360.33549   3622564.85348  22479631.0924   22479628.3734
     -1535.4844
    190953.21349    158371.60346  24252182.4364   24252178.2484
     -1994.8594
  -6150879.43049  -4792491.62246  23721369.1934   23721366.4364
       739.3284
 04  9  9 22 50 45.0060000  0  6G 8G13G10G27G19G28
  -3446838.13449  -2677787.18148  22367020.7484   22367018.0534
      -397.5474
  19028222.01948  14817980.44946  23916118.3344   23916116.4434
     -4531.3594
   2776747.73548   2167463.46144  25192763.1704   25192761.6194
     -2100.0004
   4673419.60149   3640533.11647  22484018.8894   22484016.5494
     -1538.9224
    220945.54049    181742.24446  24257889.9514   24257885.6974
     -2003.9374
  -6161932.02549  -4801104.02446  23719266.1154   23719263.4044
       734.5474
 04  9  9 22 51  0.0060000  0  6G 8G13G10G27G19G28
  -3440835.25649  -2673109.60948  22368163.1624   22368160.5764
      -402.4374
  19096240.77148  14870982.04646  23929061.8034   23929060.0534
     -4537.5164
   2808321.27647   2192066.23244  25198770.9984   25198770.3074
     -2109.6254
   4696539.65249   3658548.74247  22488418.9204   22488415.8574
     -1543.5004
    251082.53749    205225.61946  24263624.4204   24263620.4634
     -2014.0624
  -6172904.05049  -4809653.61846  23717177.9434   23717175.6194
       728.7194
 04  9  9 22 51 15.0060000  0  6G 8G13G10G27G19G28
  -3434768.85049  -2668382.53148  22369317.4514   22369315.1504
      -405.9844
  19164341.62348  14924047.59746  23942021.3184   23942018.9004
     -4542.2814
   2840028.30948   2216773.00244  25204804.4204   25204803.5374
     -2117.6564
   4719717.34349   3676609.27447  22492829.2404   22492826.5254
     -1546.5624
    281360.94249    228819.19446  24269386.8504   24269382.6154
     -2022.7194
  -6183798.59749  -4818142.85346  23715104.5534   23715101.9244
       724.2664
 04  9  9 22 51 30.0060000  0  6G 8G13G10G27G19G28
  -3428639.32349  -2663606.28048  22370483.9044   22370481.1034
      -410.5474
  19232523.85848  14977176.58946  23954995.6864   23954993.9784
     -4548.0004
   2871868.21048   2241583.30344  25210863.0764   25210862.4824
     -2126.7974
   4742952.31949   3694714.45347  22497250.4674   22497247.6974
     -1550.7194
    311780.22849    252522.52546  24275175.1074   24275171.0414
     -2032.4534
  -6194616.16749  -4826572.10646  23713046.3034   23713043.3144
       718.8134
 04  9  9 22 51 45.0060000  0  6G 8G13G10G27G19G28
  -3422451.62649  -2658784.68648  22371661.3654   22371658.3854
      -414.6564
  19300782.08649  15030364.78446  23967984.9204   23967982.4474
     -4553.2664
   2903835.75748   2266493.05844  25216946.4984   25216945.9824
     -2135.5784
   4766239.58649   3712860.37848  22501682.1934   22501679.4554
     -1554.4224
    342335.36649    276331.72046  24280989.4904   24280985.2834
     -2041.7344
  -6205361.69649  -4834945.22946  23711001.8654   23710998.7364
       713.8444
 04  9  9 22 52  0.0060000  0  6G 8G13G10G27G19G28
  -3416204.44549  -2653916.73648  22372850.2014   22372847.4754
      -418.3594
  19369117.31848  15083612.96846  23980989.2484   23980986.8654
     -4558.0624
   2935931.96648   2291503.07944  25223054.8734   25223053.7054
     -2143.8914
   4789580.41749   3731048.03447  22506123.4204   22506120.9984
     -1557.7504
    373027.33449    300247.55046  24286830.2484   24286825.7754
     -2050.5314
  -6216034.03149  -4843261.30946  23708970.9044   23708967.4554
       709.1724
 04  9  9 22 52 15.0060000  0  6G 8G13G10G27G19G28
  -3409891.02449  -2648997.18548  22374051.4434   22374049.0884
      -423.1564
  19437535.88049  15136926.12146  23994008.1784   23994006.3894
     -4564.1094
   2968163.04548   2316618.20743  25229187.9124   25229187.3144
     -2153.3444
   4812981.38349   3749282.55147  22510577.0144   22510574.3814
     -1562.1564
    403862.61549    324275.03346  24292697.6004   24292693.2954
     -2060.5474
  -6226626.56049  -4851515.19946  23706955.2644   23706952.2254
       703.4844
 04  9  9 22 52 30.0060000  0  6G 8G13G10G27G19G28
  -3403508.68449  -2644023.94348  22375266.1464   22375263.6464
      -428.0004
  19506040.34148  15190306.17145  24007044.6544   24007042.4284
     -4570.0784
   3000531.70648   2341840.51843  25235347.3814   25235346.4474
     -2162.7194
   4836445.42649   3767566.22347  22515041.8424   22515039.3964
     -1566.4844
    434844.04849    348416.40446  24298593.1704   24298589.5804
     -2070.4224
  -6237136.28949  -4859704.58246  23704954.8654   23704952.3854
       697.6884
 04  9  9 22 52 45.0060000  0  6G 8G13G10G27G19G28
  -3397062.07249  -2639000.59248  22376492.7254   22376490.5724
      -432.1874
  19574625.34248  15243749.00645  24020095.7094   24020094.2254
     -4575.3594
   3033032.80948   2367166.07244  25241532.5844   25241531.5454
     -2171.4534
   4859967.67149   3785895.24547  22519518.0294   22519515.1114
     -1570.4064
    465966.58649    372667.75146  24304515.7644   24304511.5724
     -2079.8754
  -6247568.27149  -4867833.37146  23702969.6234   23702966.3184
       692.6094
 04  9  9 22 53  0.0060000  0  6G 8G13G10G27G19G28
  -3390546.40149  -2633923.44548  22377732.5144   22377730.0724
      -436.4374
  19643295.51548  15297258.20546  24033163.0454   24033161.3614
     -4580.6254
   3065670.95948   2392598.36943  25247742.8814   25247741.6464
     -2180.2194
   4883552.97949   3804273.41448  22524006.2714   22524003.4594
     -1574.1724
    497234.92849    397032.68646  24310465.7954   24310461.7094
     -2089.1254
  -6257917.61049  -4875897.77247  23701000.7874   23700997.3224
       687.5004
 04  9  9 22 53 15.0060000  0  6G 8G13G10G27G19G28
  -3383973.80849  -2628801.93048  22378983.3574   22378981.1504
      -440.0164
  19712038.57348  15350824.19546  24046244.4284   24046242.7714
     -4585.2664
   3098433.83448   2418127.84844  25253977.3504   25253976.3114
     -2188.2974
   4907189.35949   3822691.36448  22528504.0454   22528501.3424
     -1577.3594
    528636.98349    421501.81446  24316441.3814   24316437.1114
     -2097.7974
  -6268196.32249  -4883907.14147  23699044.6464   23699041.5064
       683.0004
 04  9  9 22 53 30.0060000  0  6G 8G13G10G27G19G28
  -3377346.57749  -2623637.84948  22380244.4754   22380241.9124
      -444.1414
  19780851.79648  15404444.86345  24059339.2324   24059337.7444
     -4590.3444
   3131318.90948   2443752.59443  25260235.2794   25260234.4674
     -2196.8754
   4930874.45349   3841147.28747  22533011.1784   22533008.5804
     -1581.1414
    560170.11549    446073.08946  24322442.0614   24322437.9394
     -2107.0784
  -6278406.69949  -4891863.24647  23697101.5064   23697098.4904
       677.8754
 04  9  9 22 53 45.0060000  0  6G 8G13G10G27G19G28
  -3370656.93649  -2618425.12948  22381517.5534   22381514.7484
      -447.6094
  19849742.58748  15458125.96446  24072448.2094   24072446.5254
     -4594.9534
   3164333.69148   2469478.38744  25266518.3814   25266516.9714
     -2204.8754
   4954616.02849   3859647.21648  22537528.9674   22537526.6234
     -1584.2344
    591842.06249    470752.52846  24328469.2254   24328464.8224
     -2115.5784
  -6288541.15249  -4899760.20447  23695173.1464   23695170.0724
       673.5944
 04  9  9 22 54  0.0060000  0  6G 8G13G10G27G19G28
  -3363903.81449  -2613162.95748  22382802.6004   22382800.2214
      -452.1874
  19918711.22348  15511867.72145  24085572.8814   24085571.0454
     -4600.3914
   3197478.67748   2495305.62844  25272825.0534   25272824.1434
     -2213.9064
   4978414.75849   3878191.68447  22542057.6704   22542055.2484
     -1588.4224
    623653.34349    495540.53146  24334522.0844   24334518.2324
     -2125.2504
  -6298598.87549  -4907597.38046  23693259.1154   23693256.1074
       668.0784
 04  9  9 22 54 15.0060000  0  6G 8G13G10G27G19G28
  -3357085.79849  -2607850.21248  22384099.9824   22384097.6354
      -457.0164
  19987759.16448  15565671.27746  24098712.5764   24098711.0064
     -4606.1414
   3230755.18348   2521235.35544  25279157.5294   25279156.6394
     -2223.2034
   5002272.56249   3896782.18047  22546597.6624   22546595.1894
     -1592.8444
    655605.58149    520438.38246  24340602.9594   24340598.4984
     -2135.1874
  -6308578.24849  -4915373.49346  23691359.9204   23691356.7794
       662.3284
 04  9  9 22 54 30.0060000  0  6G 8G13G10G27G19G28
  -3350208.18349  -2602491.02448  22385408.4594   22385405.9594
      -460.5164
  20056880.87648  15619532.31345  24111865.7794   24111863.9324
     -4610.6094
   3264157.65647   2547263.25643  25285514.3734   25285513.0844
     -2231.0624
   5026183.98949   3915414.45847  22551148.0844   22551145.2444
     -1595.8754
    687693.33548    545441.82446  24346708.8964   24346704.6434
     -2143.7034
  -6318484.48048  -4923092.60646  23689474.7254   23689471.4824
       657.9844
 04  9  9 22 54 45.0060000  0  6G 8G13G10G27G19G28
  -3343267.80149  -2597082.92748  22386729.3964   22386727.2914
      -464.8754
  20126079.02048  15673452.91445  24125033.5844   24125031.7684
     -4615.7814
   3297689.05748   2573391.60443  25291894.9984   25291893.6894
     -2239.8124
   5050152.18149   3934090.97247  22555708.9124   22555706.4084
     -1599.8914
    719919.51349    570553.13146  24352841.1154   24352837.3144
     -2153.1414
  -6328314.51549  -4930752.35847  23687604.0294   23687601.4324
       652.7034
 04  9  9 22 55  0.0060000  0  6G 8G13G10G27G19G28
  -3336263.60349  -2591625.08948  22388062.2174   22388059.6004
      -469.5314
  20195354.42749  15727433.71945  24138216.7174   24138214.8304
     -4621.3594
   3331350.10348   2599621.00944  25298300.1864   25298299.3224
     -2248.7344
   5074178.36049   3952812.66347  22560280.8424   22560278.6434
     -1604.0944
    752285.16449    595773.12646  24359000.4904   24358996.3424
     -2162.7344
  -6338067.27849  -4938351.88446  23685748.4984   23685745.4594
       647.2664
 04  9  9 22 55 15.0060000  0  6G 8G13G10G27G19G28
  -3329191.40549  -2586114.28948  22389407.9904   22389405.6934
      -473.5164
  20264710.92048  15781477.71845  24151414.7714   24151412.7054
     -4626.2344
   3365144.68448   2625954.41444  25304731.2404   25304730.0214
     -2257.2504
   5098266.47649   3971582.63547  22564864.8184   22564862.1974
     -1607.7504
    784794.19149    621104.82246  24365186.3654   24365182.4434
     -2171.8284
  -6347738.75849  -4945888.09146  23683908.1394   23683904.8534
       642.2664
 04  9  9 22 55 30.0060000  0  6G 8G13G10G27G19G28
  -3322058.29449  -2580556.01748  22390765.2174   22390762.8534
      -477.5164
  20334140.95148  15835579.00945  24164626.5374   24164624.9434
     -4631.0474
   3399065.54748   2652386.24344  25311186.3504   25311185.2794
     -2265.4694
   5122409.58649   3990395.44747  22569459.0844   22569456.4394
     -1611.3124
    817439.41349    646542.66646  24371398.7644   24371394.6004
     -2180.8284
  -6357335.94049  -4953366.39746  23682081.6004   23682078.5064
       637.4064
 04  9  9 22 55 45.0060000  0  6G 8G13G10G27G19G28
  -3314863.68149  -2574949.83148  22392134.3654   22392131.6974
      -482.1724
  20403644.55948  15889737.63445  24177852.9594   24177850.8184
     -4636.4844
   3433112.72048   2678916.48143  25317665.5374   25317664.3894
     -2274.4534
   5146607.92549   4009251.30347  22574063.7324   22574061.0374
     -1615.4224
    850220.97449    672086.72246  24377636.8264   24377632.6784
     -2190.3754
  -6366858.51249  -4960786.57347  23680269.6074   23680266.5184
       631.9534
 04  9  9 22 56  0.0060000  0  6G 8G13G10G27G19G28
  -3307605.27349  -2569293.91648  22393515.4514   22393513.1584
      -486.5164
  20473223.79748  15943955.18345  24191093.3504   24191091.4554
     -4641.5624
   3467288.22748   2705546.74943  25324168.2094   25324167.3504
     -2283.1414
   5170863.96949   4028152.11947  22578679.4984   22578676.7364
     -1619.4694
    883141.04249    697738.73746  24383901.1624   24383897.0104
     -2199.7664
  -6376304.24049  -4968146.84846  23678471.7564   23678468.7754
       626.7194
 04  9  9 22 56 15.0060000  0  6G 8G13G10G27G19G28
  -3300271.27849  -2563579.11348  22394911.1864   22394908.7874
      -491.2664
  20542890.15348  15998240.63145  24204350.4824   24204349.0414
     -4647.1254
   3501603.61548   2732285.99043  25330698.4364   25330697.7484
     -2292.1094
   5195189.43049   4047107.03147  22583308.4674   22583305.8184
     -1623.8754
    916211.30949    723507.77946  24390194.1314   24390190.5104
     -2209.5164
  -6385661.21449  -4975437.99146  23676691.5924   23676688.0214
       621.0944
 04  9  9 22 56 30.0060000  0  6G 8G13G10G27G19G28
  -3292876.66249  -2557817.08048  22396318.7484   22396316.1194
      -495.4064
  20612628.26448  16052581.97045  24217621.7174   24217619.6464
     -4652.0164
   3536043.66347   2759122.36344  25337251.8814   25337251.6824
     -2300.5784
   5219569.35749   4066104.35947  22587947.8814   22587945.2174
     -1627.5944
    949416.66749    749382.08646  24396513.1704   24396508.8224
     -2218.6564
  -6394944.53949  -4982671.73647  23674924.8964   23674921.7834
       616.0474
 04  9  9 22 56 45.0060000  0  6G 8G13G10G27G19G28
  -3285416.48249  -2552003.93248  22397738.0844   22397735.9164
      -499.1874
  20682442.79348  16106982.85745  24230906.8034   24230904.4714
     -4656.5944
   3570613.02447   2786059.52543  25343830.3814   25343830.1434
     -2308.5944
   5244008.70849   4085148.02047  22592598.3734   22592595.9084
     -1631.0164
    982761.81349    775365.31946  24402858.5614   24402855.0184
     -2227.3914
  -6404149.31949  -4989844.26047  23673173.3114   23673170.3114
       611.2974
 04  9  9 22 57  0.0060000  0  6G 8G13G10G27G19G28
  -3277895.66349  -2546143.54948  22399169.1004   22399166.4824
      -504.0944
  20752328.58248  16161439.28545  24244205.4594   24244203.6824
     -4662.0164
   3605306.57747   2813093.45643  25350432.6784   25350431.8574
     -2317.6414
   5268502.71749   4104234.25947  22597259.6544   22597257.1664
     -1635.3754
   1016241.72249    801453.57146  24409229.7174   24409225.5804
     -2237.1414
  -6413280.33649  -4996959.31747  23671435.7174   23671432.7054
       605.6564
 04  9  9 22 57 15.0060000  0  6G 8G13G10G27G19G28
  -3270314.68849  -2540236.29248  22400611.9984   22400609.6664
      -508.2344
  20822284.54148  16215950.38245  24257518.0374   24257516.0414
     -4666.9224
   3640123.26947   2840223.31944  25357057.5764   25357057.1274
     -2326.0474
   5293050.63549   4123362.49647  22601931.1784   22601928.1704
     -1639.1414
   1049855.60049    827646.19446  24415626.0374   24415621.3654
     -2246.2194
  -6422338.37649  -5004017.51447  23669711.8574   23669708.9714
       600.6094
 04  9  9 22 57 30.0060000  0  6G 8G13G10G27G19G28
  -3262669.39349  -2534278.91548  22402067.1004   22402064.3934
      -512.3284
  20892314.68948  16270519.29445  24270843.9284   24270842.3854
     -4671.6254
   3675067.31247   2867452.42343  25363707.1864   25363706.4434
     -2334.2664
   5317657.01549   4142536.30447  22606613.4674   22606610.5334
     -1642.8754
   1083607.81549    853946.61946  24422048.7484   24422044.8184
     -2255.2814
  -6431318.93749  -5011015.34147  23668003.1934   23668000.1354
       595.6884
 04  9  9 22 57 45.0060000  0  6G 8G13G10G27G19G28
  -3254960.94349  -2528272.33048  22403533.5144   22403530.6584
      -516.3444
  20962417.20948  16325144.60645  24284184.2714   24284182.0924
     -4676.2664
   3710136.89347   2894779.35943  25370380.8504   25370380.2134
     -2342.3914
   5342320.18149   4161754.35647  22611306.5614   22611304.0104
     -1646.4534
   1117496.62549    880353.49446  24428497.6234   24428493.4514
     -2264.1094
  -6440223.61249  -5017954.02647  23666308.6074   23666305.3074
       590.7974
 04  9  9 22 58  0.0060000  0  6G 8G13G10G27G19G28
  -3247181.47349  -2522210.40148  22405013.9124   22405011.3964
      -520.9224
  21032599.80848  16379832.28245  24297539.1004   24297537.1974
     -4681.4374
   3745339.81947   2922210.18843  25377080.0614   25377079.5534
     -2351.2504
   5367048.25849   4181022.98847  22616012.1934   22616009.6824
     -1650.6564
   1151529.88549    906872.92046  24434974.0374   24434970.1354
     -2273.6564
  -6449044.38449  -5024827.33247  23664629.9674   23664626.9084
       585.2974
 04  9  9 22 58 15.0070000  0  6G 8G13G10G27G19G28
  -3239328.33949  -2516091.06548  22406508.0894   22406505.8114
      -526.1724
  21102869.12948  16434587.58045  24310911.2224   24310909.6474
     -4687.2344
   3780680.31047   2949748.22043  25383804.7224   25383803.8544
     -2360.5784
   5391845.14849   4200345.23247  22620731.0194   22620728.2804
     -1655.4224
   1185711.87049    933508.24346  24441478.3314   24441474.3864
     -2283.6874
  -6457779.66549  -5031634.02747  23662967.6364   23662964.6284
       579.1884
 04  9  9 22 58 30.0070000  0  6G 8G13G10G27G19G28
  -3231410.02749  -2509920.95748  22408015.1754   22408012.5734
      -529.9224
  21173207.71448  16489396.82545  24324296.1834   24324294.0694
     -4691.6254
   3816145.56346   2977383.46443  25390553.4874   25390552.8544
     -2368.4694
   5416699.82849   4219712.51247  22625460.7144   22625457.6904
     -1658.8444
   1220030.12348    960249.73646  24448009.1904   24448004.7374
     -2292.3914
  -6466436.11949  -5038379.29947  23661320.4564   23661317.1984
       574.5944
 04  9  9 22 58 45.0070000  0  6G 8G13G10G27G19G28
  -3223425.39249  -2503699.15248  22409534.4564   22409531.5114
      -534.3754
  21243620.52048  16544263.91245  24337695.7374   24337693.7574
     -4696.5164
   3851738.41647   3005118.15543  25397326.9094   25397325.8114
     -2376.8754
   5441614.70249   4239126.69847  22630201.2614   22630198.7964
     -1662.8754
   1254487.54649    987099.68246  24454566.0194   24454561.9134
     -2301.6564
  -6475013.59949  -5045063.02747  23659688.2844   23659684.3864
       569.4224
 04  9  9 22 59  0.0070000  0  6G 8G13G10G27G19G28
  -3215377.16349  -2497427.79448  22411066.0894   22411063.2334
      -538.4534
  21314104.59648  16599186.52745  24351108.3004   24351106.5344
     -4701.1414
   3887455.90647   3032949.96143  25404123.4564   25404122.8514
     -2385.1254
   5466586.97749   4258585.61547  22634953.6124   22634951.1984
     -1666.5624
   1289081.24749   1014055.82646  24461149.0424   24461144.9524
     -2310.6414
  -6483514.71849  -5051687.26147  23658070.5504   23658067.2574
       564.3754
 04  9  9 22 59 15.0070000  0  6G 8G13G10G27G19G28
  -3207262.22049  -2491104.45948  22412610.4094   22412607.7614
      -543.3284
  21384662.65348  16654166.80745  24364535.3474   24364533.2024
     -4706.4064
   3923300.86647   3060881.06743  25410944.4564   25410943.8544
     -2394.0944
   5491619.78549   4278091.69948  22639717.4794   22639715.0034
     -1670.9224
   1323814.18149   1041120.44346  24467758.6674   24467754.9014
     -2320.2344
  -6491936.45149  -5058249.62747  23656467.6514   23656464.6084
       558.7194
 04  9  9 22 59 30.0070000  0  6G 8G13G10G27G19G28
  -3199080.51349  -2484729.10148  22414167.1514   22414164.1794
      -548.3914
  21455294.17348  16709204.31645  24377975.8314   24377974.2184
     -4711.9534
   3959272.78947   3088911.12943  25417790.0034   25417789.3664
     -2403.0624
   5516713.08249   4297644.91848  22644492.3314   22644489.7694
     -1675.5784
   1358685.99349   1068293.27846  24474394.4014   24474390.5034
     -2330.1254
  -6500279.09549  -5064750.38647  23654880.4874   23654876.7024
       552.7974
 04  9  9 22 59 45.0070000  0  6G 8G13G10G27G19G28
  -3190829.07449  -2478299.39348  22415737.5814   22415734.8544
      -551.7814
  21526001.90748  16764301.21345  24391431.1204   24391429.0224
     -4715.6724
   3995374.56447   3117042.37143  25424660.1984   25424659.3114
     -2410.3914
   5541869.92849   4317247.64547  22649279.5194   22649277.0734
     -1678.5784
   1393699.58949   1095576.61546  24481057.5114   24481052.7964
     -2338.2974
  -6508539.42749  -5071186.97347  23653308.4014   23653305.3824
       548.7034
 04  9  9 23  0  0.0070000  0  6G 8G13G10G27G19G28
  -3182516.39049  -2471821.97348  22417319.2844   22417317.0034
      -556.7504
  21596776.83048  16819450.47045  24404899.0194   24404897.5034
     -4721.0474
   4031597.26747   3145267.85043  25431552.7924   25431552.0424
     -2419.4064
   5567081.65649   4336893.15547  22654077.4014   22654074.7844
     -1683.0784
   1428846.09749   1122963.50846  24487746.0344   24487741.6164
     -2348.0164
  -6516726.31749  -5077566.34847  23651750.3474   23651747.1404
       542.8594
 04  9  9 23  0 15.0070000  0  6G 8G13G10G27G19G28
  -3174134.58449  -2465290.69748  22418914.3084   22418911.5814
      -561.4374
  21667626.71648  16874658.15545  24418381.5034   24418379.4954
     -4726.2194
   4067948.56347   3173593.48943  25438470.3394   25438469.5304
     -2428.0624
   5592356.28149   4356587.67747  22658886.8864   22658884.0034
     -1687.4534
   1464133.43949   1150460.12846  24494460.2454   24494455.9334
     -2357.5624
  -6524831.64249  -5083882.17847  23650207.9254   23650204.7184
       537.2814
 04  9  9 23  0 30.0070000  0  6G 8G13G10G27G19G28
  -3165682.92349  -2458704.97548  22420522.3234   22420520.1014
      -565.4844
  21738552.14748  16929924.68145  24431878.2064   24431876.8704
     -4730.5784
   4104429.07846   3202019.87443  25445412.2224   25445411.5894
     -2436.1254
   5617694.74649   4376331.93747  22663708.6284   22663705.5154
     -1691.0784
   1499562.33148   1178067.06846  24501202.3154   24501198.2574
     -2366.4224
  -6532854.51449  -5090133.74247  23648681.4094   23648678.1284
       532.3754
 04  9  9 23  0 45.0070000  0  6G 8G13G10G27G19G28
  -3157166.72849  -2452068.96348  22422143.0264   22422140.5734
      -569.8124
  21809546.95148  16985245.25945  24445388.1754   24445386.5464
     -4735.1724
   4141032.67647   3230542.14143  25452377.8624   25452377.1474
     -2444.3124
   5643091.29149   4396121.43848  22668541.3474   22668539.0304
     -1694.9224
   1535126.72149   1205779.58246  24507969.9484   24507966.0264
     -2375.3914
  -6540800.78449  -5096325.62247  23647169.1284   23647165.9174
       527.2814
